<?xml version="1.0" encoding="UTF-8" standalone="no" ?>
<gpx xmlns="http://www.topografix.com/GPX/1/1" xmlns:xsi="http://www.w3.org/2001/XMLSchema-instance" xsi:schemaLocation="http://www.topografix.com/GPX/1/1 http://www.topografix.com/GPX/1/1/gpx.xsd" version="1.1" creator="VisuGPX - https://www.visugpx.com">
  <metadata>
    <name>Randonnée équestre autour de Venasque (Vaucluse)</name>
    <desc><![CDATA[Randonnée très technique - Beaucoup de dénivelés. très beaux paysages.]]></desc>
  </metadata>
  <trk>
    <name><![CDATA[rando Venasque]]></name>
    <desc><![CDATA[Rando très technique - beaucoup de roches]]></desc>
    <trkseg>
      <trkpt lat="44.00114" lon="5.1441">
        <ele>174.9</ele>
        <time>2016-03-06T08:31:20Z</time>
      </trkpt>
      <trkpt lat="44.00114" lon="5.1441">
        <ele>174.9</ele>
        <time>2016-03-06T08:31:21Z</time>
      </trkpt>
      <trkpt lat="44.00108" lon="5.14421">
        <ele>175</ele>
        <time>2016-03-06T08:33:11Z</time>
      </trkpt>
      <trkpt lat="44.00107" lon="5.14434">
        <ele>174.9</ele>
        <time>2016-03-06T08:33:20Z</time>
      </trkpt>
      <trkpt lat="44.00101" lon="5.14444">
        <ele>174.6</ele>
        <time>2016-03-06T08:33:34Z</time>
      </trkpt>
      <trkpt lat="44.00091" lon="5.14447">
        <ele>174.6</ele>
        <time>2016-03-06T08:34:10Z</time>
      </trkpt>
      <trkpt lat="44.00082" lon="5.14443">
        <ele>174.6</ele>
        <time>2016-03-06T08:34:20Z</time>
      </trkpt>
      <trkpt lat="44.00072" lon="5.14443">
        <ele>174.6</ele>
        <time>2016-03-06T08:34:29Z</time>
      </trkpt>
      <trkpt lat="44.00062" lon="5.14443">
        <ele>174.8</ele>
        <time>2016-03-06T08:34:36Z</time>
      </trkpt>
      <trkpt lat="44.00052" lon="5.1444">
        <ele>175</ele>
        <time>2016-03-06T08:34:43Z</time>
      </trkpt>
      <trkpt lat="44.00043" lon="5.1444">
        <ele>175.1</ele>
        <time>2016-03-06T08:34:49Z</time>
      </trkpt>
      <trkpt lat="44.00038" lon="5.14454">
        <ele>175.2</ele>
        <time>2016-03-06T08:34:54Z</time>
      </trkpt>
      <trkpt lat="44.00041" lon="5.14466">
        <ele>175.4</ele>
        <time>2016-03-06T08:35:02Z</time>
      </trkpt>
      <trkpt lat="44.00047" lon="5.14476">
        <ele>175.5</ele>
        <time>2016-03-06T08:35:10Z</time>
      </trkpt>
      <trkpt lat="44.00053" lon="5.14487">
        <ele>175.5</ele>
        <time>2016-03-06T08:35:16Z</time>
      </trkpt>
      <trkpt lat="44.00062" lon="5.14493">
        <ele>175.4</ele>
        <time>2016-03-06T08:35:23Z</time>
      </trkpt>
      <trkpt lat="44.00071" lon="5.14495">
        <ele>175.1</ele>
        <time>2016-03-06T08:35:32Z</time>
      </trkpt>
      <trkpt lat="44.00079" lon="5.14504">
        <ele>174.5</ele>
        <time>2016-03-06T08:35:42Z</time>
      </trkpt>
      <trkpt lat="44.00087" lon="5.14512">
        <ele>174</ele>
        <time>2016-03-06T08:35:49Z</time>
      </trkpt>
      <trkpt lat="44.00092" lon="5.14523">
        <ele>173.6</ele>
        <time>2016-03-06T08:35:56Z</time>
      </trkpt>
      <trkpt lat="44.00094" lon="5.14537">
        <ele>173.4</ele>
        <time>2016-03-06T08:36:02Z</time>
      </trkpt>
      <trkpt lat="44.00091" lon="5.14551">
        <ele>173.4</ele>
        <time>2016-03-06T08:36:07Z</time>
      </trkpt>
      <trkpt lat="44.00087" lon="5.14563">
        <ele>173.3</ele>
        <time>2016-03-06T08:36:13Z</time>
      </trkpt>
      <trkpt lat="44.00081" lon="5.14572">
        <ele>173.3</ele>
        <time>2016-03-06T08:36:17Z</time>
      </trkpt>
      <trkpt lat="44.00076" lon="5.14584">
        <ele>173.1</ele>
        <time>2016-03-06T08:36:24Z</time>
      </trkpt>
      <trkpt lat="44.00074" lon="5.14599">
        <ele>172.9</ele>
        <time>2016-03-06T08:36:29Z</time>
      </trkpt>
      <trkpt lat="44.00077" lon="5.14611">
        <ele>172.8</ele>
        <time>2016-03-06T08:36:35Z</time>
      </trkpt>
      <trkpt lat="44.00084" lon="5.14619">
        <ele>172.9</ele>
        <time>2016-03-06T08:36:41Z</time>
      </trkpt>
      <trkpt lat="44.00087" lon="5.14632">
        <ele>173.3</ele>
        <time>2016-03-06T08:36:48Z</time>
      </trkpt>
      <trkpt lat="44.0009" lon="5.14645">
        <ele>173.7</ele>
        <time>2016-03-06T08:36:55Z</time>
      </trkpt>
      <trkpt lat="44.00095" lon="5.14658">
        <ele>174</ele>
        <time>2016-03-06T08:37:01Z</time>
      </trkpt>
      <trkpt lat="44.00095" lon="5.14671">
        <ele>174.3</ele>
        <time>2016-03-06T08:37:06Z</time>
      </trkpt>
      <trkpt lat="44.00094" lon="5.14684">
        <ele>174.6</ele>
        <time>2016-03-06T08:37:11Z</time>
      </trkpt>
      <trkpt lat="44.00093" lon="5.14698">
        <ele>175</ele>
        <time>2016-03-06T08:37:16Z</time>
      </trkpt>
      <trkpt lat="44.00103" lon="5.14702">
        <ele>175.5</ele>
        <time>2016-03-06T08:37:23Z</time>
      </trkpt>
      <trkpt lat="44.00109" lon="5.14715">
        <ele>175.9</ele>
        <time>2016-03-06T08:37:29Z</time>
      </trkpt>
      <trkpt lat="44.00111" lon="5.14728">
        <ele>177.9</ele>
        <time>2016-03-06T08:38:07Z</time>
      </trkpt>
      <trkpt lat="44.0011" lon="5.14714">
        <ele>178.1</ele>
        <time>2016-03-06T08:38:28Z</time>
      </trkpt>
      <trkpt lat="44.00114" lon="5.14702">
        <ele>178.2</ele>
        <time>2016-03-06T08:38:30Z</time>
      </trkpt>
      <trkpt lat="44.00122" lon="5.14695">
        <ele>178.2</ele>
        <time>2016-03-06T08:38:41Z</time>
      </trkpt>
      <trkpt lat="44.0013" lon="5.14684">
        <ele>178</ele>
        <time>2016-03-06T08:39:05Z</time>
      </trkpt>
      <trkpt lat="44.0014" lon="5.14682">
        <ele>178.4</ele>
        <time>2016-03-06T08:39:29Z</time>
      </trkpt>
      <trkpt lat="44.00148" lon="5.1469">
        <ele>178.4</ele>
        <time>2016-03-06T08:39:34Z</time>
      </trkpt>
      <trkpt lat="44.00151" lon="5.14703">
        <ele>178.8</ele>
        <time>2016-03-06T08:39:42Z</time>
      </trkpt>
      <trkpt lat="44.00157" lon="5.14715">
        <ele>180.3</ele>
        <time>2016-03-06T08:40:26Z</time>
      </trkpt>
      <trkpt lat="44.00164" lon="5.14725">
        <ele>181.1</ele>
        <time>2016-03-06T08:40:43Z</time>
      </trkpt>
      <trkpt lat="44.00171" lon="5.14735">
        <ele>183.1</ele>
        <time>2016-03-06T08:40:56Z</time>
      </trkpt>
      <trkpt lat="44.00175" lon="5.14747">
        <ele>184.1</ele>
        <time>2016-03-06T08:41:01Z</time>
      </trkpt>
      <trkpt lat="44.00179" lon="5.14758">
        <ele>185.9</ele>
        <time>2016-03-06T08:41:09Z</time>
      </trkpt>
      <trkpt lat="44.00184" lon="5.14771">
        <ele>187.8</ele>
        <time>2016-03-06T08:41:17Z</time>
      </trkpt>
      <trkpt lat="44.00192" lon="5.14781">
        <ele>189.6</ele>
        <time>2016-03-06T08:41:24Z</time>
      </trkpt>
      <trkpt lat="44.00196" lon="5.14793">
        <ele>191.2</ele>
        <time>2016-03-06T08:41:30Z</time>
      </trkpt>
      <trkpt lat="44.00199" lon="5.14807">
        <ele>193.5</ele>
        <time>2016-03-06T08:41:39Z</time>
      </trkpt>
      <trkpt lat="44.00201" lon="5.1482">
        <ele>194.5</ele>
        <time>2016-03-06T08:41:43Z</time>
      </trkpt>
      <trkpt lat="44.00207" lon="5.14832">
        <ele>195.8</ele>
        <time>2016-03-06T08:41:48Z</time>
      </trkpt>
      <trkpt lat="44.00214" lon="5.14842">
        <ele>198.2</ele>
        <time>2016-03-06T08:41:56Z</time>
      </trkpt>
      <trkpt lat="44.00219" lon="5.14853">
        <ele>200.2</ele>
        <time>2016-03-06T08:42:04Z</time>
      </trkpt>
      <trkpt lat="44.00225" lon="5.14865">
        <ele>201.9</ele>
        <time>2016-03-06T08:42:11Z</time>
      </trkpt>
      <trkpt lat="44.00234" lon="5.14867">
        <ele>203.2</ele>
        <time>2016-03-06T08:42:16Z</time>
      </trkpt>
      <trkpt lat="44.00235" lon="5.14881">
        <ele>206.2</ele>
        <time>2016-03-06T08:42:27Z</time>
      </trkpt>
      <trkpt lat="44.00243" lon="5.14889">
        <ele>208.8</ele>
        <time>2016-03-06T08:42:36Z</time>
      </trkpt>
      <trkpt lat="44.00251" lon="5.14893">
        <ele>211.6</ele>
        <time>2016-03-06T08:42:45Z</time>
      </trkpt>
      <trkpt lat="44.00262" lon="5.14902">
        <ele>212.6</ele>
        <time>2016-03-06T08:42:48Z</time>
      </trkpt>
      <trkpt lat="44.00272" lon="5.14905">
        <ele>222.2</ele>
        <time>2016-03-06T08:43:35Z</time>
      </trkpt>
      <trkpt lat="44.00282" lon="5.14903">
        <ele>222.6</ele>
        <time>2016-03-06T08:43:39Z</time>
      </trkpt>
      <trkpt lat="44.00292" lon="5.149">
        <ele>223.1</ele>
        <time>2016-03-06T08:43:44Z</time>
      </trkpt>
      <trkpt lat="44.00302" lon="5.14898">
        <ele>223.6</ele>
        <time>2016-03-06T08:43:50Z</time>
      </trkpt>
      <trkpt lat="44.00312" lon="5.14895">
        <ele>223.9</ele>
        <time>2016-03-06T08:43:55Z</time>
      </trkpt>
      <trkpt lat="44.00322" lon="5.14896">
        <ele>224.2</ele>
        <time>2016-03-06T08:44:00Z</time>
      </trkpt>
      <trkpt lat="44.00332" lon="5.14896">
        <ele>224.3</ele>
        <time>2016-03-06T08:44:04Z</time>
      </trkpt>
      <trkpt lat="44.00345" lon="5.14896">
        <ele>224.4</ele>
        <time>2016-03-06T08:44:07Z</time>
      </trkpt>
      <trkpt lat="44.00356" lon="5.14894">
        <ele>224.5</ele>
        <time>2016-03-06T08:44:10Z</time>
      </trkpt>
      <trkpt lat="44.0037" lon="5.14894">
        <ele>224.6</ele>
        <time>2016-03-06T08:44:14Z</time>
      </trkpt>
      <trkpt lat="44.00378" lon="5.14889">
        <ele>224.7</ele>
        <time>2016-03-06T08:44:17Z</time>
      </trkpt>
      <trkpt lat="44.00386" lon="5.14883">
        <ele>225.2</ele>
        <time>2016-03-06T08:44:23Z</time>
      </trkpt>
      <trkpt lat="44.00396" lon="5.14881">
        <ele>225.3</ele>
        <time>2016-03-06T08:44:52Z</time>
      </trkpt>
      <trkpt lat="44.00409" lon="5.14876">
        <ele>225.2</ele>
        <time>2016-03-06T08:44:59Z</time>
      </trkpt>
      <trkpt lat="44.00418" lon="5.14881">
        <ele>225.1</ele>
        <time>2016-03-06T08:45:02Z</time>
      </trkpt>
      <trkpt lat="44.00427" lon="5.14879">
        <ele>225.3</ele>
        <time>2016-03-06T08:45:07Z</time>
      </trkpt>
      <trkpt lat="44.00436" lon="5.14878">
        <ele>225.5</ele>
        <time>2016-03-06T08:45:11Z</time>
      </trkpt>
      <trkpt lat="44.00445" lon="5.14877">
        <ele>226.1</ele>
        <time>2016-03-06T08:45:17Z</time>
      </trkpt>
      <trkpt lat="44.00456" lon="5.14876">
        <ele>226.6</ele>
        <time>2016-03-06T08:45:24Z</time>
      </trkpt>
      <trkpt lat="44.00467" lon="5.14873">
        <ele>226.9</ele>
        <time>2016-03-06T08:45:31Z</time>
      </trkpt>
      <trkpt lat="44.00476" lon="5.1487">
        <ele>227.1</ele>
        <time>2016-03-06T08:45:36Z</time>
      </trkpt>
      <trkpt lat="44.00487" lon="5.1487">
        <ele>227.4</ele>
        <time>2016-03-06T08:45:45Z</time>
      </trkpt>
      <trkpt lat="44.00497" lon="5.14867">
        <ele>227.9</ele>
        <time>2016-03-06T08:45:54Z</time>
      </trkpt>
      <trkpt lat="44.00506" lon="5.14868">
        <ele>228.3</ele>
        <time>2016-03-06T08:46:01Z</time>
      </trkpt>
      <trkpt lat="44.00516" lon="5.14868">
        <ele>228.9</ele>
        <time>2016-03-06T08:46:05Z</time>
      </trkpt>
      <trkpt lat="44.00525" lon="5.14871">
        <ele>230.2</ele>
        <time>2016-03-06T08:46:18Z</time>
      </trkpt>
      <trkpt lat="44.00535" lon="5.14867">
        <ele>230.6</ele>
        <time>2016-03-06T08:46:24Z</time>
      </trkpt>
      <trkpt lat="44.00545" lon="5.14863">
        <ele>231.1</ele>
        <time>2016-03-06T08:46:33Z</time>
      </trkpt>
      <trkpt lat="44.00556" lon="5.14862">
        <ele>231.3</ele>
        <time>2016-03-06T08:46:39Z</time>
      </trkpt>
      <trkpt lat="44.00566" lon="5.14871">
        <ele>232.1</ele>
        <time>2016-03-06T08:46:48Z</time>
      </trkpt>
      <trkpt lat="44.00576" lon="5.14881">
        <ele>232.4</ele>
        <time>2016-03-06T08:46:52Z</time>
      </trkpt>
      <trkpt lat="44.00583" lon="5.14892">
        <ele>233.1</ele>
        <time>2016-03-06T08:46:55Z</time>
      </trkpt>
      <trkpt lat="44.0059" lon="5.14904">
        <ele>234.4</ele>
        <time>2016-03-06T08:47:00Z</time>
      </trkpt>
      <trkpt lat="44.00595" lon="5.14915">
        <ele>235.6</ele>
        <time>2016-03-06T08:47:06Z</time>
      </trkpt>
      <trkpt lat="44.00601" lon="5.14925">
        <ele>237.1</ele>
        <time>2016-03-06T08:47:14Z</time>
      </trkpt>
      <trkpt lat="44.00609" lon="5.14932">
        <ele>237.9</ele>
        <time>2016-03-06T08:47:20Z</time>
      </trkpt>
      <trkpt lat="44.00617" lon="5.14938">
        <ele>238.6</ele>
        <time>2016-03-06T08:47:27Z</time>
      </trkpt>
      <trkpt lat="44.00621" lon="5.1495">
        <ele>239</ele>
        <time>2016-03-06T08:47:34Z</time>
      </trkpt>
      <trkpt lat="44.00626" lon="5.14962">
        <ele>239.3</ele>
        <time>2016-03-06T08:47:40Z</time>
      </trkpt>
      <trkpt lat="44.00629" lon="5.14976">
        <ele>239.6</ele>
        <time>2016-03-06T08:47:45Z</time>
      </trkpt>
      <trkpt lat="44.00628" lon="5.1499">
        <ele>240</ele>
        <time>2016-03-06T08:47:52Z</time>
      </trkpt>
      <trkpt lat="44.00625" lon="5.15003">
        <ele>240.6</ele>
        <time>2016-03-06T08:47:59Z</time>
      </trkpt>
      <trkpt lat="44.00623" lon="5.15016">
        <ele>241</ele>
        <time>2016-03-06T08:48:06Z</time>
      </trkpt>
      <trkpt lat="44.00621" lon="5.1503">
        <ele>241.5</ele>
        <time>2016-03-06T08:48:14Z</time>
      </trkpt>
      <trkpt lat="44.0062" lon="5.15044">
        <ele>242.1</ele>
        <time>2016-03-06T08:48:20Z</time>
      </trkpt>
      <trkpt lat="44.00621" lon="5.15058">
        <ele>242.9</ele>
        <time>2016-03-06T08:48:28Z</time>
      </trkpt>
      <trkpt lat="44.00621" lon="5.1507">
        <ele>243.5</ele>
        <time>2016-03-06T08:48:35Z</time>
      </trkpt>
      <trkpt lat="44.00625" lon="5.15083">
        <ele>244.2</ele>
        <time>2016-03-06T08:48:44Z</time>
      </trkpt>
      <trkpt lat="44.00631" lon="5.15092">
        <ele>244.7</ele>
        <time>2016-03-06T08:48:49Z</time>
      </trkpt>
      <trkpt lat="44.00638" lon="5.15102">
        <ele>246.6</ele>
        <time>2016-03-06T08:49:03Z</time>
      </trkpt>
      <trkpt lat="44.00645" lon="5.15112">
        <ele>248.2</ele>
        <time>2016-03-06T08:49:13Z</time>
      </trkpt>
      <trkpt lat="44.0065" lon="5.15123">
        <ele>248.8</ele>
        <time>2016-03-06T08:49:17Z</time>
      </trkpt>
      <trkpt lat="44.00652" lon="5.15135">
        <ele>249.6</ele>
        <time>2016-03-06T08:49:22Z</time>
      </trkpt>
      <trkpt lat="44.00653" lon="5.15149">
        <ele>250.7</ele>
        <time>2016-03-06T08:49:29Z</time>
      </trkpt>
      <trkpt lat="44.00653" lon="5.15162">
        <ele>252</ele>
        <time>2016-03-06T08:49:37Z</time>
      </trkpt>
      <trkpt lat="44.00654" lon="5.15176">
        <ele>253.4</ele>
        <time>2016-03-06T08:49:45Z</time>
      </trkpt>
      <trkpt lat="44.00659" lon="5.15188">
        <ele>254.9</ele>
        <time>2016-03-06T08:49:54Z</time>
      </trkpt>
      <trkpt lat="44.00662" lon="5.15203">
        <ele>256</ele>
        <time>2016-03-06T08:49:59Z</time>
      </trkpt>
      <trkpt lat="44.00666" lon="5.15215">
        <ele>257</ele>
        <time>2016-03-06T08:50:03Z</time>
      </trkpt>
      <trkpt lat="44.00668" lon="5.15228">
        <ele>258.2</ele>
        <time>2016-03-06T08:50:07Z</time>
      </trkpt>
      <trkpt lat="44.00669" lon="5.15241">
        <ele>259.7</ele>
        <time>2016-03-06T08:50:12Z</time>
      </trkpt>
      <trkpt lat="44.00669" lon="5.15254">
        <ele>261.5</ele>
        <time>2016-03-06T08:50:19Z</time>
      </trkpt>
      <trkpt lat="44.00673" lon="5.15266">
        <ele>262.5</ele>
        <time>2016-03-06T08:50:24Z</time>
      </trkpt>
      <trkpt lat="44.00678" lon="5.15277">
        <ele>263.7</ele>
        <time>2016-03-06T08:50:30Z</time>
      </trkpt>
      <trkpt lat="44.00682" lon="5.15291">
        <ele>265.3</ele>
        <time>2016-03-06T08:50:38Z</time>
      </trkpt>
      <trkpt lat="44.00687" lon="5.15302">
        <ele>266.3</ele>
        <time>2016-03-06T08:50:44Z</time>
      </trkpt>
      <trkpt lat="44.00689" lon="5.15315">
        <ele>267.5</ele>
        <time>2016-03-06T08:50:52Z</time>
      </trkpt>
      <trkpt lat="44.00694" lon="5.15326">
        <ele>268.6</ele>
        <time>2016-03-06T08:50:59Z</time>
      </trkpt>
      <trkpt lat="44.00699" lon="5.15338">
        <ele>269.6</ele>
        <time>2016-03-06T08:51:06Z</time>
      </trkpt>
      <trkpt lat="44.00704" lon="5.15351">
        <ele>270.5</ele>
        <time>2016-03-06T08:51:13Z</time>
      </trkpt>
      <trkpt lat="44.00708" lon="5.15363">
        <ele>271.1</ele>
        <time>2016-03-06T08:51:19Z</time>
      </trkpt>
      <trkpt lat="44.00716" lon="5.15374">
        <ele>271.5</ele>
        <time>2016-03-06T08:51:24Z</time>
      </trkpt>
      <trkpt lat="44.00721" lon="5.15385">
        <ele>271.7</ele>
        <time>2016-03-06T08:51:30Z</time>
      </trkpt>
      <trkpt lat="44.00728" lon="5.15396">
        <ele>271.5</ele>
        <time>2016-03-06T08:51:37Z</time>
      </trkpt>
      <trkpt lat="44.00737" lon="5.15401">
        <ele>271.4</ele>
        <time>2016-03-06T08:51:42Z</time>
      </trkpt>
      <trkpt lat="44.00746" lon="5.15405">
        <ele>271</ele>
        <time>2016-03-06T08:51:48Z</time>
      </trkpt>
      <trkpt lat="44.00755" lon="5.15412">
        <ele>270.6</ele>
        <time>2016-03-06T08:51:53Z</time>
      </trkpt>
      <trkpt lat="44.00764" lon="5.15417">
        <ele>270.2</ele>
        <time>2016-03-06T08:52:00Z</time>
      </trkpt>
      <trkpt lat="44.00773" lon="5.15422">
        <ele>269.5</ele>
        <time>2016-03-06T08:52:08Z</time>
      </trkpt>
      <trkpt lat="44.00782" lon="5.15427">
        <ele>268.9</ele>
        <time>2016-03-06T08:52:16Z</time>
      </trkpt>
      <trkpt lat="44.00791" lon="5.15437">
        <ele>268.4</ele>
        <time>2016-03-06T08:52:25Z</time>
      </trkpt>
      <trkpt lat="44.008" lon="5.15442">
        <ele>268.1</ele>
        <time>2016-03-06T08:52:29Z</time>
      </trkpt>
      <trkpt lat="44.00808" lon="5.15449">
        <ele>267.4</ele>
        <time>2016-03-06T08:52:39Z</time>
      </trkpt>
      <trkpt lat="44.00809" lon="5.15463">
        <ele>267</ele>
        <time>2016-03-06T08:52:46Z</time>
      </trkpt>
      <trkpt lat="44.00807" lon="5.15476">
        <ele>266.6</ele>
        <time>2016-03-06T08:52:53Z</time>
      </trkpt>
      <trkpt lat="44.00802" lon="5.15488">
        <ele>265.9</ele>
        <time>2016-03-06T08:53:00Z</time>
      </trkpt>
      <trkpt lat="44.00796" lon="5.155">
        <ele>265.2</ele>
        <time>2016-03-06T08:53:07Z</time>
      </trkpt>
      <trkpt lat="44.00794" lon="5.15513">
        <ele>264.5</ele>
        <time>2016-03-06T08:53:13Z</time>
      </trkpt>
      <trkpt lat="44.00793" lon="5.15525">
        <ele>263.6</ele>
        <time>2016-03-06T08:53:20Z</time>
      </trkpt>
      <trkpt lat="44.00795" lon="5.15539">
        <ele>262.7</ele>
        <time>2016-03-06T08:53:27Z</time>
      </trkpt>
      <trkpt lat="44.00798" lon="5.15551">
        <ele>261.2</ele>
        <time>2016-03-06T08:53:36Z</time>
      </trkpt>
      <trkpt lat="44.00806" lon="5.15558">
        <ele>260.4</ele>
        <time>2016-03-06T08:53:45Z</time>
      </trkpt>
      <trkpt lat="44.00815" lon="5.15566">
        <ele>259.5</ele>
        <time>2016-03-06T08:53:55Z</time>
      </trkpt>
      <trkpt lat="44.00822" lon="5.15574">
        <ele>259</ele>
        <time>2016-03-06T08:54:01Z</time>
      </trkpt>
      <trkpt lat="44.00829" lon="5.15582">
        <ele>257.9</ele>
        <time>2016-03-06T08:54:10Z</time>
      </trkpt>
      <trkpt lat="44.00835" lon="5.15592">
        <ele>257.1</ele>
        <time>2016-03-06T08:54:16Z</time>
      </trkpt>
      <trkpt lat="44.00843" lon="5.15601">
        <ele>256.4</ele>
        <time>2016-03-06T08:54:23Z</time>
      </trkpt>
      <trkpt lat="44.00851" lon="5.15609">
        <ele>255.7</ele>
        <time>2016-03-06T08:54:29Z</time>
      </trkpt>
      <trkpt lat="44.00858" lon="5.15617">
        <ele>255.4</ele>
        <time>2016-03-06T08:54:33Z</time>
      </trkpt>
      <trkpt lat="44.00863" lon="5.15629">
        <ele>255</ele>
        <time>2016-03-06T08:54:39Z</time>
      </trkpt>
      <trkpt lat="44.00868" lon="5.15641">
        <ele>254.8</ele>
        <time>2016-03-06T08:54:45Z</time>
      </trkpt>
      <trkpt lat="44.00872" lon="5.15653">
        <ele>254.6</ele>
        <time>2016-03-06T08:54:51Z</time>
      </trkpt>
      <trkpt lat="44.00876" lon="5.15667">
        <ele>254.4</ele>
        <time>2016-03-06T08:54:58Z</time>
      </trkpt>
      <trkpt lat="44.0088" lon="5.15678">
        <ele>254.3</ele>
        <time>2016-03-06T08:55:04Z</time>
      </trkpt>
      <trkpt lat="44.00885" lon="5.15691">
        <ele>254.2</ele>
        <time>2016-03-06T08:55:11Z</time>
      </trkpt>
      <trkpt lat="44.00891" lon="5.15703">
        <ele>254.1</ele>
        <time>2016-03-06T08:55:17Z</time>
      </trkpt>
      <trkpt lat="44.00897" lon="5.15713">
        <ele>254</ele>
        <time>2016-03-06T08:55:25Z</time>
      </trkpt>
      <trkpt lat="44.009" lon="5.15726">
        <ele>253.4</ele>
        <time>2016-03-06T08:55:35Z</time>
      </trkpt>
      <trkpt lat="44.00905" lon="5.15737">
        <ele>253.1</ele>
        <time>2016-03-06T08:55:41Z</time>
      </trkpt>
      <trkpt lat="44.0091" lon="5.15748">
        <ele>252.6</ele>
        <time>2016-03-06T08:55:51Z</time>
      </trkpt>
      <trkpt lat="44.00916" lon="5.15759">
        <ele>252.3</ele>
        <time>2016-03-06T08:55:59Z</time>
      </trkpt>
      <trkpt lat="44.00921" lon="5.15771">
        <ele>251.8</ele>
        <time>2016-03-06T08:56:07Z</time>
      </trkpt>
      <trkpt lat="44.00926" lon="5.15782">
        <ele>251.4</ele>
        <time>2016-03-06T08:56:13Z</time>
      </trkpt>
      <trkpt lat="44.00932" lon="5.15793">
        <ele>250.7</ele>
        <time>2016-03-06T08:56:19Z</time>
      </trkpt>
      <trkpt lat="44.00935" lon="5.15807">
        <ele>249.9</ele>
        <time>2016-03-06T08:56:28Z</time>
      </trkpt>
      <trkpt lat="44.0094" lon="5.1582">
        <ele>249.2</ele>
        <time>2016-03-06T08:56:35Z</time>
      </trkpt>
      <trkpt lat="44.00944" lon="5.15833">
        <ele>248.6</ele>
        <time>2016-03-06T08:56:42Z</time>
      </trkpt>
      <trkpt lat="44.00949" lon="5.15846">
        <ele>248.2</ele>
        <time>2016-03-06T08:56:49Z</time>
      </trkpt>
      <trkpt lat="44.00954" lon="5.15858">
        <ele>247.8</ele>
        <time>2016-03-06T08:56:56Z</time>
      </trkpt>
      <trkpt lat="44.0096" lon="5.15869">
        <ele>247.3</ele>
        <time>2016-03-06T08:57:03Z</time>
      </trkpt>
      <trkpt lat="44.00963" lon="5.15881">
        <ele>246.6</ele>
        <time>2016-03-06T08:57:11Z</time>
      </trkpt>
      <trkpt lat="44.00969" lon="5.15891">
        <ele>246.1</ele>
        <time>2016-03-06T08:57:19Z</time>
      </trkpt>
      <trkpt lat="44.00978" lon="5.15897">
        <ele>245.9</ele>
        <time>2016-03-06T08:57:24Z</time>
      </trkpt>
      <trkpt lat="44.00985" lon="5.15907">
        <ele>245.8</ele>
        <time>2016-03-06T08:57:31Z</time>
      </trkpt>
      <trkpt lat="44.00989" lon="5.15919">
        <ele>245.7</ele>
        <time>2016-03-06T08:57:37Z</time>
      </trkpt>
      <trkpt lat="44.00994" lon="5.15931">
        <ele>245.6</ele>
        <time>2016-03-06T08:57:44Z</time>
      </trkpt>
      <trkpt lat="44.01001" lon="5.15942">
        <ele>245.5</ele>
        <time>2016-03-06T08:57:51Z</time>
      </trkpt>
      <trkpt lat="44.01005" lon="5.15956">
        <ele>245.2</ele>
        <time>2016-03-06T08:57:57Z</time>
      </trkpt>
      <trkpt lat="44.01011" lon="5.15968">
        <ele>245</ele>
        <time>2016-03-06T08:58:04Z</time>
      </trkpt>
      <trkpt lat="44.01016" lon="5.1598">
        <ele>244.9</ele>
        <time>2016-03-06T08:58:10Z</time>
      </trkpt>
      <trkpt lat="44.01023" lon="5.15991">
        <ele>244.8</ele>
        <time>2016-03-06T08:58:16Z</time>
      </trkpt>
      <trkpt lat="44.01029" lon="5.16001">
        <ele>244.8</ele>
        <time>2016-03-06T08:58:22Z</time>
      </trkpt>
      <trkpt lat="44.01034" lon="5.16012">
        <ele>244.7</ele>
        <time>2016-03-06T08:58:27Z</time>
      </trkpt>
      <trkpt lat="44.0104" lon="5.16024">
        <ele>244.5</ele>
        <time>2016-03-06T08:58:32Z</time>
      </trkpt>
      <trkpt lat="44.01044" lon="5.16036">
        <ele>244.7</ele>
        <time>2016-03-06T08:58:37Z</time>
      </trkpt>
      <trkpt lat="44.01048" lon="5.1605">
        <ele>244.4</ele>
        <time>2016-03-06T08:58:41Z</time>
      </trkpt>
      <trkpt lat="44.01051" lon="5.16065">
        <ele>244.4</ele>
        <time>2016-03-06T08:58:44Z</time>
      </trkpt>
      <trkpt lat="44.01054" lon="5.16077">
        <ele>244.4</ele>
        <time>2016-03-06T08:58:47Z</time>
      </trkpt>
      <trkpt lat="44.01059" lon="5.16089">
        <ele>244.4</ele>
        <time>2016-03-06T08:58:52Z</time>
      </trkpt>
      <trkpt lat="44.01066" lon="5.16097">
        <ele>244.4</ele>
        <time>2016-03-06T08:58:59Z</time>
      </trkpt>
      <trkpt lat="44.01074" lon="5.16106">
        <ele>244.2</ele>
        <time>2016-03-06T08:59:07Z</time>
      </trkpt>
      <trkpt lat="44.01082" lon="5.16114">
        <ele>243.7</ele>
        <time>2016-03-06T08:59:14Z</time>
      </trkpt>
      <trkpt lat="44.01089" lon="5.16124">
        <ele>243.6</ele>
        <time>2016-03-06T08:59:21Z</time>
      </trkpt>
      <trkpt lat="44.01095" lon="5.16136">
        <ele>243.6</ele>
        <time>2016-03-06T08:59:27Z</time>
      </trkpt>
      <trkpt lat="44.01101" lon="5.16147">
        <ele>243.6</ele>
        <time>2016-03-06T08:59:33Z</time>
      </trkpt>
      <trkpt lat="44.01108" lon="5.16156">
        <ele>243.6</ele>
        <time>2016-03-06T08:59:39Z</time>
      </trkpt>
      <trkpt lat="44.01114" lon="5.16169">
        <ele>243.6</ele>
        <time>2016-03-06T08:59:44Z</time>
      </trkpt>
      <trkpt lat="44.01119" lon="5.16179">
        <ele>243.6</ele>
        <time>2016-03-06T08:59:50Z</time>
      </trkpt>
      <trkpt lat="44.01124" lon="5.1619">
        <ele>243.6</ele>
        <time>2016-03-06T08:59:55Z</time>
      </trkpt>
      <trkpt lat="44.01133" lon="5.16195">
        <ele>243.6</ele>
        <time>2016-03-06T09:00:01Z</time>
      </trkpt>
      <trkpt lat="44.01142" lon="5.16186">
        <ele>243.5</ele>
        <time>2016-03-06T09:00:08Z</time>
      </trkpt>
      <trkpt lat="44.01151" lon="5.16183">
        <ele>243</ele>
        <time>2016-03-06T09:00:12Z</time>
      </trkpt>
      <trkpt lat="44.0116" lon="5.16179">
        <ele>242.5</ele>
        <time>2016-03-06T09:00:16Z</time>
      </trkpt>
      <trkpt lat="44.01169" lon="5.16174">
        <ele>242.1</ele>
        <time>2016-03-06T09:00:21Z</time>
      </trkpt>
      <trkpt lat="44.01173" lon="5.16185">
        <ele>241.7</ele>
        <time>2016-03-06T09:00:26Z</time>
      </trkpt>
      <trkpt lat="44.01175" lon="5.16198">
        <ele>241.3</ele>
        <time>2016-03-06T09:00:31Z</time>
      </trkpt>
      <trkpt lat="44.01179" lon="5.16212">
        <ele>241</ele>
        <time>2016-03-06T09:00:37Z</time>
      </trkpt>
      <trkpt lat="44.01183" lon="5.16224">
        <ele>240.6</ele>
        <time>2016-03-06T09:00:43Z</time>
      </trkpt>
      <trkpt lat="44.01185" lon="5.16238">
        <ele>240.2</ele>
        <time>2016-03-06T09:00:48Z</time>
      </trkpt>
      <trkpt lat="44.01184" lon="5.16251">
        <ele>239.9</ele>
        <time>2016-03-06T09:00:55Z</time>
      </trkpt>
      <trkpt lat="44.01184" lon="5.16263">
        <ele>239.7</ele>
        <time>2016-03-06T09:01:01Z</time>
      </trkpt>
      <trkpt lat="44.01178" lon="5.16276">
        <ele>239.6</ele>
        <time>2016-03-06T09:01:06Z</time>
      </trkpt>
      <trkpt lat="44.01175" lon="5.16289">
        <ele>239.5</ele>
        <time>2016-03-06T09:01:11Z</time>
      </trkpt>
      <trkpt lat="44.01174" lon="5.16306">
        <ele>239.4</ele>
        <time>2016-03-06T09:01:16Z</time>
      </trkpt>
      <trkpt lat="44.01172" lon="5.16319">
        <ele>239.4</ele>
        <time>2016-03-06T09:01:21Z</time>
      </trkpt>
      <trkpt lat="44.01172" lon="5.16334">
        <ele>239.2</ele>
        <time>2016-03-06T09:01:28Z</time>
      </trkpt>
      <trkpt lat="44.0117" lon="5.16347">
        <ele>239.1</ele>
        <time>2016-03-06T09:01:34Z</time>
      </trkpt>
      <trkpt lat="44.01166" lon="5.1636">
        <ele>238.6</ele>
        <time>2016-03-06T09:01:40Z</time>
      </trkpt>
      <trkpt lat="44.01164" lon="5.16372">
        <ele>238.3</ele>
        <time>2016-03-06T09:01:45Z</time>
      </trkpt>
      <trkpt lat="44.0116" lon="5.16384">
        <ele>238.1</ele>
        <time>2016-03-06T09:01:49Z</time>
      </trkpt>
      <trkpt lat="44.01156" lon="5.16396">
        <ele>237.9</ele>
        <time>2016-03-06T09:01:54Z</time>
      </trkpt>
      <trkpt lat="44.01151" lon="5.16409">
        <ele>237.8</ele>
        <time>2016-03-06T09:02:00Z</time>
      </trkpt>
      <trkpt lat="44.01148" lon="5.16422">
        <ele>237.8</ele>
        <time>2016-03-06T09:02:06Z</time>
      </trkpt>
      <trkpt lat="44.01147" lon="5.16436">
        <ele>238.2</ele>
        <time>2016-03-06T09:02:14Z</time>
      </trkpt>
      <trkpt lat="44.01144" lon="5.16448">
        <ele>238.7</ele>
        <time>2016-03-06T09:02:22Z</time>
      </trkpt>
      <trkpt lat="44.01143" lon="5.16461">
        <ele>239.2</ele>
        <time>2016-03-06T09:02:30Z</time>
      </trkpt>
      <trkpt lat="44.01143" lon="5.16474">
        <ele>239.6</ele>
        <time>2016-03-06T09:02:37Z</time>
      </trkpt>
      <trkpt lat="44.01144" lon="5.16488">
        <ele>239.9</ele>
        <time>2016-03-06T09:02:46Z</time>
      </trkpt>
      <trkpt lat="44.01146" lon="5.16503">
        <ele>239.6</ele>
        <time>2016-03-06T09:02:53Z</time>
      </trkpt>
      <trkpt lat="44.01148" lon="5.16515">
        <ele>239.5</ele>
        <time>2016-03-06T09:03:00Z</time>
      </trkpt>
      <trkpt lat="44.0115" lon="5.16528">
        <ele>239.6</ele>
        <time>2016-03-06T09:03:06Z</time>
      </trkpt>
      <trkpt lat="44.01149" lon="5.1654">
        <ele>239.6</ele>
        <time>2016-03-06T09:03:11Z</time>
      </trkpt>
      <trkpt lat="44.01148" lon="5.16555">
        <ele>239.7</ele>
        <time>2016-03-06T09:03:17Z</time>
      </trkpt>
      <trkpt lat="44.01144" lon="5.16569">
        <ele>239.8</ele>
        <time>2016-03-06T09:03:22Z</time>
      </trkpt>
      <trkpt lat="44.01143" lon="5.16582">
        <ele>239.9</ele>
        <time>2016-03-06T09:03:27Z</time>
      </trkpt>
      <trkpt lat="44.01145" lon="5.16597">
        <ele>240.1</ele>
        <time>2016-03-06T09:03:33Z</time>
      </trkpt>
      <trkpt lat="44.01148" lon="5.16608">
        <ele>240.4</ele>
        <time>2016-03-06T09:03:39Z</time>
      </trkpt>
      <trkpt lat="44.01153" lon="5.16619">
        <ele>240.7</ele>
        <time>2016-03-06T09:03:45Z</time>
      </trkpt>
      <trkpt lat="44.01162" lon="5.16627">
        <ele>241</ele>
        <time>2016-03-06T09:03:52Z</time>
      </trkpt>
      <trkpt lat="44.0117" lon="5.16633">
        <ele>241.4</ele>
        <time>2016-03-06T09:03:57Z</time>
      </trkpt>
      <trkpt lat="44.01178" lon="5.1664">
        <ele>241.7</ele>
        <time>2016-03-06T09:04:03Z</time>
      </trkpt>
      <trkpt lat="44.01185" lon="5.16648">
        <ele>241.9</ele>
        <time>2016-03-06T09:04:08Z</time>
      </trkpt>
      <trkpt lat="44.01194" lon="5.16654">
        <ele>242.1</ele>
        <time>2016-03-06T09:04:13Z</time>
      </trkpt>
      <trkpt lat="44.01203" lon="5.16661">
        <ele>242.3</ele>
        <time>2016-03-06T09:04:19Z</time>
      </trkpt>
      <trkpt lat="44.0121" lon="5.16672">
        <ele>242.8</ele>
        <time>2016-03-06T09:04:27Z</time>
      </trkpt>
      <trkpt lat="44.01218" lon="5.16681">
        <ele>243.1</ele>
        <time>2016-03-06T09:04:32Z</time>
      </trkpt>
      <trkpt lat="44.01222" lon="5.16692">
        <ele>243.4</ele>
        <time>2016-03-06T09:04:39Z</time>
      </trkpt>
      <trkpt lat="44.01229" lon="5.16702">
        <ele>243.6</ele>
        <time>2016-03-06T09:04:45Z</time>
      </trkpt>
      <trkpt lat="44.01234" lon="5.16714">
        <ele>243.7</ele>
        <time>2016-03-06T09:04:51Z</time>
      </trkpt>
      <trkpt lat="44.01242" lon="5.16725">
        <ele>243.8</ele>
        <time>2016-03-06T09:04:56Z</time>
      </trkpt>
      <trkpt lat="44.01248" lon="5.16737">
        <ele>244</ele>
        <time>2016-03-06T09:05:02Z</time>
      </trkpt>
      <trkpt lat="44.01256" lon="5.16744">
        <ele>244.3</ele>
        <time>2016-03-06T09:05:08Z</time>
      </trkpt>
      <trkpt lat="44.01262" lon="5.16754">
        <ele>244.5</ele>
        <time>2016-03-06T09:05:13Z</time>
      </trkpt>
      <trkpt lat="44.01269" lon="5.16764">
        <ele>244.6</ele>
        <time>2016-03-06T09:05:18Z</time>
      </trkpt>
      <trkpt lat="44.01265" lon="5.16779">
        <ele>244.8</ele>
        <time>2016-03-06T09:05:24Z</time>
      </trkpt>
      <trkpt lat="44.01262" lon="5.16792">
        <ele>244.8</ele>
        <time>2016-03-06T09:05:28Z</time>
      </trkpt>
      <trkpt lat="44.01258" lon="5.16807">
        <ele>244.8</ele>
        <time>2016-03-06T09:05:33Z</time>
      </trkpt>
      <trkpt lat="44.01254" lon="5.16821">
        <ele>244.4</ele>
        <time>2016-03-06T09:05:39Z</time>
      </trkpt>
      <trkpt lat="44.01253" lon="5.16835">
        <ele>243.4</ele>
        <time>2016-03-06T09:05:46Z</time>
      </trkpt>
      <trkpt lat="44.01251" lon="5.16849">
        <ele>242.8</ele>
        <time>2016-03-06T09:05:50Z</time>
      </trkpt>
      <trkpt lat="44.0125" lon="5.16862">
        <ele>242.2</ele>
        <time>2016-03-06T09:05:55Z</time>
      </trkpt>
      <trkpt lat="44.01248" lon="5.16875">
        <ele>241.8</ele>
        <time>2016-03-06T09:05:59Z</time>
      </trkpt>
      <trkpt lat="44.01249" lon="5.16887">
        <ele>241.2</ele>
        <time>2016-03-06T09:06:06Z</time>
      </trkpt>
      <trkpt lat="44.01249" lon="5.16901">
        <ele>240.7</ele>
        <time>2016-03-06T09:06:13Z</time>
      </trkpt>
      <trkpt lat="44.01254" lon="5.16914">
        <ele>240.4</ele>
        <time>2016-03-06T09:06:20Z</time>
      </trkpt>
      <trkpt lat="44.0126" lon="5.16924">
        <ele>240</ele>
        <time>2016-03-06T09:06:26Z</time>
      </trkpt>
      <trkpt lat="44.01262" lon="5.16938">
        <ele>239.7</ele>
        <time>2016-03-06T09:06:53Z</time>
      </trkpt>
      <trkpt lat="44.0127" lon="5.16943">
        <ele>240.5</ele>
        <time>2016-03-06T09:07:03Z</time>
      </trkpt>
      <trkpt lat="44.01267" lon="5.16956">
        <ele>241.5</ele>
        <time>2016-03-06T09:07:14Z</time>
      </trkpt>
      <trkpt lat="44.01258" lon="5.16961">
        <ele>242.1</ele>
        <time>2016-03-06T09:07:22Z</time>
      </trkpt>
      <trkpt lat="44.01248" lon="5.16965">
        <ele>242.9</ele>
        <time>2016-03-06T09:07:31Z</time>
      </trkpt>
      <trkpt lat="44.01239" lon="5.16968">
        <ele>243.6</ele>
        <time>2016-03-06T09:07:41Z</time>
      </trkpt>
      <trkpt lat="44.0123" lon="5.16972">
        <ele>244.1</ele>
        <time>2016-03-06T09:07:49Z</time>
      </trkpt>
      <trkpt lat="44.01224" lon="5.16984">
        <ele>244.7</ele>
        <time>2016-03-06T09:07:56Z</time>
      </trkpt>
      <trkpt lat="44.01221" lon="5.16997">
        <ele>245.1</ele>
        <time>2016-03-06T09:08:01Z</time>
      </trkpt>
      <trkpt lat="44.01214" lon="5.17006">
        <ele>246.2</ele>
        <time>2016-03-06T09:08:08Z</time>
      </trkpt>
      <trkpt lat="44.01206" lon="5.17012">
        <ele>247.5</ele>
        <time>2016-03-06T09:08:15Z</time>
      </trkpt>
      <trkpt lat="44.01196" lon="5.17014">
        <ele>248.8</ele>
        <time>2016-03-06T09:08:22Z</time>
      </trkpt>
      <trkpt lat="44.01188" lon="5.17021">
        <ele>250</ele>
        <time>2016-03-06T09:08:28Z</time>
      </trkpt>
      <trkpt lat="44.01183" lon="5.17031">
        <ele>251.1</ele>
        <time>2016-03-06T09:08:34Z</time>
      </trkpt>
      <trkpt lat="44.01175" lon="5.17041">
        <ele>252.2</ele>
        <time>2016-03-06T09:08:41Z</time>
      </trkpt>
      <trkpt lat="44.01168" lon="5.17051">
        <ele>253.7</ele>
        <time>2016-03-06T09:08:50Z</time>
      </trkpt>
      <trkpt lat="44.01161" lon="5.17061">
        <ele>255.9</ele>
        <time>2016-03-06T09:09:00Z</time>
      </trkpt>
      <trkpt lat="44.01154" lon="5.17071">
        <ele>257.5</ele>
        <time>2016-03-06T09:09:07Z</time>
      </trkpt>
      <trkpt lat="44.01151" lon="5.17083">
        <ele>258.4</ele>
        <time>2016-03-06T09:09:11Z</time>
      </trkpt>
      <trkpt lat="44.01148" lon="5.17095">
        <ele>260</ele>
        <time>2016-03-06T09:09:19Z</time>
      </trkpt>
      <trkpt lat="44.01144" lon="5.17109">
        <ele>261</ele>
        <time>2016-03-06T09:09:24Z</time>
      </trkpt>
      <trkpt lat="44.0114" lon="5.17121">
        <ele>262.2</ele>
        <time>2016-03-06T09:09:31Z</time>
      </trkpt>
      <trkpt lat="44.01134" lon="5.17134">
        <ele>263.2</ele>
        <time>2016-03-06T09:09:37Z</time>
      </trkpt>
      <trkpt lat="44.01126" lon="5.17147">
        <ele>264.1</ele>
        <time>2016-03-06T09:09:45Z</time>
      </trkpt>
      <trkpt lat="44.0112" lon="5.17156">
        <ele>264.6</ele>
        <time>2016-03-06T09:09:51Z</time>
      </trkpt>
      <trkpt lat="44.01112" lon="5.1717">
        <ele>265</ele>
        <time>2016-03-06T09:10:02Z</time>
      </trkpt>
      <trkpt lat="44.01106" lon="5.17181">
        <ele>265.2</ele>
        <time>2016-03-06T09:10:07Z</time>
      </trkpt>
      <trkpt lat="44.01102" lon="5.17193">
        <ele>265.1</ele>
        <time>2016-03-06T09:10:14Z</time>
      </trkpt>
      <trkpt lat="44.01095" lon="5.17204">
        <ele>265</ele>
        <time>2016-03-06T09:10:23Z</time>
      </trkpt>
      <trkpt lat="44.01087" lon="5.17212">
        <ele>264.5</ele>
        <time>2016-03-06T09:10:31Z</time>
      </trkpt>
      <trkpt lat="44.01079" lon="5.17222">
        <ele>263.7</ele>
        <time>2016-03-06T09:10:39Z</time>
      </trkpt>
      <trkpt lat="44.01072" lon="5.17233">
        <ele>263.3</ele>
        <time>2016-03-06T09:10:45Z</time>
      </trkpt>
      <trkpt lat="44.01064" lon="5.17242">
        <ele>262.9</ele>
        <time>2016-03-06T09:10:52Z</time>
      </trkpt>
      <trkpt lat="44.01056" lon="5.17249">
        <ele>262.6</ele>
        <time>2016-03-06T09:10:58Z</time>
      </trkpt>
      <trkpt lat="44.01049" lon="5.17259">
        <ele>262.4</ele>
        <time>2016-03-06T09:11:04Z</time>
      </trkpt>
      <trkpt lat="44.01041" lon="5.17268">
        <ele>262.3</ele>
        <time>2016-03-06T09:11:10Z</time>
      </trkpt>
      <trkpt lat="44.01034" lon="5.17279">
        <ele>262.1</ele>
        <time>2016-03-06T09:11:16Z</time>
      </trkpt>
      <trkpt lat="44.01028" lon="5.17292">
        <ele>261.8</ele>
        <time>2016-03-06T09:11:22Z</time>
      </trkpt>
      <trkpt lat="44.01024" lon="5.17305">
        <ele>261.1</ele>
        <time>2016-03-06T09:11:30Z</time>
      </trkpt>
      <trkpt lat="44.0102" lon="5.17316">
        <ele>260</ele>
        <time>2016-03-06T09:11:40Z</time>
      </trkpt>
      <trkpt lat="44.01014" lon="5.17328">
        <ele>259.5</ele>
        <time>2016-03-06T09:11:46Z</time>
      </trkpt>
      <trkpt lat="44.01008" lon="5.17341">
        <ele>259</ele>
        <time>2016-03-06T09:11:53Z</time>
      </trkpt>
      <trkpt lat="44.01001" lon="5.17352">
        <ele>257.8</ele>
        <time>2016-03-06T09:12:06Z</time>
      </trkpt>
      <trkpt lat="44.00995" lon="5.17366">
        <ele>257.2</ele>
        <time>2016-03-06T09:12:15Z</time>
      </trkpt>
      <trkpt lat="44.0099" lon="5.17378">
        <ele>257</ele>
        <time>2016-03-06T09:12:19Z</time>
      </trkpt>
      <trkpt lat="44.00984" lon="5.17388">
        <ele>256.6</ele>
        <time>2016-03-06T09:12:23Z</time>
      </trkpt>
      <trkpt lat="44.00978" lon="5.17398">
        <ele>255.9</ele>
        <time>2016-03-06T09:12:31Z</time>
      </trkpt>
      <trkpt lat="44.00974" lon="5.17411">
        <ele>255.3</ele>
        <time>2016-03-06T09:12:36Z</time>
      </trkpt>
      <trkpt lat="44.00972" lon="5.17424">
        <ele>254.2</ele>
        <time>2016-03-06T09:12:42Z</time>
      </trkpt>
      <trkpt lat="44.00965" lon="5.17432">
        <ele>253.6</ele>
        <time>2016-03-06T09:12:46Z</time>
      </trkpt>
      <trkpt lat="44.0096" lon="5.17444">
        <ele>252.6</ele>
        <time>2016-03-06T09:12:52Z</time>
      </trkpt>
      <trkpt lat="44.00952" lon="5.17453">
        <ele>251.6</ele>
        <time>2016-03-06T09:12:59Z</time>
      </trkpt>
      <trkpt lat="44.00944" lon="5.1746">
        <ele>251.1</ele>
        <time>2016-03-06T09:13:04Z</time>
      </trkpt>
      <trkpt lat="44.00939" lon="5.17472">
        <ele>250.8</ele>
        <time>2016-03-06T09:13:09Z</time>
      </trkpt>
      <trkpt lat="44.00936" lon="5.17485">
        <ele>250.4</ele>
        <time>2016-03-06T09:13:14Z</time>
      </trkpt>
      <trkpt lat="44.00932" lon="5.17498">
        <ele>249.5</ele>
        <time>2016-03-06T09:13:21Z</time>
      </trkpt>
      <trkpt lat="44.0093" lon="5.17512">
        <ele>248.6</ele>
        <time>2016-03-06T09:13:30Z</time>
      </trkpt>
      <trkpt lat="44.00931" lon="5.17526">
        <ele>247.5</ele>
        <time>2016-03-06T09:13:41Z</time>
      </trkpt>
      <trkpt lat="44.00935" lon="5.17539">
        <ele>246.8</ele>
        <time>2016-03-06T09:13:48Z</time>
      </trkpt>
      <trkpt lat="44.00934" lon="5.17554">
        <ele>246.4</ele>
        <time>2016-03-06T09:13:52Z</time>
      </trkpt>
      <trkpt lat="44.00935" lon="5.17568">
        <ele>245.8</ele>
        <time>2016-03-06T09:13:59Z</time>
      </trkpt>
      <trkpt lat="44.0093" lon="5.17578">
        <ele>245.1</ele>
        <time>2016-03-06T09:14:06Z</time>
      </trkpt>
      <trkpt lat="44.00924" lon="5.17589">
        <ele>244.6</ele>
        <time>2016-03-06T09:14:12Z</time>
      </trkpt>
      <trkpt lat="44.0092" lon="5.17601">
        <ele>244.1</ele>
        <time>2016-03-06T09:14:18Z</time>
      </trkpt>
      <trkpt lat="44.00917" lon="5.17614">
        <ele>243.8</ele>
        <time>2016-03-06T09:14:22Z</time>
      </trkpt>
      <trkpt lat="44.0091" lon="5.17624">
        <ele>243.3</ele>
        <time>2016-03-06T09:14:26Z</time>
      </trkpt>
      <trkpt lat="44.00904" lon="5.17636">
        <ele>242.8</ele>
        <time>2016-03-06T09:14:31Z</time>
      </trkpt>
      <trkpt lat="44.00896" lon="5.17642">
        <ele>241.8</ele>
        <time>2016-03-06T09:14:40Z</time>
      </trkpt>
      <trkpt lat="44.00889" lon="5.17651">
        <ele>240.9</ele>
        <time>2016-03-06T09:14:47Z</time>
      </trkpt>
      <trkpt lat="44.0088" lon="5.17658">
        <ele>240.2</ele>
        <time>2016-03-06T09:14:55Z</time>
      </trkpt>
      <trkpt lat="44.00871" lon="5.17664">
        <ele>239.7</ele>
        <time>2016-03-06T09:15:02Z</time>
      </trkpt>
      <trkpt lat="44.00861" lon="5.17669">
        <ele>238.9</ele>
        <time>2016-03-06T09:15:08Z</time>
      </trkpt>
      <trkpt lat="44.00854" lon="5.17677">
        <ele>238.3</ele>
        <time>2016-03-06T09:15:12Z</time>
      </trkpt>
      <trkpt lat="44.00845" lon="5.17682">
        <ele>237.4</ele>
        <time>2016-03-06T09:15:19Z</time>
      </trkpt>
      <trkpt lat="44.00836" lon="5.17686">
        <ele>236.1</ele>
        <time>2016-03-06T09:15:25Z</time>
      </trkpt>
      <trkpt lat="44.00827" lon="5.17691">
        <ele>235.2</ele>
        <time>2016-03-06T09:15:31Z</time>
      </trkpt>
      <trkpt lat="44.00819" lon="5.17701">
        <ele>234.8</ele>
        <time>2016-03-06T09:15:35Z</time>
      </trkpt>
      <trkpt lat="44.0081" lon="5.17706">
        <ele>234.3</ele>
        <time>2016-03-06T09:15:40Z</time>
      </trkpt>
      <trkpt lat="44.00801" lon="5.17709">
        <ele>233.6</ele>
        <time>2016-03-06T09:15:47Z</time>
      </trkpt>
      <trkpt lat="44.00793" lon="5.17716">
        <ele>232.9</ele>
        <time>2016-03-06T09:15:55Z</time>
      </trkpt>
      <trkpt lat="44.00786" lon="5.17724">
        <ele>232.6</ele>
        <time>2016-03-06T09:16:01Z</time>
      </trkpt>
      <trkpt lat="44.00778" lon="5.17734">
        <ele>232.1</ele>
        <time>2016-03-06T09:16:11Z</time>
      </trkpt>
      <trkpt lat="44.0077" lon="5.17742">
        <ele>231.9</ele>
        <time>2016-03-06T09:16:16Z</time>
      </trkpt>
      <trkpt lat="44.00762" lon="5.1775">
        <ele>231.2</ele>
        <time>2016-03-06T09:16:21Z</time>
      </trkpt>
      <trkpt lat="44.00752" lon="5.17749">
        <ele>230.5</ele>
        <time>2016-03-06T09:16:30Z</time>
      </trkpt>
      <trkpt lat="44.00743" lon="5.17759">
        <ele>229.9</ele>
        <time>2016-03-06T09:16:39Z</time>
      </trkpt>
      <trkpt lat="44.00734" lon="5.17772">
        <ele>229.7</ele>
        <time>2016-03-06T09:16:44Z</time>
      </trkpt>
      <trkpt lat="44.00727" lon="5.17784">
        <ele>229.4</ele>
        <time>2016-03-06T09:16:52Z</time>
      </trkpt>
      <trkpt lat="44.0072" lon="5.17793">
        <ele>229.2</ele>
        <time>2016-03-06T09:16:58Z</time>
      </trkpt>
      <trkpt lat="44.00713" lon="5.17803">
        <ele>229.1</ele>
        <time>2016-03-06T09:17:02Z</time>
      </trkpt>
      <trkpt lat="44.00706" lon="5.17813">
        <ele>228.9</ele>
        <time>2016-03-06T09:17:07Z</time>
      </trkpt>
      <trkpt lat="44.00697" lon="5.17823">
        <ele>228.7</ele>
        <time>2016-03-06T09:17:11Z</time>
      </trkpt>
      <trkpt lat="44.00688" lon="5.17832">
        <ele>228.6</ele>
        <time>2016-03-06T09:17:16Z</time>
      </trkpt>
      <trkpt lat="44.00678" lon="5.17836">
        <ele>228.3</ele>
        <time>2016-03-06T09:17:22Z</time>
      </trkpt>
      <trkpt lat="44.0067" lon="5.17842">
        <ele>227.7</ele>
        <time>2016-03-06T09:17:28Z</time>
      </trkpt>
      <trkpt lat="44.0066" lon="5.17846">
        <ele>227.5</ele>
        <time>2016-03-06T09:17:35Z</time>
      </trkpt>
      <trkpt lat="44.0065" lon="5.17855">
        <ele>227.3</ele>
        <time>2016-03-06T09:17:40Z</time>
      </trkpt>
      <trkpt lat="44.00644" lon="5.17864">
        <ele>227.1</ele>
        <time>2016-03-06T09:17:45Z</time>
      </trkpt>
      <trkpt lat="44.00638" lon="5.17876">
        <ele>227.3</ele>
        <time>2016-03-06T09:17:53Z</time>
      </trkpt>
      <trkpt lat="44.00633" lon="5.17888">
        <ele>227.6</ele>
        <time>2016-03-06T09:18:01Z</time>
      </trkpt>
      <trkpt lat="44.00626" lon="5.17898">
        <ele>227.9</ele>
        <time>2016-03-06T09:18:08Z</time>
      </trkpt>
      <trkpt lat="44.00618" lon="5.17905">
        <ele>228.5</ele>
        <time>2016-03-06T09:18:17Z</time>
      </trkpt>
      <trkpt lat="44.00611" lon="5.17916">
        <ele>229</ele>
        <time>2016-03-06T09:18:24Z</time>
      </trkpt>
      <trkpt lat="44.00605" lon="5.17926">
        <ele>230.3</ele>
        <time>2016-03-06T09:18:45Z</time>
      </trkpt>
      <trkpt lat="44.00597" lon="5.17938">
        <ele>231</ele>
        <time>2016-03-06T09:18:53Z</time>
      </trkpt>
      <trkpt lat="44.00596" lon="5.17951">
        <ele>231.8</ele>
        <time>2016-03-06T09:19:01Z</time>
      </trkpt>
      <trkpt lat="44.00591" lon="5.17965">
        <ele>232.1</ele>
        <time>2016-03-06T09:19:06Z</time>
      </trkpt>
      <trkpt lat="44.00587" lon="5.17976">
        <ele>232.3</ele>
        <time>2016-03-06T09:19:12Z</time>
      </trkpt>
      <trkpt lat="44.00588" lon="5.17989">
        <ele>232.3</ele>
        <time>2016-03-06T09:19:20Z</time>
      </trkpt>
      <trkpt lat="44.00589" lon="5.18002">
        <ele>232.2</ele>
        <time>2016-03-06T09:19:28Z</time>
      </trkpt>
      <trkpt lat="44.00588" lon="5.18014">
        <ele>231.8</ele>
        <time>2016-03-06T09:19:35Z</time>
      </trkpt>
      <trkpt lat="44.00586" lon="5.18027">
        <ele>231.5</ele>
        <time>2016-03-06T09:19:40Z</time>
      </trkpt>
      <trkpt lat="44.00585" lon="5.18041">
        <ele>230.8</ele>
        <time>2016-03-06T09:19:48Z</time>
      </trkpt>
      <trkpt lat="44.00585" lon="5.18055">
        <ele>230.1</ele>
        <time>2016-03-06T09:19:55Z</time>
      </trkpt>
      <trkpt lat="44.00585" lon="5.1807">
        <ele>229.6</ele>
        <time>2016-03-06T09:20:02Z</time>
      </trkpt>
      <trkpt lat="44.00588" lon="5.18082">
        <ele>229</ele>
        <time>2016-03-06T09:20:08Z</time>
      </trkpt>
      <trkpt lat="44.00591" lon="5.18095">
        <ele>228.6</ele>
        <time>2016-03-06T09:20:13Z</time>
      </trkpt>
      <trkpt lat="44.00594" lon="5.18108">
        <ele>228.4</ele>
        <time>2016-03-06T09:20:19Z</time>
      </trkpt>
      <trkpt lat="44.00596" lon="5.18121">
        <ele>228.1</ele>
        <time>2016-03-06T09:20:26Z</time>
      </trkpt>
      <trkpt lat="44.00601" lon="5.18133">
        <ele>227.9</ele>
        <time>2016-03-06T09:20:32Z</time>
      </trkpt>
      <trkpt lat="44.00607" lon="5.18146">
        <ele>227.6</ele>
        <time>2016-03-06T09:20:38Z</time>
      </trkpt>
      <trkpt lat="44.00616" lon="5.18153">
        <ele>227.2</ele>
        <time>2016-03-06T09:20:43Z</time>
      </trkpt>
      <trkpt lat="44.00625" lon="5.1816">
        <ele>226.9</ele>
        <time>2016-03-06T09:20:47Z</time>
      </trkpt>
      <trkpt lat="44.00628" lon="5.18174">
        <ele>226.5</ele>
        <time>2016-03-06T09:20:53Z</time>
      </trkpt>
      <trkpt lat="44.00634" lon="5.18185">
        <ele>226.2</ele>
        <time>2016-03-06T09:20:58Z</time>
      </trkpt>
      <trkpt lat="44.0064" lon="5.18196">
        <ele>225.7</ele>
        <time>2016-03-06T09:21:03Z</time>
      </trkpt>
      <trkpt lat="44.00646" lon="5.18208">
        <ele>225</ele>
        <time>2016-03-06T09:21:10Z</time>
      </trkpt>
      <trkpt lat="44.00646" lon="5.18221">
        <ele>224.4</ele>
        <time>2016-03-06T09:21:16Z</time>
      </trkpt>
      <trkpt lat="44.00638" lon="5.18233">
        <ele>224.1</ele>
        <time>2016-03-06T09:21:20Z</time>
      </trkpt>
      <trkpt lat="44.00632" lon="5.18244">
        <ele>223.6</ele>
        <time>2016-03-06T09:21:25Z</time>
      </trkpt>
      <trkpt lat="44.00624" lon="5.18254">
        <ele>223.1</ele>
        <time>2016-03-06T09:21:30Z</time>
      </trkpt>
      <trkpt lat="44.00617" lon="5.18261">
        <ele>222.7</ele>
        <time>2016-03-06T09:21:35Z</time>
      </trkpt>
      <trkpt lat="44.00608" lon="5.18272">
        <ele>222.4</ele>
        <time>2016-03-06T09:21:38Z</time>
      </trkpt>
      <trkpt lat="44.006" lon="5.18285">
        <ele>222.2</ele>
        <time>2016-03-06T09:21:41Z</time>
      </trkpt>
      <trkpt lat="44.00592" lon="5.18294">
        <ele>222</ele>
        <time>2016-03-06T09:21:45Z</time>
      </trkpt>
      <trkpt lat="44.00586" lon="5.18304">
        <ele>221.5</ele>
        <time>2016-03-06T09:21:52Z</time>
      </trkpt>
      <trkpt lat="44.00578" lon="5.18316">
        <ele>221.2</ele>
        <time>2016-03-06T09:21:58Z</time>
      </trkpt>
      <trkpt lat="44.00571" lon="5.18325">
        <ele>221.1</ele>
        <time>2016-03-06T09:22:01Z</time>
      </trkpt>
      <trkpt lat="44.00564" lon="5.18336">
        <ele>221</ele>
        <time>2016-03-06T09:22:05Z</time>
      </trkpt>
      <trkpt lat="44.00557" lon="5.18347">
        <ele>220.9</ele>
        <time>2016-03-06T09:22:09Z</time>
      </trkpt>
      <trkpt lat="44.00551" lon="5.18358">
        <ele>219.8</ele>
        <time>2016-03-06T09:22:19Z</time>
      </trkpt>
      <trkpt lat="44.00542" lon="5.18349">
        <ele>218.8</ele>
        <time>2016-03-06T09:22:27Z</time>
      </trkpt>
      <trkpt lat="44.00533" lon="5.18352">
        <ele>218.4</ele>
        <time>2016-03-06T09:22:32Z</time>
      </trkpt>
      <trkpt lat="44.00526" lon="5.18361">
        <ele>218.1</ele>
        <time>2016-03-06T09:22:43Z</time>
      </trkpt>
      <trkpt lat="44.00533" lon="5.18371">
        <ele>218.3</ele>
        <time>2016-03-06T09:22:48Z</time>
      </trkpt>
      <trkpt lat="44.00527" lon="5.18383">
        <ele>218.4</ele>
        <time>2016-03-06T09:22:53Z</time>
      </trkpt>
      <trkpt lat="44.00517" lon="5.18392">
        <ele>218.3</ele>
        <time>2016-03-06T09:22:59Z</time>
      </trkpt>
      <trkpt lat="44.00512" lon="5.18403">
        <ele>218.1</ele>
        <time>2016-03-06T09:23:03Z</time>
      </trkpt>
      <trkpt lat="44.00507" lon="5.18417">
        <ele>218.1</ele>
        <time>2016-03-06T09:23:09Z</time>
      </trkpt>
      <trkpt lat="44.005" lon="5.1843">
        <ele>218</ele>
        <time>2016-03-06T09:23:16Z</time>
      </trkpt>
      <trkpt lat="44.00492" lon="5.18438">
        <ele>218</ele>
        <time>2016-03-06T09:23:20Z</time>
      </trkpt>
      <trkpt lat="44.00483" lon="5.18448">
        <ele>218</ele>
        <time>2016-03-06T09:23:24Z</time>
      </trkpt>
      <trkpt lat="44.00478" lon="5.1846">
        <ele>218.3</ele>
        <time>2016-03-06T09:23:32Z</time>
      </trkpt>
      <trkpt lat="44.0047" lon="5.18465">
        <ele>218.4</ele>
        <time>2016-03-06T09:23:39Z</time>
      </trkpt>
      <trkpt lat="44.00461" lon="5.18472">
        <ele>221</ele>
        <time>2016-03-06T09:24:40Z</time>
      </trkpt>
      <trkpt lat="44.00428" lon="5.1848">
        <ele>225</ele>
        <time>2016-03-06T09:25:09Z</time>
      </trkpt>
      <trkpt lat="44.00416" lon="5.18489">
        <ele>226.8</ele>
        <time>2016-03-06T09:25:14Z</time>
      </trkpt>
      <trkpt lat="44.00408" lon="5.18501">
        <ele>227.2</ele>
        <time>2016-03-06T09:25:16Z</time>
      </trkpt>
      <trkpt lat="44.00399" lon="5.18513">
        <ele>227.7</ele>
        <time>2016-03-06T09:25:18Z</time>
      </trkpt>
      <trkpt lat="44.00392" lon="5.18522">
        <ele>228.3</ele>
        <time>2016-03-06T09:25:20Z</time>
      </trkpt>
      <trkpt lat="44.00385" lon="5.18532">
        <ele>228.9</ele>
        <time>2016-03-06T09:25:22Z</time>
      </trkpt>
      <trkpt lat="44.00377" lon="5.18543">
        <ele>229.8</ele>
        <time>2016-03-06T09:25:25Z</time>
      </trkpt>
      <trkpt lat="44.00371" lon="5.18555">
        <ele>231.1</ele>
        <time>2016-03-06T09:25:29Z</time>
      </trkpt>
      <trkpt lat="44.00361" lon="5.18563">
        <ele>232.9</ele>
        <time>2016-03-06T09:25:34Z</time>
      </trkpt>
      <trkpt lat="44.00351" lon="5.18572">
        <ele>233.8</ele>
        <time>2016-03-06T09:25:36Z</time>
      </trkpt>
      <trkpt lat="44.0034" lon="5.18579">
        <ele>235.1</ele>
        <time>2016-03-06T09:25:39Z</time>
      </trkpt>
      <trkpt lat="44.00332" lon="5.18571">
        <ele>238.3</ele>
        <time>2016-03-06T09:25:46Z</time>
      </trkpt>
      <trkpt lat="44.00324" lon="5.18565">
        <ele>240.5</ele>
        <time>2016-03-06T09:25:52Z</time>
      </trkpt>
      <trkpt lat="44.00316" lon="5.18555">
        <ele>242.9</ele>
        <time>2016-03-06T09:25:59Z</time>
      </trkpt>
      <trkpt lat="44.0031" lon="5.18545">
        <ele>245.5</ele>
        <time>2016-03-06T09:26:07Z</time>
      </trkpt>
      <trkpt lat="44.00301" lon="5.18537">
        <ele>247.8</ele>
        <time>2016-03-06T09:26:14Z</time>
      </trkpt>
      <trkpt lat="44.00294" lon="5.18545">
        <ele>249.5</ele>
        <time>2016-03-06T09:26:19Z</time>
      </trkpt>
      <trkpt lat="44.00286" lon="5.18556">
        <ele>250.9</ele>
        <time>2016-03-06T09:26:23Z</time>
      </trkpt>
      <trkpt lat="44.00278" lon="5.18563">
        <ele>252.5</ele>
        <time>2016-03-06T09:26:27Z</time>
      </trkpt>
      <trkpt lat="44.00275" lon="5.18578">
        <ele>254.8</ele>
        <time>2016-03-06T09:26:32Z</time>
      </trkpt>
      <trkpt lat="44.0027" lon="5.18594">
        <ele>258</ele>
        <time>2016-03-06T09:26:43Z</time>
      </trkpt>
      <trkpt lat="44.0026" lon="5.18596">
        <ele>260.8</ele>
        <time>2016-03-06T09:26:55Z</time>
      </trkpt>
      <trkpt lat="44.00254" lon="5.18587">
        <ele>265.3</ele>
        <time>2016-03-06T09:27:15Z</time>
      </trkpt>
      <trkpt lat="44.00244" lon="5.18588">
        <ele>267.3</ele>
        <time>2016-03-06T09:27:22Z</time>
      </trkpt>
      <trkpt lat="44.00236" lon="5.18598">
        <ele>268.6</ele>
        <time>2016-03-06T09:27:27Z</time>
      </trkpt>
      <trkpt lat="44.00227" lon="5.18607">
        <ele>270.4</ele>
        <time>2016-03-06T09:27:33Z</time>
      </trkpt>
      <trkpt lat="44.00218" lon="5.18614">
        <ele>271.9</ele>
        <time>2016-03-06T09:27:38Z</time>
      </trkpt>
      <trkpt lat="44.00207" lon="5.18614">
        <ele>275.3</ele>
        <time>2016-03-06T09:27:49Z</time>
      </trkpt>
      <trkpt lat="44.00205" lon="5.18601">
        <ele>277.3</ele>
        <time>2016-03-06T09:27:55Z</time>
      </trkpt>
      <trkpt lat="44.00196" lon="5.18598">
        <ele>281.7</ele>
        <time>2016-03-06T09:28:09Z</time>
      </trkpt>
      <trkpt lat="44.00184" lon="5.18608">
        <ele>283.6</ele>
        <time>2016-03-06T09:28:16Z</time>
      </trkpt>
      <trkpt lat="44.00176" lon="5.18616">
        <ele>284.2</ele>
        <time>2016-03-06T09:28:18Z</time>
      </trkpt>
      <trkpt lat="44.00172" lon="5.18628">
        <ele>285</ele>
        <time>2016-03-06T09:28:21Z</time>
      </trkpt>
      <trkpt lat="44.00162" lon="5.18634">
        <ele>289.8</ele>
        <time>2016-03-06T09:28:37Z</time>
      </trkpt>
      <trkpt lat="44.00154" lon="5.18627">
        <ele>295.1</ele>
        <time>2016-03-06T09:28:53Z</time>
      </trkpt>
      <trkpt lat="44.00146" lon="5.18636">
        <ele>297.9</ele>
        <time>2016-03-06T09:29:03Z</time>
      </trkpt>
      <trkpt lat="44.00138" lon="5.18641">
        <ele>300.2</ele>
        <time>2016-03-06T09:29:11Z</time>
      </trkpt>
      <trkpt lat="44.0013" lon="5.18649">
        <ele>301.1</ele>
        <time>2016-03-06T09:29:16Z</time>
      </trkpt>
      <trkpt lat="44.00121" lon="5.18653">
        <ele>303.5</ele>
        <time>2016-03-06T09:29:21Z</time>
      </trkpt>
      <trkpt lat="44.00113" lon="5.18659">
        <ele>305.4</ele>
        <time>2016-03-06T09:29:26Z</time>
      </trkpt>
      <trkpt lat="44.00104" lon="5.18669">
        <ele>307.1</ele>
        <time>2016-03-06T09:29:31Z</time>
      </trkpt>
      <trkpt lat="44.00095" lon="5.18677">
        <ele>308.1</ele>
        <time>2016-03-06T09:29:34Z</time>
      </trkpt>
      <trkpt lat="44.00088" lon="5.18687">
        <ele>309.3</ele>
        <time>2016-03-06T09:29:38Z</time>
      </trkpt>
      <trkpt lat="44.00078" lon="5.18692">
        <ele>311</ele>
        <time>2016-03-06T09:29:44Z</time>
      </trkpt>
      <trkpt lat="44.0007" lon="5.18701">
        <ele>312.7</ele>
        <time>2016-03-06T09:29:49Z</time>
      </trkpt>
      <trkpt lat="44.00064" lon="5.18711">
        <ele>320.5</ele>
        <time>2016-03-06T09:30:15Z</time>
      </trkpt>
      <trkpt lat="44.00055" lon="5.1871">
        <ele>324.3</ele>
        <time>2016-03-06T09:30:29Z</time>
      </trkpt>
      <trkpt lat="44.00045" lon="5.18715">
        <ele>325.1</ele>
        <time>2016-03-06T09:30:47Z</time>
      </trkpt>
      <trkpt lat="44.0005" lon="5.18699">
        <ele>327.9</ele>
        <time>2016-03-06T09:30:50Z</time>
      </trkpt>
      <trkpt lat="44.00063" lon="5.18685">
        <ele>329.2</ele>
        <time>2016-03-06T09:30:52Z</time>
      </trkpt>
      <trkpt lat="44.00068" lon="5.18674">
        <ele>329.7</ele>
        <time>2016-03-06T09:30:53Z</time>
      </trkpt>
      <trkpt lat="44.00078" lon="5.18655">
        <ele>330.5</ele>
        <time>2016-03-06T09:30:55Z</time>
      </trkpt>
      <trkpt lat="44.00088" lon="5.18639">
        <ele>331.3</ele>
        <time>2016-03-06T09:30:57Z</time>
      </trkpt>
      <trkpt lat="44.00101" lon="5.18629">
        <ele>332</ele>
        <time>2016-03-06T09:30:59Z</time>
      </trkpt>
      <trkpt lat="44.00107" lon="5.18617">
        <ele>332.7</ele>
        <time>2016-03-06T09:31:01Z</time>
      </trkpt>
      <trkpt lat="44.00119" lon="5.186">
        <ele>333.7</ele>
        <time>2016-03-06T09:31:03Z</time>
      </trkpt>
      <trkpt lat="44.00125" lon="5.18591">
        <ele>334</ele>
        <time>2016-03-06T09:31:04Z</time>
      </trkpt>
      <trkpt lat="44.00133" lon="5.18581">
        <ele>335.1</ele>
        <time>2016-03-06T09:31:05Z</time>
      </trkpt>
      <trkpt lat="44.00139" lon="5.18571">
        <ele>335.7</ele>
        <time>2016-03-06T09:31:06Z</time>
      </trkpt>
      <trkpt lat="44.0009" lon="5.18628">
        <ele>337</ele>
        <time>2016-03-06T09:31:11Z</time>
      </trkpt>
      <trkpt lat="44.00057" lon="5.18666">
        <ele>338.3</ele>
        <time>2016-03-06T09:31:16Z</time>
      </trkpt>
      <trkpt lat="44.00048" lon="5.18676">
        <ele>344.6</ele>
        <time>2016-03-06T09:31:54Z</time>
      </trkpt>
      <trkpt lat="44.00042" lon="5.18688">
        <ele>345</ele>
        <time>2016-03-06T09:31:58Z</time>
      </trkpt>
      <trkpt lat="44.00031" lon="5.18695">
        <ele>345.8</ele>
        <time>2016-03-06T09:32:11Z</time>
      </trkpt>
      <trkpt lat="44.00021" lon="5.18701">
        <ele>345.9</ele>
        <time>2016-03-06T09:32:14Z</time>
      </trkpt>
      <trkpt lat="44.00011" lon="5.1871">
        <ele>346.1</ele>
        <time>2016-03-06T09:32:18Z</time>
      </trkpt>
      <trkpt lat="44.00002" lon="5.1872">
        <ele>347.1</ele>
        <time>2016-03-06T09:32:31Z</time>
      </trkpt>
      <trkpt lat="43.99993" lon="5.18728">
        <ele>347.2</ele>
        <time>2016-03-06T09:32:34Z</time>
      </trkpt>
      <trkpt lat="43.99983" lon="5.18735">
        <ele>347.8</ele>
        <time>2016-03-06T09:32:40Z</time>
      </trkpt>
      <trkpt lat="43.9997" lon="5.1875">
        <ele>349.2</ele>
        <time>2016-03-06T09:32:56Z</time>
      </trkpt>
      <trkpt lat="43.99962" lon="5.18757">
        <ele>349.5</ele>
        <time>2016-03-06T09:33:00Z</time>
      </trkpt>
      <trkpt lat="43.99953" lon="5.18754">
        <ele>350.4</ele>
        <time>2016-03-06T09:33:22Z</time>
      </trkpt>
      <trkpt lat="43.99944" lon="5.18757">
        <ele>351.7</ele>
        <time>2016-03-06T09:33:34Z</time>
      </trkpt>
      <trkpt lat="43.99934" lon="5.18758">
        <ele>353.1</ele>
        <time>2016-03-06T09:33:43Z</time>
      </trkpt>
      <trkpt lat="43.99922" lon="5.18764">
        <ele>357.3</ele>
        <time>2016-03-06T09:34:08Z</time>
      </trkpt>
      <trkpt lat="43.99911" lon="5.18765">
        <ele>359.4</ele>
        <time>2016-03-06T09:34:22Z</time>
      </trkpt>
      <trkpt lat="43.99899" lon="5.18776">
        <ele>362</ele>
        <time>2016-03-06T09:35:38Z</time>
      </trkpt>
      <trkpt lat="43.9989" lon="5.18778">
        <ele>363.6</ele>
        <time>2016-03-06T09:36:02Z</time>
      </trkpt>
      <trkpt lat="43.9988" lon="5.18781">
        <ele>365.7</ele>
        <time>2016-03-06T09:36:13Z</time>
      </trkpt>
      <trkpt lat="43.9987" lon="5.18784">
        <ele>369.2</ele>
        <time>2016-03-06T09:36:24Z</time>
      </trkpt>
      <trkpt lat="43.99861" lon="5.18787">
        <ele>372.3</ele>
        <time>2016-03-06T09:36:34Z</time>
      </trkpt>
      <trkpt lat="43.99852" lon="5.18788">
        <ele>375.6</ele>
        <time>2016-03-06T09:36:44Z</time>
      </trkpt>
      <trkpt lat="43.99844" lon="5.18769">
        <ele>380</ele>
        <time>2016-03-06T09:37:01Z</time>
      </trkpt>
      <trkpt lat="43.99833" lon="5.18786">
        <ele>384</ele>
        <time>2016-03-06T09:37:33Z</time>
      </trkpt>
      <trkpt lat="43.99827" lon="5.18795">
        <ele>385.3</ele>
        <time>2016-03-06T09:37:38Z</time>
      </trkpt>
      <trkpt lat="43.99818" lon="5.18796">
        <ele>387.8</ele>
        <time>2016-03-06T09:37:47Z</time>
      </trkpt>
      <trkpt lat="43.99808" lon="5.18795">
        <ele>389.6</ele>
        <time>2016-03-06T09:37:56Z</time>
      </trkpt>
      <trkpt lat="43.99801" lon="5.18802">
        <ele>393.9</ele>
        <time>2016-03-06T09:38:43Z</time>
      </trkpt>
      <trkpt lat="43.99793" lon="5.18809">
        <ele>394.6</ele>
        <time>2016-03-06T09:38:56Z</time>
      </trkpt>
      <trkpt lat="43.99783" lon="5.18815">
        <ele>394.7</ele>
        <time>2016-03-06T09:39:05Z</time>
      </trkpt>
      <trkpt lat="43.99775" lon="5.18823">
        <ele>396.8</ele>
        <time>2016-03-06T09:39:12Z</time>
      </trkpt>
      <trkpt lat="43.99765" lon="5.1883">
        <ele>397.9</ele>
        <time>2016-03-06T09:39:18Z</time>
      </trkpt>
      <trkpt lat="43.99761" lon="5.18841">
        <ele>400.1</ele>
        <time>2016-03-06T09:39:31Z</time>
      </trkpt>
      <trkpt lat="43.99752" lon="5.18847">
        <ele>403.3</ele>
        <time>2016-03-06T09:39:38Z</time>
      </trkpt>
      <trkpt lat="43.99743" lon="5.18856">
        <ele>404.9</ele>
        <time>2016-03-06T09:39:46Z</time>
      </trkpt>
      <trkpt lat="43.99737" lon="5.18865">
        <ele>405.6</ele>
        <time>2016-03-06T09:39:51Z</time>
      </trkpt>
      <trkpt lat="43.99733" lon="5.18877">
        <ele>406.4</ele>
        <time>2016-03-06T09:39:57Z</time>
      </trkpt>
      <trkpt lat="43.99724" lon="5.18881">
        <ele>407.4</ele>
        <time>2016-03-06T09:40:03Z</time>
      </trkpt>
      <trkpt lat="43.99717" lon="5.18891">
        <ele>408.8</ele>
        <time>2016-03-06T09:40:10Z</time>
      </trkpt>
      <trkpt lat="43.99712" lon="5.18902">
        <ele>409.7</ele>
        <time>2016-03-06T09:40:16Z</time>
      </trkpt>
      <trkpt lat="43.99707" lon="5.18913">
        <ele>410.7</ele>
        <time>2016-03-06T09:40:23Z</time>
      </trkpt>
      <trkpt lat="43.99699" lon="5.18919">
        <ele>412.7</ele>
        <time>2016-03-06T09:40:36Z</time>
      </trkpt>
      <trkpt lat="43.99691" lon="5.18927">
        <ele>414.2</ele>
        <time>2016-03-06T09:40:44Z</time>
      </trkpt>
      <trkpt lat="43.99681" lon="5.18933">
        <ele>416.1</ele>
        <time>2016-03-06T09:40:55Z</time>
      </trkpt>
      <trkpt lat="43.99672" lon="5.18931">
        <ele>417.6</ele>
        <time>2016-03-06T09:41:03Z</time>
      </trkpt>
      <trkpt lat="43.99664" lon="5.18938">
        <ele>419.5</ele>
        <time>2016-03-06T09:41:15Z</time>
      </trkpt>
      <trkpt lat="43.99654" lon="5.18942">
        <ele>421</ele>
        <time>2016-03-06T09:41:25Z</time>
      </trkpt>
      <trkpt lat="43.99646" lon="5.18949">
        <ele>422.5</ele>
        <time>2016-03-06T09:41:35Z</time>
      </trkpt>
      <trkpt lat="43.99639" lon="5.18957">
        <ele>423.7</ele>
        <time>2016-03-06T09:41:42Z</time>
      </trkpt>
      <trkpt lat="43.99632" lon="5.18968">
        <ele>424.6</ele>
        <time>2016-03-06T09:41:48Z</time>
      </trkpt>
      <trkpt lat="43.99625" lon="5.18978">
        <ele>425.4</ele>
        <time>2016-03-06T09:41:53Z</time>
      </trkpt>
      <trkpt lat="43.99618" lon="5.18988">
        <ele>426.1</ele>
        <time>2016-03-06T09:41:57Z</time>
      </trkpt>
      <trkpt lat="43.99609" lon="5.18992">
        <ele>426.5</ele>
        <time>2016-03-06T09:42:00Z</time>
      </trkpt>
      <trkpt lat="43.99608" lon="5.19004">
        <ele>428.8</ele>
        <time>2016-03-06T09:43:10Z</time>
      </trkpt>
      <trkpt lat="43.99605" lon="5.19016">
        <ele>429.3</ele>
        <time>2016-03-06T09:43:49Z</time>
      </trkpt>
      <trkpt lat="43.99599" lon="5.19027">
        <ele>429.7</ele>
        <time>2016-03-06T09:44:01Z</time>
      </trkpt>
      <trkpt lat="43.99592" lon="5.19035">
        <ele>430.2</ele>
        <time>2016-03-06T09:44:09Z</time>
      </trkpt>
      <trkpt lat="43.99586" lon="5.19045">
        <ele>430.8</ele>
        <time>2016-03-06T09:44:17Z</time>
      </trkpt>
      <trkpt lat="43.9958" lon="5.19055">
        <ele>431.4</ele>
        <time>2016-03-06T09:44:24Z</time>
      </trkpt>
      <trkpt lat="43.99575" lon="5.19066">
        <ele>432.6</ele>
        <time>2016-03-06T09:44:33Z</time>
      </trkpt>
      <trkpt lat="43.99569" lon="5.19076">
        <ele>433.8</ele>
        <time>2016-03-06T09:44:43Z</time>
      </trkpt>
      <trkpt lat="43.99562" lon="5.19084">
        <ele>435.1</ele>
        <time>2016-03-06T09:44:53Z</time>
      </trkpt>
      <trkpt lat="43.99555" lon="5.19092">
        <ele>436.3</ele>
        <time>2016-03-06T09:45:03Z</time>
      </trkpt>
      <trkpt lat="43.99547" lon="5.19098">
        <ele>437</ele>
        <time>2016-03-06T09:45:10Z</time>
      </trkpt>
      <trkpt lat="43.99541" lon="5.1911">
        <ele>438.3</ele>
        <time>2016-03-06T09:45:21Z</time>
      </trkpt>
      <trkpt lat="43.99535" lon="5.1912">
        <ele>439</ele>
        <time>2016-03-06T09:45:29Z</time>
      </trkpt>
      <trkpt lat="43.99529" lon="5.19129">
        <ele>439.6</ele>
        <time>2016-03-06T09:45:35Z</time>
      </trkpt>
      <trkpt lat="43.99521" lon="5.19139">
        <ele>440.1</ele>
        <time>2016-03-06T09:45:39Z</time>
      </trkpt>
      <trkpt lat="43.99514" lon="5.19149">
        <ele>441</ele>
        <time>2016-03-06T09:45:45Z</time>
      </trkpt>
      <trkpt lat="43.99507" lon="5.19158">
        <ele>443</ele>
        <time>2016-03-06T09:45:57Z</time>
      </trkpt>
      <trkpt lat="43.995" lon="5.19167">
        <ele>444.3</ele>
        <time>2016-03-06T09:46:07Z</time>
      </trkpt>
      <trkpt lat="43.99494" lon="5.19178">
        <ele>444.8</ele>
        <time>2016-03-06T09:46:12Z</time>
      </trkpt>
      <trkpt lat="43.99491" lon="5.19191">
        <ele>445.6</ele>
        <time>2016-03-06T09:46:18Z</time>
      </trkpt>
      <trkpt lat="43.99486" lon="5.19202">
        <ele>446.6</ele>
        <time>2016-03-06T09:46:24Z</time>
      </trkpt>
      <trkpt lat="43.99487" lon="5.19215">
        <ele>448.5</ele>
        <time>2016-03-06T09:46:36Z</time>
      </trkpt>
      <trkpt lat="43.99487" lon="5.19229">
        <ele>449.9</ele>
        <time>2016-03-06T09:46:45Z</time>
      </trkpt>
      <trkpt lat="43.99488" lon="5.19242">
        <ele>450.9</ele>
        <time>2016-03-06T09:46:54Z</time>
      </trkpt>
      <trkpt lat="43.99489" lon="5.19255">
        <ele>452.6</ele>
        <time>2016-03-06T09:47:04Z</time>
      </trkpt>
      <trkpt lat="43.99489" lon="5.19269">
        <ele>453.5</ele>
        <time>2016-03-06T09:47:12Z</time>
      </trkpt>
      <trkpt lat="43.9949" lon="5.19285">
        <ele>453.7</ele>
        <time>2016-03-06T09:47:20Z</time>
      </trkpt>
      <trkpt lat="43.99498" lon="5.19292">
        <ele>453.9</ele>
        <time>2016-03-06T09:47:26Z</time>
      </trkpt>
      <trkpt lat="43.995" lon="5.19305">
        <ele>454.1</ele>
        <time>2016-03-06T09:47:35Z</time>
      </trkpt>
      <trkpt lat="43.99497" lon="5.19318">
        <ele>454.2</ele>
        <time>2016-03-06T09:47:40Z</time>
      </trkpt>
      <trkpt lat="43.9949" lon="5.1933">
        <ele>454.8</ele>
        <time>2016-03-06T09:47:46Z</time>
      </trkpt>
      <trkpt lat="43.99483" lon="5.1934">
        <ele>455.3</ele>
        <time>2016-03-06T09:47:52Z</time>
      </trkpt>
      <trkpt lat="43.99477" lon="5.19349">
        <ele>455.9</ele>
        <time>2016-03-06T09:47:57Z</time>
      </trkpt>
      <trkpt lat="43.99469" lon="5.19361">
        <ele>456.4</ele>
        <time>2016-03-06T09:48:02Z</time>
      </trkpt>
      <trkpt lat="43.99461" lon="5.1937">
        <ele>456.9</ele>
        <time>2016-03-06T09:48:06Z</time>
      </trkpt>
      <trkpt lat="43.99456" lon="5.19381">
        <ele>457.7</ele>
        <time>2016-03-06T09:48:12Z</time>
      </trkpt>
      <trkpt lat="43.99454" lon="5.19393">
        <ele>458.6</ele>
        <time>2016-03-06T09:48:19Z</time>
      </trkpt>
      <trkpt lat="43.99451" lon="5.19406">
        <ele>459.8</ele>
        <time>2016-03-06T09:48:28Z</time>
      </trkpt>
      <trkpt lat="43.99453" lon="5.19418">
        <ele>460.8</ele>
        <time>2016-03-06T09:48:36Z</time>
      </trkpt>
      <trkpt lat="43.99448" lon="5.1943">
        <ele>461.7</ele>
        <time>2016-03-06T09:48:44Z</time>
      </trkpt>
      <trkpt lat="43.99446" lon="5.19442">
        <ele>462.8</ele>
        <time>2016-03-06T09:48:56Z</time>
      </trkpt>
      <trkpt lat="43.99441" lon="5.19453">
        <ele>463.4</ele>
        <time>2016-03-06T09:49:03Z</time>
      </trkpt>
      <trkpt lat="43.99435" lon="5.19465">
        <ele>463.9</ele>
        <time>2016-03-06T09:49:09Z</time>
      </trkpt>
      <trkpt lat="43.99428" lon="5.19474">
        <ele>464.2</ele>
        <time>2016-03-06T09:49:12Z</time>
      </trkpt>
      <trkpt lat="43.99421" lon="5.19483">
        <ele>465</ele>
        <time>2016-03-06T09:49:21Z</time>
      </trkpt>
      <trkpt lat="43.99414" lon="5.19492">
        <ele>466.4</ele>
        <time>2016-03-06T09:50:00Z</time>
      </trkpt>
      <trkpt lat="43.99406" lon="5.19483">
        <ele>467.2</ele>
        <time>2016-03-06T09:51:46Z</time>
      </trkpt>
      <trkpt lat="43.99399" lon="5.19474">
        <ele>466.9</ele>
        <time>2016-03-06T09:51:52Z</time>
      </trkpt>
      <trkpt lat="43.99393" lon="5.19463">
        <ele>466.5</ele>
        <time>2016-03-06T09:52:00Z</time>
      </trkpt>
      <trkpt lat="43.99387" lon="5.19453">
        <ele>465.9</ele>
        <time>2016-03-06T09:52:07Z</time>
      </trkpt>
      <trkpt lat="43.99381" lon="5.19443">
        <ele>464.6</ele>
        <time>2016-03-06T09:52:17Z</time>
      </trkpt>
      <trkpt lat="43.99378" lon="5.1943">
        <ele>463.6</ele>
        <time>2016-03-06T09:52:26Z</time>
      </trkpt>
      <trkpt lat="43.99374" lon="5.19418">
        <ele>462.7</ele>
        <time>2016-03-06T09:52:34Z</time>
      </trkpt>
      <trkpt lat="43.99369" lon="5.19407">
        <ele>461.3</ele>
        <time>2016-03-06T09:52:42Z</time>
      </trkpt>
      <trkpt lat="43.99362" lon="5.19398">
        <ele>459.6</ele>
        <time>2016-03-06T09:52:51Z</time>
      </trkpt>
      <trkpt lat="43.99358" lon="5.19387">
        <ele>456.6</ele>
        <time>2016-03-06T09:53:07Z</time>
      </trkpt>
      <trkpt lat="43.99359" lon="5.19374">
        <ele>455.3</ele>
        <time>2016-03-06T09:53:17Z</time>
      </trkpt>
      <trkpt lat="43.9935" lon="5.19367">
        <ele>452.1</ele>
        <time>2016-03-06T09:53:34Z</time>
      </trkpt>
      <trkpt lat="43.99347" lon="5.19354">
        <ele>451.5</ele>
        <time>2016-03-06T09:53:38Z</time>
      </trkpt>
      <trkpt lat="43.99342" lon="5.1934">
        <ele>450.9</ele>
        <time>2016-03-06T09:53:42Z</time>
      </trkpt>
      <trkpt lat="43.99339" lon="5.19328">
        <ele>450.3</ele>
        <time>2016-03-06T09:53:46Z</time>
      </trkpt>
      <trkpt lat="43.99337" lon="5.19315">
        <ele>449.1</ele>
        <time>2016-03-06T09:53:52Z</time>
      </trkpt>
      <trkpt lat="43.99334" lon="5.19303">
        <ele>448</ele>
        <time>2016-03-06T09:53:58Z</time>
      </trkpt>
      <trkpt lat="43.99329" lon="5.19292">
        <ele>447.1</ele>
        <time>2016-03-06T09:54:04Z</time>
      </trkpt>
      <trkpt lat="43.99322" lon="5.19283">
        <ele>446.4</ele>
        <time>2016-03-06T09:54:09Z</time>
      </trkpt>
      <trkpt lat="43.99314" lon="5.19275">
        <ele>445.7</ele>
        <time>2016-03-06T09:54:14Z</time>
      </trkpt>
      <trkpt lat="43.99307" lon="5.19266">
        <ele>445.3</ele>
        <time>2016-03-06T09:54:19Z</time>
      </trkpt>
      <trkpt lat="43.99301" lon="5.19254">
        <ele>444.8</ele>
        <time>2016-03-06T09:54:26Z</time>
      </trkpt>
      <trkpt lat="43.99299" lon="5.19241">
        <ele>444.6</ele>
        <time>2016-03-06T09:54:31Z</time>
      </trkpt>
      <trkpt lat="43.99297" lon="5.19228">
        <ele>444.4</ele>
        <time>2016-03-06T09:54:36Z</time>
      </trkpt>
      <trkpt lat="43.99294" lon="5.19213">
        <ele>444.2</ele>
        <time>2016-03-06T09:54:41Z</time>
      </trkpt>
      <trkpt lat="43.99292" lon="5.192">
        <ele>444</ele>
        <time>2016-03-06T09:54:45Z</time>
      </trkpt>
      <trkpt lat="43.99292" lon="5.19186">
        <ele>443.9</ele>
        <time>2016-03-06T09:54:50Z</time>
      </trkpt>
      <trkpt lat="43.99291" lon="5.19173">
        <ele>443.6</ele>
        <time>2016-03-06T09:54:57Z</time>
      </trkpt>
      <trkpt lat="43.99287" lon="5.19161">
        <ele>443.5</ele>
        <time>2016-03-06T09:55:03Z</time>
      </trkpt>
      <trkpt lat="43.99284" lon="5.1915">
        <ele>443.3</ele>
        <time>2016-03-06T09:55:09Z</time>
      </trkpt>
      <trkpt lat="43.9928" lon="5.19137">
        <ele>442.9</ele>
        <time>2016-03-06T09:55:15Z</time>
      </trkpt>
      <trkpt lat="43.9928" lon="5.19123">
        <ele>442.6</ele>
        <time>2016-03-06T09:55:21Z</time>
      </trkpt>
      <trkpt lat="43.99279" lon="5.19111">
        <ele>442.3</ele>
        <time>2016-03-06T09:55:27Z</time>
      </trkpt>
      <trkpt lat="43.99279" lon="5.19096">
        <ele>441.8</ele>
        <time>2016-03-06T09:55:34Z</time>
      </trkpt>
      <trkpt lat="43.9928" lon="5.19083">
        <ele>441.2</ele>
        <time>2016-03-06T09:55:39Z</time>
      </trkpt>
      <trkpt lat="43.99281" lon="5.19069">
        <ele>440.7</ele>
        <time>2016-03-06T09:55:44Z</time>
      </trkpt>
      <trkpt lat="43.99282" lon="5.19056">
        <ele>440.3</ele>
        <time>2016-03-06T09:55:49Z</time>
      </trkpt>
      <trkpt lat="43.99282" lon="5.19043">
        <ele>439.9</ele>
        <time>2016-03-06T09:55:55Z</time>
      </trkpt>
      <trkpt lat="43.9928" lon="5.1903">
        <ele>439.3</ele>
        <time>2016-03-06T09:56:01Z</time>
      </trkpt>
      <trkpt lat="43.99276" lon="5.19017">
        <ele>438.9</ele>
        <time>2016-03-06T09:56:06Z</time>
      </trkpt>
      <trkpt lat="43.9927" lon="5.19006">
        <ele>438</ele>
        <time>2016-03-06T09:56:13Z</time>
      </trkpt>
      <trkpt lat="43.99264" lon="5.18995">
        <ele>437.1</ele>
        <time>2016-03-06T09:56:20Z</time>
      </trkpt>
      <trkpt lat="43.99257" lon="5.18987">
        <ele>436.5</ele>
        <time>2016-03-06T09:56:24Z</time>
      </trkpt>
      <trkpt lat="43.99249" lon="5.18979">
        <ele>435.7</ele>
        <time>2016-03-06T09:56:30Z</time>
      </trkpt>
      <trkpt lat="43.99241" lon="5.18974">
        <ele>434.6</ele>
        <time>2016-03-06T09:56:37Z</time>
      </trkpt>
      <trkpt lat="43.99233" lon="5.18967">
        <ele>433.3</ele>
        <time>2016-03-06T09:56:45Z</time>
      </trkpt>
      <trkpt lat="43.99225" lon="5.18973">
        <ele>431.7</ele>
        <time>2016-03-06T09:56:52Z</time>
      </trkpt>
      <trkpt lat="43.99216" lon="5.18969">
        <ele>430.4</ele>
        <time>2016-03-06T09:56:59Z</time>
      </trkpt>
      <trkpt lat="43.99206" lon="5.18971">
        <ele>429</ele>
        <time>2016-03-06T09:57:07Z</time>
      </trkpt>
      <trkpt lat="43.99196" lon="5.18971">
        <ele>427.6</ele>
        <time>2016-03-06T09:57:13Z</time>
      </trkpt>
      <trkpt lat="43.99189" lon="5.18961">
        <ele>426.7</ele>
        <time>2016-03-06T09:57:18Z</time>
      </trkpt>
      <trkpt lat="43.99183" lon="5.1895">
        <ele>425.9</ele>
        <time>2016-03-06T09:57:22Z</time>
      </trkpt>
      <trkpt lat="43.99173" lon="5.18945">
        <ele>424.9</ele>
        <time>2016-03-06T09:57:28Z</time>
      </trkpt>
      <trkpt lat="43.99163" lon="5.18939">
        <ele>424</ele>
        <time>2016-03-06T09:57:35Z</time>
      </trkpt>
      <trkpt lat="43.99159" lon="5.18927">
        <ele>422.8</ele>
        <time>2016-03-06T09:57:42Z</time>
      </trkpt>
      <trkpt lat="43.9915" lon="5.1892">
        <ele>420.9</ele>
        <time>2016-03-06T09:57:53Z</time>
      </trkpt>
      <trkpt lat="43.99141" lon="5.18915">
        <ele>419.7</ele>
        <time>2016-03-06T09:58:02Z</time>
      </trkpt>
      <trkpt lat="43.99133" lon="5.18907">
        <ele>418.8</ele>
        <time>2016-03-06T09:58:11Z</time>
      </trkpt>
      <trkpt lat="43.99126" lon="5.18898">
        <ele>418.4</ele>
        <time>2016-03-06T09:58:16Z</time>
      </trkpt>
      <trkpt lat="43.99119" lon="5.18889">
        <ele>417.9</ele>
        <time>2016-03-06T09:58:21Z</time>
      </trkpt>
      <trkpt lat="43.99113" lon="5.18879">
        <ele>417.3</ele>
        <time>2016-03-06T09:58:27Z</time>
      </trkpt>
      <trkpt lat="43.99108" lon="5.18867">
        <ele>416.7</ele>
        <time>2016-03-06T09:58:34Z</time>
      </trkpt>
      <trkpt lat="43.99105" lon="5.18855">
        <ele>416.1</ele>
        <time>2016-03-06T09:58:39Z</time>
      </trkpt>
      <trkpt lat="43.99102" lon="5.18842">
        <ele>415.4</ele>
        <time>2016-03-06T09:58:45Z</time>
      </trkpt>
      <trkpt lat="43.991" lon="5.1883">
        <ele>415</ele>
        <time>2016-03-06T09:58:50Z</time>
      </trkpt>
      <trkpt lat="43.99097" lon="5.18817">
        <ele>414.3</ele>
        <time>2016-03-06T09:58:55Z</time>
      </trkpt>
      <trkpt lat="43.99093" lon="5.18806">
        <ele>413.5</ele>
        <time>2016-03-06T09:59:02Z</time>
      </trkpt>
      <trkpt lat="43.99087" lon="5.18795">
        <ele>412.5</ele>
        <time>2016-03-06T09:59:09Z</time>
      </trkpt>
      <trkpt lat="43.99081" lon="5.18786">
        <ele>411.5</ele>
        <time>2016-03-06T09:59:16Z</time>
      </trkpt>
      <trkpt lat="43.99074" lon="5.18777">
        <ele>410.3</ele>
        <time>2016-03-06T09:59:24Z</time>
      </trkpt>
      <trkpt lat="43.99066" lon="5.18769">
        <ele>409.2</ele>
        <time>2016-03-06T09:59:32Z</time>
      </trkpt>
      <trkpt lat="43.99058" lon="5.18761">
        <ele>408.3</ele>
        <time>2016-03-06T09:59:39Z</time>
      </trkpt>
      <trkpt lat="43.9905" lon="5.18754">
        <ele>407.3</ele>
        <time>2016-03-06T09:59:48Z</time>
      </trkpt>
      <trkpt lat="43.99042" lon="5.18745">
        <ele>406.7</ele>
        <time>2016-03-06T09:59:55Z</time>
      </trkpt>
      <trkpt lat="43.99035" lon="5.18737">
        <ele>406.3</ele>
        <time>2016-03-06T10:00:00Z</time>
      </trkpt>
      <trkpt lat="43.99027" lon="5.18729">
        <ele>406</ele>
        <time>2016-03-06T10:00:06Z</time>
      </trkpt>
      <trkpt lat="43.99021" lon="5.18719">
        <ele>405.5</ele>
        <time>2016-03-06T10:00:14Z</time>
      </trkpt>
      <trkpt lat="43.99015" lon="5.18707">
        <ele>404.8</ele>
        <time>2016-03-06T10:00:20Z</time>
      </trkpt>
      <trkpt lat="43.99009" lon="5.18697">
        <ele>401</ele>
        <time>2016-03-06T10:02:12Z</time>
      </trkpt>
      <trkpt lat="43.99001" lon="5.18694">
        <ele>400.7</ele>
        <time>2016-03-06T10:02:18Z</time>
      </trkpt>
      <trkpt lat="43.98991" lon="5.18692">
        <ele>399.9</ele>
        <time>2016-03-06T10:02:24Z</time>
      </trkpt>
      <trkpt lat="43.98982" lon="5.18684">
        <ele>399</ele>
        <time>2016-03-06T10:02:30Z</time>
      </trkpt>
      <trkpt lat="43.98974" lon="5.18677">
        <ele>398.1</ele>
        <time>2016-03-06T10:02:35Z</time>
      </trkpt>
      <trkpt lat="43.98966" lon="5.18669">
        <ele>397.3</ele>
        <time>2016-03-06T10:02:39Z</time>
      </trkpt>
      <trkpt lat="43.9896" lon="5.18658">
        <ele>396.4</ele>
        <time>2016-03-06T10:02:44Z</time>
      </trkpt>
      <trkpt lat="43.98952" lon="5.18648">
        <ele>395.5</ele>
        <time>2016-03-06T10:02:50Z</time>
      </trkpt>
      <trkpt lat="43.98949" lon="5.18635">
        <ele>394.9</ele>
        <time>2016-03-06T10:02:55Z</time>
      </trkpt>
      <trkpt lat="43.98945" lon="5.18622">
        <ele>394.3</ele>
        <time>2016-03-06T10:03:00Z</time>
      </trkpt>
      <trkpt lat="43.98939" lon="5.18612">
        <ele>393.6</ele>
        <time>2016-03-06T10:03:05Z</time>
      </trkpt>
      <trkpt lat="43.98935" lon="5.186">
        <ele>392.7</ele>
        <time>2016-03-06T10:03:11Z</time>
      </trkpt>
      <trkpt lat="43.9893" lon="5.18588">
        <ele>392.1</ele>
        <time>2016-03-06T10:03:17Z</time>
      </trkpt>
      <trkpt lat="43.98926" lon="5.18577">
        <ele>391.6</ele>
        <time>2016-03-06T10:03:22Z</time>
      </trkpt>
      <trkpt lat="43.98922" lon="5.18564">
        <ele>391.2</ele>
        <time>2016-03-06T10:03:29Z</time>
      </trkpt>
      <trkpt lat="43.98917" lon="5.18553">
        <ele>390.9</ele>
        <time>2016-03-06T10:03:33Z</time>
      </trkpt>
      <trkpt lat="43.98913" lon="5.1854">
        <ele>390.6</ele>
        <time>2016-03-06T10:03:40Z</time>
      </trkpt>
      <trkpt lat="43.98909" lon="5.18528">
        <ele>390.5</ele>
        <time>2016-03-06T10:03:45Z</time>
      </trkpt>
      <trkpt lat="43.98903" lon="5.18516">
        <ele>390.4</ele>
        <time>2016-03-06T10:03:50Z</time>
      </trkpt>
      <trkpt lat="43.98898" lon="5.18503">
        <ele>390</ele>
        <time>2016-03-06T10:03:55Z</time>
      </trkpt>
      <trkpt lat="43.98894" lon="5.1849">
        <ele>389.8</ele>
        <time>2016-03-06T10:04:01Z</time>
      </trkpt>
      <trkpt lat="43.98889" lon="5.18478">
        <ele>389.7</ele>
        <time>2016-03-06T10:04:06Z</time>
      </trkpt>
      <trkpt lat="43.98883" lon="5.18467">
        <ele>389.5</ele>
        <time>2016-03-06T10:04:10Z</time>
      </trkpt>
      <trkpt lat="43.98879" lon="5.18455">
        <ele>389.3</ele>
        <time>2016-03-06T10:04:15Z</time>
      </trkpt>
      <trkpt lat="43.98872" lon="5.18444">
        <ele>389.4</ele>
        <time>2016-03-06T10:04:21Z</time>
      </trkpt>
      <trkpt lat="43.98866" lon="5.18434">
        <ele>389.2</ele>
        <time>2016-03-06T10:04:27Z</time>
      </trkpt>
      <trkpt lat="43.9886" lon="5.18421">
        <ele>389.3</ele>
        <time>2016-03-06T10:04:31Z</time>
      </trkpt>
      <trkpt lat="43.98852" lon="5.18411">
        <ele>389.1</ele>
        <time>2016-03-06T10:04:38Z</time>
      </trkpt>
      <trkpt lat="43.98845" lon="5.18403">
        <ele>388.6</ele>
        <time>2016-03-06T10:04:45Z</time>
      </trkpt>
      <trkpt lat="43.98843" lon="5.1839">
        <ele>387.6</ele>
        <time>2016-03-06T10:04:53Z</time>
      </trkpt>
      <trkpt lat="43.98835" lon="5.1838">
        <ele>387.3</ele>
        <time>2016-03-06T10:05:00Z</time>
      </trkpt>
      <trkpt lat="43.98829" lon="5.18369">
        <ele>387.1</ele>
        <time>2016-03-06T10:05:05Z</time>
      </trkpt>
      <trkpt lat="43.98824" lon="5.18357">
        <ele>386.9</ele>
        <time>2016-03-06T10:05:10Z</time>
      </trkpt>
      <trkpt lat="43.98819" lon="5.18346">
        <ele>386.8</ele>
        <time>2016-03-06T10:05:14Z</time>
      </trkpt>
      <trkpt lat="43.98814" lon="5.18332">
        <ele>386.7</ele>
        <time>2016-03-06T10:05:18Z</time>
      </trkpt>
      <trkpt lat="43.9881" lon="5.18319">
        <ele>386.5</ele>
        <time>2016-03-06T10:05:22Z</time>
      </trkpt>
      <trkpt lat="43.98807" lon="5.18305">
        <ele>386.4</ele>
        <time>2016-03-06T10:05:26Z</time>
      </trkpt>
      <trkpt lat="43.98802" lon="5.18292">
        <ele>386.2</ele>
        <time>2016-03-06T10:05:30Z</time>
      </trkpt>
      <trkpt lat="43.988" lon="5.18278">
        <ele>386</ele>
        <time>2016-03-06T10:05:36Z</time>
      </trkpt>
      <trkpt lat="43.98796" lon="5.18267">
        <ele>385.7</ele>
        <time>2016-03-06T10:05:43Z</time>
      </trkpt>
      <trkpt lat="43.98792" lon="5.18255">
        <ele>385.6</ele>
        <time>2016-03-06T10:05:47Z</time>
      </trkpt>
      <trkpt lat="43.98786" lon="5.18245">
        <ele>385.4</ele>
        <time>2016-03-06T10:05:51Z</time>
      </trkpt>
      <trkpt lat="43.98784" lon="5.18232">
        <ele>385.1</ele>
        <time>2016-03-06T10:05:59Z</time>
      </trkpt>
      <trkpt lat="43.9878" lon="5.18219">
        <ele>384.9</ele>
        <time>2016-03-06T10:06:04Z</time>
      </trkpt>
      <trkpt lat="43.98775" lon="5.18207">
        <ele>384.7</ele>
        <time>2016-03-06T10:06:10Z</time>
      </trkpt>
      <trkpt lat="43.98771" lon="5.18195">
        <ele>384.4</ele>
        <time>2016-03-06T10:06:15Z</time>
      </trkpt>
      <trkpt lat="43.98764" lon="5.18182">
        <ele>384.2</ele>
        <time>2016-03-06T10:06:22Z</time>
      </trkpt>
      <trkpt lat="43.98762" lon="5.18169">
        <ele>384</ele>
        <time>2016-03-06T10:06:28Z</time>
      </trkpt>
      <trkpt lat="43.98764" lon="5.18155">
        <ele>383.8</ele>
        <time>2016-03-06T10:06:34Z</time>
      </trkpt>
      <trkpt lat="43.98762" lon="5.18141">
        <ele>383.7</ele>
        <time>2016-03-06T10:06:39Z</time>
      </trkpt>
      <trkpt lat="43.98758" lon="5.18127">
        <ele>383.4</ele>
        <time>2016-03-06T10:06:45Z</time>
      </trkpt>
      <trkpt lat="43.98755" lon="5.18113">
        <ele>382.8</ele>
        <time>2016-03-06T10:06:51Z</time>
      </trkpt>
      <trkpt lat="43.9875" lon="5.18102">
        <ele>382.3</ele>
        <time>2016-03-06T10:06:56Z</time>
      </trkpt>
      <trkpt lat="43.98747" lon="5.18089">
        <ele>381.5</ele>
        <time>2016-03-06T10:07:04Z</time>
      </trkpt>
      <trkpt lat="43.98744" lon="5.18077">
        <ele>380.6</ele>
        <time>2016-03-06T10:07:20Z</time>
      </trkpt>
      <trkpt lat="43.98742" lon="5.18062">
        <ele>378.6</ele>
        <time>2016-03-06T10:07:58Z</time>
      </trkpt>
      <trkpt lat="43.98739" lon="5.18048">
        <ele>377.7</ele>
        <time>2016-03-06T10:08:07Z</time>
      </trkpt>
      <trkpt lat="43.98734" lon="5.18036">
        <ele>377.2</ele>
        <time>2016-03-06T10:08:13Z</time>
      </trkpt>
      <trkpt lat="43.98732" lon="5.18022">
        <ele>376.5</ele>
        <time>2016-03-06T10:08:18Z</time>
      </trkpt>
      <trkpt lat="43.9873" lon="5.18009">
        <ele>375.9</ele>
        <time>2016-03-06T10:08:24Z</time>
      </trkpt>
      <trkpt lat="43.9873" lon="5.17995">
        <ele>375.1</ele>
        <time>2016-03-06T10:08:31Z</time>
      </trkpt>
      <trkpt lat="43.98727" lon="5.17983">
        <ele>374.7</ele>
        <time>2016-03-06T10:08:37Z</time>
      </trkpt>
      <trkpt lat="43.98723" lon="5.17972">
        <ele>374.5</ele>
        <time>2016-03-06T10:08:41Z</time>
      </trkpt>
      <trkpt lat="43.98718" lon="5.17961">
        <ele>374.2</ele>
        <time>2016-03-06T10:08:45Z</time>
      </trkpt>
      <trkpt lat="43.98716" lon="5.17947">
        <ele>374</ele>
        <time>2016-03-06T10:08:51Z</time>
      </trkpt>
      <trkpt lat="43.98719" lon="5.17933">
        <ele>373.7</ele>
        <time>2016-03-06T10:08:58Z</time>
      </trkpt>
      <trkpt lat="43.98723" lon="5.17922">
        <ele>373.7</ele>
        <time>2016-03-06T10:09:07Z</time>
      </trkpt>
      <trkpt lat="43.9873" lon="5.17912">
        <ele>373.8</ele>
        <time>2016-03-06T10:09:13Z</time>
      </trkpt>
      <trkpt lat="43.98738" lon="5.17904">
        <ele>374.2</ele>
        <time>2016-03-06T10:09:20Z</time>
      </trkpt>
      <trkpt lat="43.98743" lon="5.17893">
        <ele>374.4</ele>
        <time>2016-03-06T10:09:24Z</time>
      </trkpt>
      <trkpt lat="43.98743" lon="5.17879">
        <ele>374.5</ele>
        <time>2016-03-06T10:09:27Z</time>
      </trkpt>
      <trkpt lat="43.98744" lon="5.17865">
        <ele>374.5</ele>
        <time>2016-03-06T10:09:30Z</time>
      </trkpt>
      <trkpt lat="43.98743" lon="5.17852">
        <ele>374.6</ele>
        <time>2016-03-06T10:09:34Z</time>
      </trkpt>
      <trkpt lat="43.98743" lon="5.1784">
        <ele>374.7</ele>
        <time>2016-03-06T10:09:49Z</time>
      </trkpt>
      <trkpt lat="43.9874" lon="5.17825">
        <ele>374.6</ele>
        <time>2016-03-06T10:09:54Z</time>
      </trkpt>
      <trkpt lat="43.98737" lon="5.17812">
        <ele>374</ele>
        <time>2016-03-06T10:10:00Z</time>
      </trkpt>
      <trkpt lat="43.98736" lon="5.17797">
        <ele>373.4</ele>
        <time>2016-03-06T10:10:09Z</time>
      </trkpt>
      <trkpt lat="43.98738" lon="5.17785">
        <ele>372.4</ele>
        <time>2016-03-06T10:10:45Z</time>
      </trkpt>
      <trkpt lat="43.98733" lon="5.17774">
        <ele>371.4</ele>
        <time>2016-03-06T10:11:22Z</time>
      </trkpt>
      <trkpt lat="43.98728" lon="5.17763">
        <ele>371</ele>
        <time>2016-03-06T10:11:34Z</time>
      </trkpt>
      <trkpt lat="43.98723" lon="5.17751">
        <ele>370.7</ele>
        <time>2016-03-06T10:11:41Z</time>
      </trkpt>
      <trkpt lat="43.98722" lon="5.17738">
        <ele>369.9</ele>
        <time>2016-03-06T10:11:52Z</time>
      </trkpt>
      <trkpt lat="43.98721" lon="5.17725">
        <ele>369</ele>
        <time>2016-03-06T10:12:02Z</time>
      </trkpt>
      <trkpt lat="43.9872" lon="5.17712">
        <ele>368.2</ele>
        <time>2016-03-06T10:12:09Z</time>
      </trkpt>
      <trkpt lat="43.98721" lon="5.17699">
        <ele>367.3</ele>
        <time>2016-03-06T10:12:17Z</time>
      </trkpt>
      <trkpt lat="43.98723" lon="5.17685">
        <ele>366.2</ele>
        <time>2016-03-06T10:12:24Z</time>
      </trkpt>
      <trkpt lat="43.98724" lon="5.1767">
        <ele>365.3</ele>
        <time>2016-03-06T10:12:31Z</time>
      </trkpt>
      <trkpt lat="43.98722" lon="5.17656">
        <ele>364.3</ele>
        <time>2016-03-06T10:12:37Z</time>
      </trkpt>
      <trkpt lat="43.98721" lon="5.17643">
        <ele>362.9</ele>
        <time>2016-03-06T10:12:44Z</time>
      </trkpt>
      <trkpt lat="43.9872" lon="5.17629">
        <ele>361.6</ele>
        <time>2016-03-06T10:12:50Z</time>
      </trkpt>
      <trkpt lat="43.9872" lon="5.17616">
        <ele>360.5</ele>
        <time>2016-03-06T10:12:55Z</time>
      </trkpt>
      <trkpt lat="43.98718" lon="5.17604">
        <ele>359.4</ele>
        <time>2016-03-06T10:12:59Z</time>
      </trkpt>
      <trkpt lat="43.9872" lon="5.1759">
        <ele>357.9</ele>
        <time>2016-03-06T10:13:05Z</time>
      </trkpt>
      <trkpt lat="43.98716" lon="5.17578">
        <ele>355.4</ele>
        <time>2016-03-06T10:13:13Z</time>
      </trkpt>
      <trkpt lat="43.98708" lon="5.17568">
        <ele>353.1</ele>
        <time>2016-03-06T10:13:20Z</time>
      </trkpt>
      <trkpt lat="43.98701" lon="5.17562">
        <ele>351.5</ele>
        <time>2016-03-06T10:13:26Z</time>
      </trkpt>
      <trkpt lat="43.98693" lon="5.17554">
        <ele>349.8</ele>
        <time>2016-03-06T10:13:33Z</time>
      </trkpt>
      <trkpt lat="43.9869" lon="5.17542">
        <ele>348</ele>
        <time>2016-03-06T10:13:40Z</time>
      </trkpt>
      <trkpt lat="43.98691" lon="5.17529">
        <ele>346.5</ele>
        <time>2016-03-06T10:13:45Z</time>
      </trkpt>
      <trkpt lat="43.98692" lon="5.17516">
        <ele>344.5</ele>
        <time>2016-03-06T10:13:51Z</time>
      </trkpt>
      <trkpt lat="43.98691" lon="5.17503">
        <ele>343</ele>
        <time>2016-03-06T10:13:56Z</time>
      </trkpt>
      <trkpt lat="43.98686" lon="5.1749">
        <ele>341.8</ele>
        <time>2016-03-06T10:14:00Z</time>
      </trkpt>
      <trkpt lat="43.98686" lon="5.17477">
        <ele>340.5</ele>
        <time>2016-03-06T10:14:05Z</time>
      </trkpt>
      <trkpt lat="43.98685" lon="5.17463">
        <ele>339.3</ele>
        <time>2016-03-06T10:14:11Z</time>
      </trkpt>
      <trkpt lat="43.98682" lon="5.17449">
        <ele>337.9</ele>
        <time>2016-03-06T10:14:18Z</time>
      </trkpt>
      <trkpt lat="43.98682" lon="5.17436">
        <ele>336.8</ele>
        <time>2016-03-06T10:14:25Z</time>
      </trkpt>
      <trkpt lat="43.98681" lon="5.17422">
        <ele>334.9</ele>
        <time>2016-03-06T10:14:33Z</time>
      </trkpt>
      <trkpt lat="43.9868" lon="5.17409">
        <ele>334</ele>
        <time>2016-03-06T10:14:37Z</time>
      </trkpt>
      <trkpt lat="43.98678" lon="5.17396">
        <ele>332.8</ele>
        <time>2016-03-06T10:14:42Z</time>
      </trkpt>
      <trkpt lat="43.98681" lon="5.17383">
        <ele>330.5</ele>
        <time>2016-03-06T10:14:52Z</time>
      </trkpt>
      <trkpt lat="43.98681" lon="5.1737">
        <ele>329.1</ele>
        <time>2016-03-06T10:14:58Z</time>
      </trkpt>
      <trkpt lat="43.98681" lon="5.17355">
        <ele>327</ele>
        <time>2016-03-06T10:15:08Z</time>
      </trkpt>
      <trkpt lat="43.98678" lon="5.17341">
        <ele>326.1</ele>
        <time>2016-03-06T10:15:12Z</time>
      </trkpt>
      <trkpt lat="43.98674" lon="5.17328">
        <ele>324.9</ele>
        <time>2016-03-06T10:15:18Z</time>
      </trkpt>
      <trkpt lat="43.98675" lon="5.17315">
        <ele>323.5</ele>
        <time>2016-03-06T10:15:27Z</time>
      </trkpt>
      <trkpt lat="43.98672" lon="5.17301">
        <ele>322.5</ele>
        <time>2016-03-06T10:15:36Z</time>
      </trkpt>
      <trkpt lat="43.98666" lon="5.17292">
        <ele>321.8</ele>
        <time>2016-03-06T10:15:45Z</time>
      </trkpt>
      <trkpt lat="43.98657" lon="5.17288">
        <ele>321.3</ele>
        <time>2016-03-06T10:15:57Z</time>
      </trkpt>
      <trkpt lat="43.98646" lon="5.17289">
        <ele>321</ele>
        <time>2016-03-06T10:16:05Z</time>
      </trkpt>
      <trkpt lat="43.98642" lon="5.17303">
        <ele>320.8</ele>
        <time>2016-03-06T10:16:10Z</time>
      </trkpt>
      <trkpt lat="43.98636" lon="5.17314">
        <ele>320.7</ele>
        <time>2016-03-06T10:16:15Z</time>
      </trkpt>
      <trkpt lat="43.9863" lon="5.17325">
        <ele>320.6</ele>
        <time>2016-03-06T10:16:22Z</time>
      </trkpt>
      <trkpt lat="43.98622" lon="5.17333">
        <ele>320.6</ele>
        <time>2016-03-06T10:16:33Z</time>
      </trkpt>
      <trkpt lat="43.98616" lon="5.17345">
        <ele>320.8</ele>
        <time>2016-03-06T10:16:39Z</time>
      </trkpt>
      <trkpt lat="43.98609" lon="5.17353">
        <ele>321.3</ele>
        <time>2016-03-06T10:16:47Z</time>
      </trkpt>
      <trkpt lat="43.98604" lon="5.17364">
        <ele>321.7</ele>
        <time>2016-03-06T10:16:53Z</time>
      </trkpt>
      <trkpt lat="43.98596" lon="5.17374">
        <ele>321.9</ele>
        <time>2016-03-06T10:16:58Z</time>
      </trkpt>
      <trkpt lat="43.98586" lon="5.17383">
        <ele>322.2</ele>
        <time>2016-03-06T10:17:04Z</time>
      </trkpt>
      <trkpt lat="43.98579" lon="5.17392">
        <ele>323.3</ele>
        <time>2016-03-06T10:17:22Z</time>
      </trkpt>
      <trkpt lat="43.98569" lon="5.17396">
        <ele>323.7</ele>
        <time>2016-03-06T10:17:31Z</time>
      </trkpt>
      <trkpt lat="43.98561" lon="5.17402">
        <ele>323.7</ele>
        <time>2016-03-06T10:17:36Z</time>
      </trkpt>
      <trkpt lat="43.9855" lon="5.17411">
        <ele>323.5</ele>
        <time>2016-03-06T10:17:41Z</time>
      </trkpt>
      <trkpt lat="43.98542" lon="5.17417">
        <ele>323.2</ele>
        <time>2016-03-06T10:17:48Z</time>
      </trkpt>
      <trkpt lat="43.98533" lon="5.17424">
        <ele>323</ele>
        <time>2016-03-06T10:17:53Z</time>
      </trkpt>
      <trkpt lat="43.98524" lon="5.17427">
        <ele>322.3</ele>
        <time>2016-03-06T10:18:00Z</time>
      </trkpt>
      <trkpt lat="43.98514" lon="5.17429">
        <ele>321.7</ele>
        <time>2016-03-06T10:18:07Z</time>
      </trkpt>
      <trkpt lat="43.98504" lon="5.17434">
        <ele>321.3</ele>
        <time>2016-03-06T10:18:13Z</time>
      </trkpt>
      <trkpt lat="43.98497" lon="5.17443">
        <ele>321</ele>
        <time>2016-03-06T10:18:18Z</time>
      </trkpt>
      <trkpt lat="43.98487" lon="5.17443">
        <ele>320.7</ele>
        <time>2016-03-06T10:18:26Z</time>
      </trkpt>
      <trkpt lat="43.98479" lon="5.17435">
        <ele>320.3</ele>
        <time>2016-03-06T10:18:35Z</time>
      </trkpt>
      <trkpt lat="43.98474" lon="5.17424">
        <ele>319.7</ele>
        <time>2016-03-06T10:18:42Z</time>
      </trkpt>
      <trkpt lat="43.98461" lon="5.17408">
        <ele>318</ele>
        <time>2016-03-06T10:19:05Z</time>
      </trkpt>
      <trkpt lat="43.98453" lon="5.174">
        <ele>317.8</ele>
        <time>2016-03-06T10:19:20Z</time>
      </trkpt>
      <trkpt lat="43.98445" lon="5.17395">
        <ele>317.7</ele>
        <time>2016-03-06T10:19:29Z</time>
      </trkpt>
      <trkpt lat="43.98444" lon="5.17382">
        <ele>317.8</ele>
        <time>2016-03-06T10:19:40Z</time>
      </trkpt>
      <trkpt lat="43.98447" lon="5.1737">
        <ele>317.9</ele>
        <time>2016-03-06T10:19:48Z</time>
      </trkpt>
      <trkpt lat="43.98442" lon="5.17359">
        <ele>317.9</ele>
        <time>2016-03-06T10:19:56Z</time>
      </trkpt>
      <trkpt lat="43.98434" lon="5.17349">
        <ele>317.9</ele>
        <time>2016-03-06T10:20:03Z</time>
      </trkpt>
      <trkpt lat="43.98428" lon="5.17339">
        <ele>318.2</ele>
        <time>2016-03-06T10:20:08Z</time>
      </trkpt>
      <trkpt lat="43.98421" lon="5.17329">
        <ele>318.6</ele>
        <time>2016-03-06T10:20:13Z</time>
      </trkpt>
      <trkpt lat="43.98414" lon="5.1732">
        <ele>318.9</ele>
        <time>2016-03-06T10:20:18Z</time>
      </trkpt>
      <trkpt lat="43.98407" lon="5.17309">
        <ele>319.2</ele>
        <time>2016-03-06T10:20:23Z</time>
      </trkpt>
      <trkpt lat="43.98398" lon="5.17302">
        <ele>319.5</ele>
        <time>2016-03-06T10:20:28Z</time>
      </trkpt>
      <trkpt lat="43.98389" lon="5.17295">
        <ele>319.9</ele>
        <time>2016-03-06T10:20:36Z</time>
      </trkpt>
      <trkpt lat="43.98381" lon="5.17285">
        <ele>320.1</ele>
        <time>2016-03-06T10:20:43Z</time>
      </trkpt>
      <trkpt lat="43.9837" lon="5.17283">
        <ele>319.7</ele>
        <time>2016-03-06T10:20:52Z</time>
      </trkpt>
      <trkpt lat="43.98361" lon="5.17281">
        <ele>319.3</ele>
        <time>2016-03-06T10:20:58Z</time>
      </trkpt>
      <trkpt lat="43.98351" lon="5.17277">
        <ele>318.9</ele>
        <time>2016-03-06T10:21:05Z</time>
      </trkpt>
      <trkpt lat="43.98345" lon="5.17263">
        <ele>318.4</ele>
        <time>2016-03-06T10:21:11Z</time>
      </trkpt>
      <trkpt lat="43.98335" lon="5.17261">
        <ele>318</ele>
        <time>2016-03-06T10:21:15Z</time>
      </trkpt>
      <trkpt lat="43.98325" lon="5.17259">
        <ele>317.5</ele>
        <time>2016-03-06T10:21:20Z</time>
      </trkpt>
      <trkpt lat="43.98316" lon="5.17254">
        <ele>317</ele>
        <time>2016-03-06T10:21:27Z</time>
      </trkpt>
      <trkpt lat="43.98307" lon="5.1725">
        <ele>316.6</ele>
        <time>2016-03-06T10:21:35Z</time>
      </trkpt>
      <trkpt lat="43.98298" lon="5.17247">
        <ele>316</ele>
        <time>2016-03-06T10:21:42Z</time>
      </trkpt>
      <trkpt lat="43.98289" lon="5.1724">
        <ele>315.3</ele>
        <time>2016-03-06T10:21:50Z</time>
      </trkpt>
      <trkpt lat="43.98281" lon="5.17233">
        <ele>314.9</ele>
        <time>2016-03-06T10:21:59Z</time>
      </trkpt>
      <trkpt lat="43.98273" lon="5.17228">
        <ele>314.2</ele>
        <time>2016-03-06T10:22:06Z</time>
      </trkpt>
      <trkpt lat="43.98262" lon="5.17224">
        <ele>313.6</ele>
        <time>2016-03-06T10:22:13Z</time>
      </trkpt>
      <trkpt lat="43.98253" lon="5.17223">
        <ele>313.3</ele>
        <time>2016-03-06T10:22:17Z</time>
      </trkpt>
      <trkpt lat="43.98243" lon="5.1722">
        <ele>312.8</ele>
        <time>2016-03-06T10:22:23Z</time>
      </trkpt>
      <trkpt lat="43.98234" lon="5.17216">
        <ele>312.4</ele>
        <time>2016-03-06T10:22:30Z</time>
      </trkpt>
      <trkpt lat="43.98224" lon="5.17213">
        <ele>311.8</ele>
        <time>2016-03-06T10:22:37Z</time>
      </trkpt>
      <trkpt lat="43.98214" lon="5.17211">
        <ele>311</ele>
        <time>2016-03-06T10:22:44Z</time>
      </trkpt>
      <trkpt lat="43.98204" lon="5.17207">
        <ele>310.5</ele>
        <time>2016-03-06T10:22:50Z</time>
      </trkpt>
      <trkpt lat="43.98195" lon="5.17202">
        <ele>309.9</ele>
        <time>2016-03-06T10:22:56Z</time>
      </trkpt>
      <trkpt lat="43.98187" lon="5.17193">
        <ele>309.2</ele>
        <time>2016-03-06T10:23:03Z</time>
      </trkpt>
      <trkpt lat="43.98179" lon="5.17185">
        <ele>308.4</ele>
        <time>2016-03-06T10:23:10Z</time>
      </trkpt>
      <trkpt lat="43.98172" lon="5.17175">
        <ele>307.8</ele>
        <time>2016-03-06T10:23:16Z</time>
      </trkpt>
      <trkpt lat="43.98164" lon="5.17167">
        <ele>307.4</ele>
        <time>2016-03-06T10:23:21Z</time>
      </trkpt>
      <trkpt lat="43.9816" lon="5.17157">
        <ele>307.1</ele>
        <time>2016-03-06T10:23:27Z</time>
      </trkpt>
      <trkpt lat="43.98151" lon="5.1715">
        <ele>306.1</ele>
        <time>2016-03-06T10:23:33Z</time>
      </trkpt>
      <trkpt lat="43.98142" lon="5.17144">
        <ele>305.5</ele>
        <time>2016-03-06T10:23:40Z</time>
      </trkpt>
      <trkpt lat="43.98133" lon="5.17135">
        <ele>305.1</ele>
        <time>2016-03-06T10:23:46Z</time>
      </trkpt>
      <trkpt lat="43.98125" lon="5.17126">
        <ele>304.9</ele>
        <time>2016-03-06T10:23:52Z</time>
      </trkpt>
      <trkpt lat="43.98118" lon="5.17118">
        <ele>304.7</ele>
        <time>2016-03-06T10:23:57Z</time>
      </trkpt>
      <trkpt lat="43.98111" lon="5.17111">
        <ele>304.6</ele>
        <time>2016-03-06T10:24:03Z</time>
      </trkpt>
      <trkpt lat="43.98102" lon="5.17104">
        <ele>304.5</ele>
        <time>2016-03-06T10:24:10Z</time>
      </trkpt>
      <trkpt lat="43.98094" lon="5.17101">
        <ele>304.5</ele>
        <time>2016-03-06T10:24:24Z</time>
      </trkpt>
      <trkpt lat="43.9809" lon="5.17089">
        <ele>304.8</ele>
        <time>2016-03-06T10:24:38Z</time>
      </trkpt>
      <trkpt lat="43.98081" lon="5.17092">
        <ele>304.7</ele>
        <time>2016-03-06T10:24:58Z</time>
      </trkpt>
      <trkpt lat="43.98068" lon="5.17094">
        <ele>304.1</ele>
        <time>2016-03-06T10:25:02Z</time>
      </trkpt>
      <trkpt lat="43.98059" lon="5.17089">
        <ele>303.5</ele>
        <time>2016-03-06T10:25:07Z</time>
      </trkpt>
      <trkpt lat="43.98052" lon="5.17081">
        <ele>302.4</ele>
        <time>2016-03-06T10:25:15Z</time>
      </trkpt>
      <trkpt lat="43.98044" lon="5.17076">
        <ele>300.9</ele>
        <time>2016-03-06T10:25:30Z</time>
      </trkpt>
      <trkpt lat="43.98037" lon="5.17067">
        <ele>299.7</ele>
        <time>2016-03-06T10:25:47Z</time>
      </trkpt>
      <trkpt lat="43.98034" lon="5.17055">
        <ele>299.1</ele>
        <time>2016-03-06T10:25:54Z</time>
      </trkpt>
      <trkpt lat="43.98033" lon="5.17041">
        <ele>296.6</ele>
        <time>2016-03-06T10:26:19Z</time>
      </trkpt>
      <trkpt lat="43.98029" lon="5.17031">
        <ele>293.2</ele>
        <time>2016-03-06T10:26:42Z</time>
      </trkpt>
      <trkpt lat="43.98019" lon="5.17025">
        <ele>291.4</ele>
        <time>2016-03-06T10:26:53Z</time>
      </trkpt>
      <trkpt lat="43.98011" lon="5.1702">
        <ele>290.6</ele>
        <time>2016-03-06T10:26:59Z</time>
      </trkpt>
      <trkpt lat="43.98007" lon="5.17008">
        <ele>288.6</ele>
        <time>2016-03-06T10:27:32Z</time>
      </trkpt>
      <trkpt lat="43.98001" lon="5.17021">
        <ele>288</ele>
        <time>2016-03-06T10:28:57Z</time>
      </trkpt>
      <trkpt lat="43.98001" lon="5.17007">
        <ele>288</ele>
        <time>2016-03-06T10:29:37Z</time>
      </trkpt>
      <trkpt lat="43.97995" lon="5.16996">
        <ele>288</ele>
        <time>2016-03-06T10:29:49Z</time>
      </trkpt>
      <trkpt lat="43.97989" lon="5.16985">
        <ele>287.8</ele>
        <time>2016-03-06T10:30:05Z</time>
      </trkpt>
      <trkpt lat="43.97983" lon="5.16973">
        <ele>286.8</ele>
        <time>2016-03-06T10:30:19Z</time>
      </trkpt>
      <trkpt lat="43.97977" lon="5.16964">
        <ele>285.8</ele>
        <time>2016-03-06T10:30:33Z</time>
      </trkpt>
      <trkpt lat="43.97969" lon="5.16956">
        <ele>285.5</ele>
        <time>2016-03-06T10:30:40Z</time>
      </trkpt>
      <trkpt lat="43.97963" lon="5.16945">
        <ele>285.3</ele>
        <time>2016-03-06T10:30:50Z</time>
      </trkpt>
      <trkpt lat="43.97961" lon="5.1693">
        <ele>284.9</ele>
        <time>2016-03-06T10:30:58Z</time>
      </trkpt>
      <trkpt lat="43.97957" lon="5.16917">
        <ele>284.6</ele>
        <time>2016-03-06T10:31:03Z</time>
      </trkpt>
      <trkpt lat="43.97956" lon="5.16904">
        <ele>284.3</ele>
        <time>2016-03-06T10:31:09Z</time>
      </trkpt>
      <trkpt lat="43.97953" lon="5.16891">
        <ele>284.1</ele>
        <time>2016-03-06T10:31:15Z</time>
      </trkpt>
      <trkpt lat="43.97949" lon="5.16878">
        <ele>283.9</ele>
        <time>2016-03-06T10:31:20Z</time>
      </trkpt>
      <trkpt lat="43.97945" lon="5.16865">
        <ele>283</ele>
        <time>2016-03-06T10:31:29Z</time>
      </trkpt>
      <trkpt lat="43.97938" lon="5.16857">
        <ele>282.5</ele>
        <time>2016-03-06T10:31:34Z</time>
      </trkpt>
      <trkpt lat="43.97939" lon="5.16844">
        <ele>282</ele>
        <time>2016-03-06T10:31:42Z</time>
      </trkpt>
      <trkpt lat="43.97942" lon="5.16831">
        <ele>281.6</ele>
        <time>2016-03-06T10:31:49Z</time>
      </trkpt>
      <trkpt lat="43.97942" lon="5.16818">
        <ele>281.6</ele>
        <time>2016-03-06T10:31:55Z</time>
      </trkpt>
      <trkpt lat="43.97934" lon="5.16808">
        <ele>281.5</ele>
        <time>2016-03-06T10:32:01Z</time>
      </trkpt>
      <trkpt lat="43.97926" lon="5.16799">
        <ele>281.4</ele>
        <time>2016-03-06T10:32:06Z</time>
      </trkpt>
      <trkpt lat="43.97927" lon="5.16786">
        <ele>281.3</ele>
        <time>2016-03-06T10:32:11Z</time>
      </trkpt>
      <trkpt lat="43.97925" lon="5.16773">
        <ele>281.2</ele>
        <time>2016-03-06T10:32:23Z</time>
      </trkpt>
      <trkpt lat="43.9793" lon="5.16763">
        <ele>279.6</ele>
        <time>2016-03-06T10:32:31Z</time>
      </trkpt>
      <trkpt lat="43.97925" lon="5.16751">
        <ele>279.5</ele>
        <time>2016-03-06T10:32:37Z</time>
      </trkpt>
      <trkpt lat="43.97925" lon="5.16737">
        <ele>279.2</ele>
        <time>2016-03-06T10:32:46Z</time>
      </trkpt>
      <trkpt lat="43.97925" lon="5.16723">
        <ele>279.1</ele>
        <time>2016-03-06T10:32:53Z</time>
      </trkpt>
      <trkpt lat="43.97928" lon="5.16709">
        <ele>279</ele>
        <time>2016-03-06T10:32:59Z</time>
      </trkpt>
      <trkpt lat="43.97932" lon="5.16695">
        <ele>279</ele>
        <time>2016-03-06T10:33:04Z</time>
      </trkpt>
      <trkpt lat="43.97935" lon="5.16683">
        <ele>278.7</ele>
        <time>2016-03-06T10:33:09Z</time>
      </trkpt>
      <trkpt lat="43.97936" lon="5.16669">
        <ele>278.3</ele>
        <time>2016-03-06T10:33:15Z</time>
      </trkpt>
      <trkpt lat="43.97935" lon="5.16654">
        <ele>278.2</ele>
        <time>2016-03-06T10:33:19Z</time>
      </trkpt>
      <trkpt lat="43.97934" lon="5.16641">
        <ele>277.5</ele>
        <time>2016-03-06T10:33:25Z</time>
      </trkpt>
      <trkpt lat="43.9793" lon="5.16627">
        <ele>276.9</ele>
        <time>2016-03-06T10:33:31Z</time>
      </trkpt>
      <trkpt lat="43.97921" lon="5.16618">
        <ele>276.4</ele>
        <time>2016-03-06T10:33:37Z</time>
      </trkpt>
      <trkpt lat="43.97913" lon="5.16611">
        <ele>275.4</ele>
        <time>2016-03-06T10:33:47Z</time>
      </trkpt>
      <trkpt lat="43.97904" lon="5.16605">
        <ele>274.7</ele>
        <time>2016-03-06T10:33:57Z</time>
      </trkpt>
      <trkpt lat="43.97897" lon="5.16596">
        <ele>274.5</ele>
        <time>2016-03-06T10:34:03Z</time>
      </trkpt>
      <trkpt lat="43.97888" lon="5.16593">
        <ele>274.3</ele>
        <time>2016-03-06T10:34:10Z</time>
      </trkpt>
      <trkpt lat="43.97881" lon="5.16585">
        <ele>274.2</ele>
        <time>2016-03-06T10:34:14Z</time>
      </trkpt>
      <trkpt lat="43.97875" lon="5.16575">
        <ele>273.8</ele>
        <time>2016-03-06T10:34:21Z</time>
      </trkpt>
      <trkpt lat="43.97867" lon="5.16568">
        <ele>273.5</ele>
        <time>2016-03-06T10:34:25Z</time>
      </trkpt>
      <trkpt lat="43.97859" lon="5.16561">
        <ele>273.1</ele>
        <time>2016-03-06T10:34:32Z</time>
      </trkpt>
      <trkpt lat="43.97852" lon="5.1655">
        <ele>272.8</ele>
        <time>2016-03-06T10:34:38Z</time>
      </trkpt>
      <trkpt lat="43.97847" lon="5.16537">
        <ele>272.6</ele>
        <time>2016-03-06T10:34:44Z</time>
      </trkpt>
      <trkpt lat="43.97842" lon="5.16526">
        <ele>272.5</ele>
        <time>2016-03-06T10:34:49Z</time>
      </trkpt>
      <trkpt lat="43.97836" lon="5.16516">
        <ele>272.2</ele>
        <time>2016-03-06T10:34:56Z</time>
      </trkpt>
      <trkpt lat="43.97831" lon="5.16504">
        <ele>271.4</ele>
        <time>2016-03-06T10:35:03Z</time>
      </trkpt>
      <trkpt lat="43.9783" lon="5.16491">
        <ele>271.2</ele>
        <time>2016-03-06T10:35:10Z</time>
      </trkpt>
      <trkpt lat="43.97834" lon="5.16478">
        <ele>271.1</ele>
        <time>2016-03-06T10:35:15Z</time>
      </trkpt>
      <trkpt lat="43.97834" lon="5.16464">
        <ele>270.8</ele>
        <time>2016-03-06T10:35:22Z</time>
      </trkpt>
      <trkpt lat="43.97836" lon="5.1645">
        <ele>270.6</ele>
        <time>2016-03-06T10:35:28Z</time>
      </trkpt>
      <trkpt lat="43.97835" lon="5.16437">
        <ele>270.4</ele>
        <time>2016-03-06T10:35:34Z</time>
      </trkpt>
      <trkpt lat="43.97839" lon="5.16425">
        <ele>270.4</ele>
        <time>2016-03-06T10:35:44Z</time>
      </trkpt>
      <trkpt lat="43.97833" lon="5.16416">
        <ele>271.2</ele>
        <time>2016-03-06T10:36:09Z</time>
      </trkpt>
      <trkpt lat="43.97829" lon="5.16404">
        <ele>271.3</ele>
        <time>2016-03-06T10:36:21Z</time>
      </trkpt>
      <trkpt lat="43.9783" lon="5.16391">
        <ele>271.3</ele>
        <time>2016-03-06T10:36:27Z</time>
      </trkpt>
      <trkpt lat="43.97823" lon="5.1638">
        <ele>270.7</ele>
        <time>2016-03-06T10:36:39Z</time>
      </trkpt>
      <trkpt lat="43.97823" lon="5.16365">
        <ele>270.2</ele>
        <time>2016-03-06T10:36:45Z</time>
      </trkpt>
      <trkpt lat="43.97821" lon="5.16352">
        <ele>269.4</ele>
        <time>2016-03-06T10:36:51Z</time>
      </trkpt>
      <trkpt lat="43.97817" lon="5.1634">
        <ele>269</ele>
        <time>2016-03-06T10:36:57Z</time>
      </trkpt>
      <trkpt lat="43.97819" lon="5.16328">
        <ele>268.8</ele>
        <time>2016-03-06T10:37:02Z</time>
      </trkpt>
      <trkpt lat="43.97824" lon="5.16317">
        <ele>268.7</ele>
        <time>2016-03-06T10:37:07Z</time>
      </trkpt>
      <trkpt lat="43.97823" lon="5.16303">
        <ele>268.7</ele>
        <time>2016-03-06T10:37:12Z</time>
      </trkpt>
      <trkpt lat="43.97821" lon="5.1629">
        <ele>268.7</ele>
        <time>2016-03-06T10:37:17Z</time>
      </trkpt>
      <trkpt lat="43.97821" lon="5.16277">
        <ele>269.3</ele>
        <time>2016-03-06T10:37:30Z</time>
      </trkpt>
      <trkpt lat="43.97824" lon="5.16264">
        <ele>269.2</ele>
        <time>2016-03-06T10:37:34Z</time>
      </trkpt>
      <trkpt lat="43.97826" lon="5.1625">
        <ele>269.1</ele>
        <time>2016-03-06T10:37:39Z</time>
      </trkpt>
      <trkpt lat="43.9783" lon="5.16239">
        <ele>268.9</ele>
        <time>2016-03-06T10:37:52Z</time>
      </trkpt>
      <trkpt lat="43.97833" lon="5.16227">
        <ele>268.5</ele>
        <time>2016-03-06T10:38:01Z</time>
      </trkpt>
      <trkpt lat="43.97836" lon="5.16214">
        <ele>267.8</ele>
        <time>2016-03-06T10:38:10Z</time>
      </trkpt>
      <trkpt lat="43.97846" lon="5.16207">
        <ele>267.6</ele>
        <time>2016-03-06T10:38:14Z</time>
      </trkpt>
      <trkpt lat="43.97859" lon="5.16204">
        <ele>267.6</ele>
        <time>2016-03-06T10:38:16Z</time>
      </trkpt>
      <trkpt lat="43.97873" lon="5.16204">
        <ele>267.5</ele>
        <time>2016-03-06T10:38:18Z</time>
      </trkpt>
      <trkpt lat="43.97883" lon="5.16203">
        <ele>267.5</ele>
        <time>2016-03-06T10:38:20Z</time>
      </trkpt>
      <trkpt lat="43.97875" lon="5.16194">
        <ele>268</ele>
        <time>2016-03-06T10:38:30Z</time>
      </trkpt>
      <trkpt lat="43.97871" lon="5.16183">
        <ele>268.2</ele>
        <time>2016-03-06T10:38:38Z</time>
      </trkpt>
      <trkpt lat="43.97872" lon="5.1617">
        <ele>268</ele>
        <time>2016-03-06T10:38:45Z</time>
      </trkpt>
      <trkpt lat="43.9787" lon="5.16154">
        <ele>267.8</ele>
        <time>2016-03-06T10:38:49Z</time>
      </trkpt>
      <trkpt lat="43.97869" lon="5.16141">
        <ele>267.8</ele>
        <time>2016-03-06T10:38:53Z</time>
      </trkpt>
      <trkpt lat="43.97866" lon="5.16128">
        <ele>267.7</ele>
        <time>2016-03-06T10:39:00Z</time>
      </trkpt>
      <trkpt lat="43.97869" lon="5.16116">
        <ele>267.8</ele>
        <time>2016-03-06T10:39:07Z</time>
      </trkpt>
      <trkpt lat="43.97873" lon="5.16104">
        <ele>267.7</ele>
        <time>2016-03-06T10:39:16Z</time>
      </trkpt>
      <trkpt lat="43.97873" lon="5.16091">
        <ele>267.4</ele>
        <time>2016-03-06T10:39:25Z</time>
      </trkpt>
      <trkpt lat="43.9787" lon="5.16078">
        <ele>266.9</ele>
        <time>2016-03-06T10:39:34Z</time>
      </trkpt>
      <trkpt lat="43.97861" lon="5.16072">
        <ele>266.7</ele>
        <time>2016-03-06T10:39:40Z</time>
      </trkpt>
      <trkpt lat="43.97857" lon="5.16059">
        <ele>266.7</ele>
        <time>2016-03-06T10:39:47Z</time>
      </trkpt>
      <trkpt lat="43.97854" lon="5.16047">
        <ele>266.9</ele>
        <time>2016-03-06T10:39:54Z</time>
      </trkpt>
      <trkpt lat="43.97846" lon="5.1604">
        <ele>266.9</ele>
        <time>2016-03-06T10:39:59Z</time>
      </trkpt>
      <trkpt lat="43.97838" lon="5.16032">
        <ele>266.7</ele>
        <time>2016-03-06T10:40:07Z</time>
      </trkpt>
      <trkpt lat="43.97829" lon="5.16025">
        <ele>265.9</ele>
        <time>2016-03-06T10:40:17Z</time>
      </trkpt>
      <trkpt lat="43.97821" lon="5.16019">
        <ele>265.4</ele>
        <time>2016-03-06T10:40:23Z</time>
      </trkpt>
      <trkpt lat="43.97809" lon="5.16013">
        <ele>265.3</ele>
        <time>2016-03-06T10:40:25Z</time>
      </trkpt>
      <trkpt lat="43.97804" lon="5.16001">
        <ele>265.2</ele>
        <time>2016-03-06T10:40:30Z</time>
      </trkpt>
      <trkpt lat="43.97799" lon="5.15988">
        <ele>265</ele>
        <time>2016-03-06T10:40:38Z</time>
      </trkpt>
      <trkpt lat="43.97796" lon="5.15976">
        <ele>264.1</ele>
        <time>2016-03-06T10:40:47Z</time>
      </trkpt>
      <trkpt lat="43.97797" lon="5.15962">
        <ele>263.5</ele>
        <time>2016-03-06T10:40:58Z</time>
      </trkpt>
      <trkpt lat="43.97793" lon="5.15949">
        <ele>263</ele>
        <time>2016-03-06T10:41:04Z</time>
      </trkpt>
      <trkpt lat="43.97792" lon="5.15936">
        <ele>262.8</ele>
        <time>2016-03-06T10:41:09Z</time>
      </trkpt>
      <trkpt lat="43.978" lon="5.15924">
        <ele>262.6</ele>
        <time>2016-03-06T10:41:15Z</time>
      </trkpt>
      <trkpt lat="43.97807" lon="5.15917">
        <ele>262.9</ele>
        <time>2016-03-06T10:41:22Z</time>
      </trkpt>
      <trkpt lat="43.97815" lon="5.15911">
        <ele>263.1</ele>
        <time>2016-03-06T10:41:27Z</time>
      </trkpt>
      <trkpt lat="43.97824" lon="5.15904">
        <ele>263.3</ele>
        <time>2016-03-06T10:41:32Z</time>
      </trkpt>
      <trkpt lat="43.97834" lon="5.159">
        <ele>263</ele>
        <time>2016-03-06T10:41:36Z</time>
      </trkpt>
      <trkpt lat="43.97845" lon="5.15893">
        <ele>263.5</ele>
        <time>2016-03-06T10:41:40Z</time>
      </trkpt>
      <trkpt lat="43.97852" lon="5.15886">
        <ele>263.5</ele>
        <time>2016-03-06T10:41:45Z</time>
      </trkpt>
      <trkpt lat="43.9786" lon="5.15878">
        <ele>263.5</ele>
        <time>2016-03-06T10:41:50Z</time>
      </trkpt>
      <trkpt lat="43.97869" lon="5.15875">
        <ele>263.5</ele>
        <time>2016-03-06T10:41:55Z</time>
      </trkpt>
      <trkpt lat="43.97877" lon="5.15869">
        <ele>263.3</ele>
        <time>2016-03-06T10:42:02Z</time>
      </trkpt>
      <trkpt lat="43.97888" lon="5.15864">
        <ele>263.2</ele>
        <time>2016-03-06T10:42:07Z</time>
      </trkpt>
      <trkpt lat="43.97896" lon="5.15857">
        <ele>262.7</ele>
        <time>2016-03-06T10:42:10Z</time>
      </trkpt>
      <trkpt lat="43.97906" lon="5.15851">
        <ele>262.3</ele>
        <time>2016-03-06T10:42:15Z</time>
      </trkpt>
      <trkpt lat="43.97913" lon="5.15842">
        <ele>262</ele>
        <time>2016-03-06T10:42:26Z</time>
      </trkpt>
      <trkpt lat="43.97923" lon="5.15841">
        <ele>262</ele>
        <time>2016-03-06T10:42:31Z</time>
      </trkpt>
      <trkpt lat="43.97932" lon="5.15837">
        <ele>260.7</ele>
        <time>2016-03-06T10:42:44Z</time>
      </trkpt>
      <trkpt lat="43.97941" lon="5.15828">
        <ele>260.6</ele>
        <time>2016-03-06T10:42:48Z</time>
      </trkpt>
      <trkpt lat="43.97945" lon="5.15816">
        <ele>260.5</ele>
        <time>2016-03-06T10:42:55Z</time>
      </trkpt>
      <trkpt lat="43.97941" lon="5.15804">
        <ele>260.4</ele>
        <time>2016-03-06T10:43:01Z</time>
      </trkpt>
      <trkpt lat="43.97944" lon="5.15791">
        <ele>260</ele>
        <time>2016-03-06T10:43:07Z</time>
      </trkpt>
      <trkpt lat="43.97947" lon="5.15779">
        <ele>259.7</ele>
        <time>2016-03-06T10:43:14Z</time>
      </trkpt>
      <trkpt lat="43.97942" lon="5.15768">
        <ele>259.6</ele>
        <time>2016-03-06T10:43:21Z</time>
      </trkpt>
      <trkpt lat="43.9794" lon="5.15755">
        <ele>259.5</ele>
        <time>2016-03-06T10:43:28Z</time>
      </trkpt>
      <trkpt lat="43.97939" lon="5.15741">
        <ele>259</ele>
        <time>2016-03-06T10:43:36Z</time>
      </trkpt>
      <trkpt lat="43.9794" lon="5.15727">
        <ele>258.8</ele>
        <time>2016-03-06T10:43:41Z</time>
      </trkpt>
      <trkpt lat="43.97943" lon="5.15715">
        <ele>258.7</ele>
        <time>2016-03-06T10:43:45Z</time>
      </trkpt>
      <trkpt lat="43.97948" lon="5.15703">
        <ele>258.8</ele>
        <time>2016-03-06T10:43:52Z</time>
      </trkpt>
      <trkpt lat="43.9795" lon="5.15689">
        <ele>259.3</ele>
        <time>2016-03-06T10:43:59Z</time>
      </trkpt>
      <trkpt lat="43.97955" lon="5.15676">
        <ele>260</ele>
        <time>2016-03-06T10:44:08Z</time>
      </trkpt>
      <trkpt lat="43.97958" lon="5.15663">
        <ele>260.3</ele>
        <time>2016-03-06T10:44:13Z</time>
      </trkpt>
      <trkpt lat="43.97966" lon="5.15653">
        <ele>260.7</ele>
        <time>2016-03-06T10:44:20Z</time>
      </trkpt>
      <trkpt lat="43.97972" lon="5.15643">
        <ele>260.8</ele>
        <time>2016-03-06T10:44:27Z</time>
      </trkpt>
      <trkpt lat="43.97979" lon="5.15627">
        <ele>262</ele>
        <time>2016-03-06T10:45:00Z</time>
      </trkpt>
      <trkpt lat="43.97987" lon="5.1562">
        <ele>262.2</ele>
        <time>2016-03-06T10:45:06Z</time>
      </trkpt>
      <trkpt lat="43.97995" lon="5.15614">
        <ele>262.4</ele>
        <time>2016-03-06T10:45:13Z</time>
      </trkpt>
      <trkpt lat="43.98007" lon="5.15612">
        <ele>263.1</ele>
        <time>2016-03-06T10:45:22Z</time>
      </trkpt>
      <trkpt lat="43.98016" lon="5.15612">
        <ele>263.1</ele>
        <time>2016-03-06T10:45:25Z</time>
      </trkpt>
      <trkpt lat="43.98027" lon="5.15611">
        <ele>263.3</ele>
        <time>2016-03-06T10:45:27Z</time>
      </trkpt>
      <trkpt lat="43.98036" lon="5.15609">
        <ele>263.3</ele>
        <time>2016-03-06T10:45:28Z</time>
      </trkpt>
      <trkpt lat="43.98047" lon="5.15609">
        <ele>263.3</ele>
        <time>2016-03-06T10:45:30Z</time>
      </trkpt>
      <trkpt lat="43.98057" lon="5.15606">
        <ele>263.6</ele>
        <time>2016-03-06T10:45:36Z</time>
      </trkpt>
      <trkpt lat="43.98067" lon="5.15607">
        <ele>263.7</ele>
        <time>2016-03-06T10:45:39Z</time>
      </trkpt>
      <trkpt lat="43.98076" lon="5.15605">
        <ele>263.8</ele>
        <time>2016-03-06T10:45:41Z</time>
      </trkpt>
      <trkpt lat="43.9807" lon="5.15595">
        <ele>263.8</ele>
        <time>2016-03-06T10:45:50Z</time>
      </trkpt>
      <trkpt lat="43.98074" lon="5.15582">
        <ele>263.8</ele>
        <time>2016-03-06T10:46:03Z</time>
      </trkpt>
      <trkpt lat="43.98077" lon="5.15568">
        <ele>263.9</ele>
        <time>2016-03-06T10:46:10Z</time>
      </trkpt>
      <trkpt lat="43.9808" lon="5.15553">
        <ele>263.8</ele>
        <time>2016-03-06T10:46:17Z</time>
      </trkpt>
      <trkpt lat="43.98089" lon="5.15544">
        <ele>263.7</ele>
        <time>2016-03-06T10:46:22Z</time>
      </trkpt>
      <trkpt lat="43.98099" lon="5.15539">
        <ele>263.7</ele>
        <time>2016-03-06T10:46:26Z</time>
      </trkpt>
      <trkpt lat="43.98106" lon="5.1553">
        <ele>263.8</ele>
        <time>2016-03-06T10:46:33Z</time>
      </trkpt>
      <trkpt lat="43.9811" lon="5.15517">
        <ele>263.9</ele>
        <time>2016-03-06T10:46:40Z</time>
      </trkpt>
      <trkpt lat="43.98119" lon="5.1551">
        <ele>264</ele>
        <time>2016-03-06T10:46:45Z</time>
      </trkpt>
      <trkpt lat="43.98128" lon="5.15503">
        <ele>264</ele>
        <time>2016-03-06T10:46:48Z</time>
      </trkpt>
      <trkpt lat="43.98136" lon="5.15496">
        <ele>264.1</ele>
        <time>2016-03-06T10:46:53Z</time>
      </trkpt>
      <trkpt lat="43.98145" lon="5.15489">
        <ele>264.3</ele>
        <time>2016-03-06T10:46:59Z</time>
      </trkpt>
      <trkpt lat="43.98156" lon="5.15482">
        <ele>264.4</ele>
        <time>2016-03-06T10:47:04Z</time>
      </trkpt>
      <trkpt lat="43.98164" lon="5.15476">
        <ele>264.2</ele>
        <time>2016-03-06T10:47:09Z</time>
      </trkpt>
      <trkpt lat="43.98171" lon="5.15468">
        <ele>264</ele>
        <time>2016-03-06T10:47:14Z</time>
      </trkpt>
      <trkpt lat="43.98173" lon="5.15455">
        <ele>264.1</ele>
        <time>2016-03-06T10:47:23Z</time>
      </trkpt>
      <trkpt lat="43.98178" lon="5.15444">
        <ele>263.7</ele>
        <time>2016-03-06T10:47:36Z</time>
      </trkpt>
      <trkpt lat="43.98187" lon="5.15444">
        <ele>263.7</ele>
        <time>2016-03-06T10:47:42Z</time>
      </trkpt>
      <trkpt lat="43.98198" lon="5.15442">
        <ele>263.7</ele>
        <time>2016-03-06T10:47:48Z</time>
      </trkpt>
      <trkpt lat="43.98208" lon="5.15441">
        <ele>263.6</ele>
        <time>2016-03-06T10:47:54Z</time>
      </trkpt>
      <trkpt lat="43.98216" lon="5.15438">
        <ele>263.2</ele>
        <time>2016-03-06T10:48:00Z</time>
      </trkpt>
      <trkpt lat="43.98226" lon="5.15437">
        <ele>263</ele>
        <time>2016-03-06T10:48:07Z</time>
      </trkpt>
      <trkpt lat="43.98236" lon="5.15435">
        <ele>263</ele>
        <time>2016-03-06T10:48:14Z</time>
      </trkpt>
      <trkpt lat="43.98231" lon="5.15423">
        <ele>262.9</ele>
        <time>2016-03-06T10:48:28Z</time>
      </trkpt>
      <trkpt lat="43.98221" lon="5.1542">
        <ele>264</ele>
        <time>2016-03-06T10:48:35Z</time>
      </trkpt>
      <trkpt lat="43.98213" lon="5.15414">
        <ele>266</ele>
        <time>2016-03-06T10:48:42Z</time>
      </trkpt>
      <trkpt lat="43.98203" lon="5.15411">
        <ele>267.7</ele>
        <time>2016-03-06T10:48:50Z</time>
      </trkpt>
      <trkpt lat="43.98192" lon="5.15412">
        <ele>269.1</ele>
        <time>2016-03-06T10:48:57Z</time>
      </trkpt>
      <trkpt lat="43.98182" lon="5.15412">
        <ele>270.1</ele>
        <time>2016-03-06T10:49:02Z</time>
      </trkpt>
      <trkpt lat="43.98171" lon="5.15412">
        <ele>271.6</ele>
        <time>2016-03-06T10:49:08Z</time>
      </trkpt>
      <trkpt lat="43.98161" lon="5.15412">
        <ele>273.2</ele>
        <time>2016-03-06T10:49:13Z</time>
      </trkpt>
      <trkpt lat="43.98151" lon="5.15414">
        <ele>275.5</ele>
        <time>2016-03-06T10:49:20Z</time>
      </trkpt>
      <trkpt lat="43.98141" lon="5.15415">
        <ele>278.2</ele>
        <time>2016-03-06T10:49:30Z</time>
      </trkpt>
      <trkpt lat="43.98131" lon="5.15419">
        <ele>279.5</ele>
        <time>2016-03-06T10:49:35Z</time>
      </trkpt>
      <trkpt lat="43.98121" lon="5.15421">
        <ele>281.2</ele>
        <time>2016-03-06T10:49:42Z</time>
      </trkpt>
      <trkpt lat="43.98112" lon="5.15421">
        <ele>282.4</ele>
        <time>2016-03-06T10:49:47Z</time>
      </trkpt>
      <trkpt lat="43.98101" lon="5.15422">
        <ele>283.6</ele>
        <time>2016-03-06T10:49:51Z</time>
      </trkpt>
      <trkpt lat="43.98091" lon="5.15425">
        <ele>285</ele>
        <time>2016-03-06T10:49:56Z</time>
      </trkpt>
      <trkpt lat="43.98081" lon="5.15425">
        <ele>287.6</ele>
        <time>2016-03-06T10:50:04Z</time>
      </trkpt>
      <trkpt lat="43.98071" lon="5.15428">
        <ele>290.2</ele>
        <time>2016-03-06T10:50:11Z</time>
      </trkpt>
      <trkpt lat="43.98062" lon="5.15427">
        <ele>293.1</ele>
        <time>2016-03-06T10:50:20Z</time>
      </trkpt>
      <trkpt lat="43.98053" lon="5.15426">
        <ele>295.6</ele>
        <time>2016-03-06T10:50:28Z</time>
      </trkpt>
      <trkpt lat="43.98042" lon="5.15428">
        <ele>297.3</ele>
        <time>2016-03-06T10:50:34Z</time>
      </trkpt>
      <trkpt lat="43.98032" lon="5.15427">
        <ele>299.6</ele>
        <time>2016-03-06T10:50:42Z</time>
      </trkpt>
      <trkpt lat="43.98024" lon="5.15421">
        <ele>303.6</ele>
        <time>2016-03-06T10:50:54Z</time>
      </trkpt>
      <trkpt lat="43.98018" lon="5.15434">
        <ele>305.9</ele>
        <time>2016-03-06T10:51:01Z</time>
      </trkpt>
      <trkpt lat="43.98011" lon="5.15442">
        <ele>308.5</ele>
        <time>2016-03-06T10:51:08Z</time>
      </trkpt>
      <trkpt lat="43.98" lon="5.15446">
        <ele>310</ele>
        <time>2016-03-06T10:51:12Z</time>
      </trkpt>
      <trkpt lat="43.9799" lon="5.15447">
        <ele>311.6</ele>
        <time>2016-03-06T10:51:18Z</time>
      </trkpt>
      <trkpt lat="43.97981" lon="5.15446">
        <ele>313</ele>
        <time>2016-03-06T10:51:24Z</time>
      </trkpt>
      <trkpt lat="43.97973" lon="5.15442">
        <ele>314.5</ele>
        <time>2016-03-06T10:51:30Z</time>
      </trkpt>
      <trkpt lat="43.97963" lon="5.15439">
        <ele>315.9</ele>
        <time>2016-03-06T10:51:35Z</time>
      </trkpt>
      <trkpt lat="43.97955" lon="5.15433">
        <ele>317.7</ele>
        <time>2016-03-06T10:51:43Z</time>
      </trkpt>
      <trkpt lat="43.9795" lon="5.15421">
        <ele>319.2</ele>
        <time>2016-03-06T10:51:50Z</time>
      </trkpt>
      <trkpt lat="43.97944" lon="5.15411">
        <ele>321.2</ele>
        <time>2016-03-06T10:51:57Z</time>
      </trkpt>
      <trkpt lat="43.97935" lon="5.15406">
        <ele>322.2</ele>
        <time>2016-03-06T10:52:01Z</time>
      </trkpt>
      <trkpt lat="43.97926" lon="5.15403">
        <ele>323.3</ele>
        <time>2016-03-06T10:52:07Z</time>
      </trkpt>
      <trkpt lat="43.97916" lon="5.15404">
        <ele>324.3</ele>
        <time>2016-03-06T10:52:15Z</time>
      </trkpt>
      <trkpt lat="43.97907" lon="5.15402">
        <ele>325.7</ele>
        <time>2016-03-06T10:52:23Z</time>
      </trkpt>
      <trkpt lat="43.97897" lon="5.154">
        <ele>327.5</ele>
        <time>2016-03-06T10:52:34Z</time>
      </trkpt>
      <trkpt lat="43.97887" lon="5.15399">
        <ele>329.2</ele>
        <time>2016-03-06T10:52:43Z</time>
      </trkpt>
      <trkpt lat="43.97878" lon="5.15395">
        <ele>330.6</ele>
        <time>2016-03-06T10:52:50Z</time>
      </trkpt>
      <trkpt lat="43.97869" lon="5.1539">
        <ele>331.9</ele>
        <time>2016-03-06T10:52:55Z</time>
      </trkpt>
      <trkpt lat="43.97859" lon="5.15384">
        <ele>333.3</ele>
        <time>2016-03-06T10:53:00Z</time>
      </trkpt>
      <trkpt lat="43.97848" lon="5.15387">
        <ele>334.3</ele>
        <time>2016-03-06T10:53:04Z</time>
      </trkpt>
      <trkpt lat="43.97839" lon="5.15387">
        <ele>336.3</ele>
        <time>2016-03-06T10:53:11Z</time>
      </trkpt>
      <trkpt lat="43.97828" lon="5.15386">
        <ele>339.4</ele>
        <time>2016-03-06T10:53:22Z</time>
      </trkpt>
      <trkpt lat="43.97821" lon="5.15377">
        <ele>342.9</ele>
        <time>2016-03-06T10:53:32Z</time>
      </trkpt>
      <trkpt lat="43.97812" lon="5.15372">
        <ele>346.9</ele>
        <time>2016-03-06T10:53:45Z</time>
      </trkpt>
      <trkpt lat="43.97802" lon="5.15367">
        <ele>349.1</ele>
        <time>2016-03-06T10:53:52Z</time>
      </trkpt>
      <trkpt lat="43.9779" lon="5.15367">
        <ele>350.8</ele>
        <time>2016-03-06T10:53:57Z</time>
      </trkpt>
      <trkpt lat="43.97781" lon="5.15368">
        <ele>353.2</ele>
        <time>2016-03-06T10:54:05Z</time>
      </trkpt>
      <trkpt lat="43.97781" lon="5.1535">
        <ele>356.7</ele>
        <time>2016-03-06T10:54:17Z</time>
      </trkpt>
      <trkpt lat="43.97781" lon="5.15337">
        <ele>358.6</ele>
        <time>2016-03-06T10:54:23Z</time>
      </trkpt>
      <trkpt lat="43.97779" lon="5.15324">
        <ele>361.7</ele>
        <time>2016-03-06T10:54:33Z</time>
      </trkpt>
      <trkpt lat="43.97772" lon="5.15314">
        <ele>363.4</ele>
        <time>2016-03-06T10:54:39Z</time>
      </trkpt>
      <trkpt lat="43.97765" lon="5.15304">
        <ele>365.4</ele>
        <time>2016-03-06T10:54:45Z</time>
      </trkpt>
      <trkpt lat="43.97757" lon="5.15296">
        <ele>367.9</ele>
        <time>2016-03-06T10:54:51Z</time>
      </trkpt>
      <trkpt lat="43.9775" lon="5.15286">
        <ele>371.3</ele>
        <time>2016-03-06T10:55:00Z</time>
      </trkpt>
      <trkpt lat="43.97745" lon="5.15275">
        <ele>373.5</ele>
        <time>2016-03-06T10:55:06Z</time>
      </trkpt>
      <trkpt lat="43.97741" lon="5.15264">
        <ele>375.9</ele>
        <time>2016-03-06T10:55:12Z</time>
      </trkpt>
      <trkpt lat="43.97734" lon="5.15254">
        <ele>378.6</ele>
        <time>2016-03-06T10:55:19Z</time>
      </trkpt>
      <trkpt lat="43.97728" lon="5.15245">
        <ele>384.2</ele>
        <time>2016-03-06T10:55:36Z</time>
      </trkpt>
      <trkpt lat="43.97719" lon="5.15239">
        <ele>386.4</ele>
        <time>2016-03-06T10:55:42Z</time>
      </trkpt>
      <trkpt lat="43.97712" lon="5.15229">
        <ele>388.2</ele>
        <time>2016-03-06T10:55:48Z</time>
      </trkpt>
      <trkpt lat="43.97706" lon="5.15212">
        <ele>397.4</ele>
        <time>2016-03-06T10:57:47Z</time>
      </trkpt>
      <trkpt lat="43.97698" lon="5.15198">
        <ele>398</ele>
        <time>2016-03-06T10:58:01Z</time>
      </trkpt>
      <trkpt lat="43.97689" lon="5.15192">
        <ele>398.6</ele>
        <time>2016-03-06T10:58:10Z</time>
      </trkpt>
      <trkpt lat="43.97679" lon="5.15186">
        <ele>399</ele>
        <time>2016-03-06T10:58:16Z</time>
      </trkpt>
      <trkpt lat="43.9767" lon="5.15184">
        <ele>399.9</ele>
        <time>2016-03-06T10:58:24Z</time>
      </trkpt>
      <trkpt lat="43.97661" lon="5.15178">
        <ele>401.7</ele>
        <time>2016-03-06T10:58:34Z</time>
      </trkpt>
      <trkpt lat="43.97652" lon="5.15175">
        <ele>404.5</ele>
        <time>2016-03-06T10:58:48Z</time>
      </trkpt>
      <trkpt lat="43.97646" lon="5.15165">
        <ele>405.5</ele>
        <time>2016-03-06T10:58:52Z</time>
      </trkpt>
      <trkpt lat="43.97637" lon="5.15158">
        <ele>407.5</ele>
        <time>2016-03-06T10:58:59Z</time>
      </trkpt>
      <trkpt lat="43.97628" lon="5.15163">
        <ele>411.4</ele>
        <time>2016-03-06T10:59:15Z</time>
      </trkpt>
      <trkpt lat="43.97619" lon="5.15162">
        <ele>419.4</ele>
        <time>2016-03-06T11:00:09Z</time>
      </trkpt>
      <trkpt lat="43.9761" lon="5.1516">
        <ele>420.8</ele>
        <time>2016-03-06T11:00:17Z</time>
      </trkpt>
      <trkpt lat="43.97602" lon="5.15154">
        <ele>423.8</ele>
        <time>2016-03-06T11:00:33Z</time>
      </trkpt>
      <trkpt lat="43.97593" lon="5.15159">
        <ele>426.7</ele>
        <time>2016-03-06T11:00:55Z</time>
      </trkpt>
      <trkpt lat="43.97584" lon="5.15157">
        <ele>428.3</ele>
        <time>2016-03-06T11:01:08Z</time>
      </trkpt>
      <trkpt lat="43.97573" lon="5.15155">
        <ele>430.7</ele>
        <time>2016-03-06T11:01:18Z</time>
      </trkpt>
      <trkpt lat="43.97562" lon="5.15161">
        <ele>435.7</ele>
        <time>2016-03-06T11:01:44Z</time>
      </trkpt>
      <trkpt lat="43.97552" lon="5.15164">
        <ele>438.2</ele>
        <time>2016-03-06T11:01:53Z</time>
      </trkpt>
      <trkpt lat="43.97544" lon="5.15158">
        <ele>441.5</ele>
        <time>2016-03-06T11:02:06Z</time>
      </trkpt>
      <trkpt lat="43.97538" lon="5.15148">
        <ele>446.2</ele>
        <time>2016-03-06T11:02:46Z</time>
      </trkpt>
      <trkpt lat="43.97529" lon="5.15144">
        <ele>447.1</ele>
        <time>2016-03-06T11:02:58Z</time>
      </trkpt>
      <trkpt lat="43.97525" lon="5.15126">
        <ele>447.6</ele>
        <time>2016-03-06T11:03:01Z</time>
      </trkpt>
      <trkpt lat="43.97522" lon="5.15112">
        <ele>448.2</ele>
        <time>2016-03-06T11:03:05Z</time>
      </trkpt>
      <trkpt lat="43.97513" lon="5.1511">
        <ele>450</ele>
        <time>2016-03-06T11:03:16Z</time>
      </trkpt>
      <trkpt lat="43.97504" lon="5.15114">
        <ele>455.7</ele>
        <time>2016-03-06T11:04:19Z</time>
      </trkpt>
      <trkpt lat="43.97495" lon="5.15108">
        <ele>457.3</ele>
        <time>2016-03-06T11:04:53Z</time>
      </trkpt>
      <trkpt lat="43.97484" lon="5.1511">
        <ele>458.3</ele>
        <time>2016-03-06T11:05:17Z</time>
      </trkpt>
      <trkpt lat="43.97475" lon="5.15111">
        <ele>458.8</ele>
        <time>2016-03-06T11:05:28Z</time>
      </trkpt>
      <trkpt lat="43.97468" lon="5.15121">
        <ele>460.3</ele>
        <time>2016-03-06T11:05:44Z</time>
      </trkpt>
      <trkpt lat="43.97459" lon="5.1512">
        <ele>461.6</ele>
        <time>2016-03-06T11:05:54Z</time>
      </trkpt>
      <trkpt lat="43.97452" lon="5.15111">
        <ele>463.4</ele>
        <time>2016-03-06T11:06:12Z</time>
      </trkpt>
      <trkpt lat="43.97457" lon="5.151">
        <ele>463.6</ele>
        <time>2016-03-06T11:06:20Z</time>
      </trkpt>
      <trkpt lat="43.9746" lon="5.15086">
        <ele>463.6</ele>
        <time>2016-03-06T11:06:27Z</time>
      </trkpt>
      <trkpt lat="43.97467" lon="5.15078">
        <ele>463.4</ele>
        <time>2016-03-06T11:06:35Z</time>
      </trkpt>
      <trkpt lat="43.9747" lon="5.15063">
        <ele>461.7</ele>
        <time>2016-03-06T11:11:39Z</time>
      </trkpt>
      <trkpt lat="43.97477" lon="5.15053">
        <ele>461.5</ele>
        <time>2016-03-06T11:11:46Z</time>
      </trkpt>
      <trkpt lat="43.97479" lon="5.15041">
        <ele>461.2</ele>
        <time>2016-03-06T11:11:57Z</time>
      </trkpt>
      <trkpt lat="43.97485" lon="5.15029">
        <ele>460.9</ele>
        <time>2016-03-06T11:12:06Z</time>
      </trkpt>
      <trkpt lat="43.9749" lon="5.15016">
        <ele>460.7</ele>
        <time>2016-03-06T11:12:12Z</time>
      </trkpt>
      <trkpt lat="43.9749" lon="5.15002">
        <ele>460.3</ele>
        <time>2016-03-06T11:12:19Z</time>
      </trkpt>
      <trkpt lat="43.97491" lon="5.14988">
        <ele>459.7</ele>
        <time>2016-03-06T11:12:26Z</time>
      </trkpt>
      <trkpt lat="43.97494" lon="5.14974">
        <ele>459</ele>
        <time>2016-03-06T11:12:32Z</time>
      </trkpt>
      <trkpt lat="43.97494" lon="5.14961">
        <ele>458</ele>
        <time>2016-03-06T11:12:38Z</time>
      </trkpt>
      <trkpt lat="43.97494" lon="5.14948">
        <ele>456.9</ele>
        <time>2016-03-06T11:12:44Z</time>
      </trkpt>
      <trkpt lat="43.97491" lon="5.14935">
        <ele>455.7</ele>
        <time>2016-03-06T11:12:51Z</time>
      </trkpt>
      <trkpt lat="43.97489" lon="5.14923">
        <ele>454.4</ele>
        <time>2016-03-06T11:12:57Z</time>
      </trkpt>
      <trkpt lat="43.9748" lon="5.14921">
        <ele>452.7</ele>
        <time>2016-03-06T11:13:11Z</time>
      </trkpt>
      <trkpt lat="43.97471" lon="5.14923">
        <ele>452.1</ele>
        <time>2016-03-06T11:13:23Z</time>
      </trkpt>
      <trkpt lat="43.97463" lon="5.14916">
        <ele>452</ele>
        <time>2016-03-06T11:13:33Z</time>
      </trkpt>
      <trkpt lat="43.97453" lon="5.14912">
        <ele>452.2</ele>
        <time>2016-03-06T11:13:41Z</time>
      </trkpt>
      <trkpt lat="43.97447" lon="5.14901">
        <ele>452.7</ele>
        <time>2016-03-06T11:13:48Z</time>
      </trkpt>
      <trkpt lat="43.97442" lon="5.14889">
        <ele>453</ele>
        <time>2016-03-06T11:13:56Z</time>
      </trkpt>
      <trkpt lat="43.97437" lon="5.14878">
        <ele>453.2</ele>
        <time>2016-03-06T11:14:05Z</time>
      </trkpt>
      <trkpt lat="43.97433" lon="5.14866">
        <ele>453.2</ele>
        <time>2016-03-06T11:14:15Z</time>
      </trkpt>
      <trkpt lat="43.97431" lon="5.14852">
        <ele>453</ele>
        <time>2016-03-06T11:14:21Z</time>
      </trkpt>
      <trkpt lat="43.97428" lon="5.1484">
        <ele>452.3</ele>
        <time>2016-03-06T11:14:36Z</time>
      </trkpt>
      <trkpt lat="43.97425" lon="5.14828">
        <ele>451.6</ele>
        <time>2016-03-06T11:14:45Z</time>
      </trkpt>
      <trkpt lat="43.97424" lon="5.14815">
        <ele>450.6</ele>
        <time>2016-03-06T11:14:56Z</time>
      </trkpt>
      <trkpt lat="43.97423" lon="5.14801">
        <ele>449.7</ele>
        <time>2016-03-06T11:15:07Z</time>
      </trkpt>
      <trkpt lat="43.97425" lon="5.14789">
        <ele>449</ele>
        <time>2016-03-06T11:15:14Z</time>
      </trkpt>
      <trkpt lat="43.97426" lon="5.14776">
        <ele>448</ele>
        <time>2016-03-06T11:15:23Z</time>
      </trkpt>
      <trkpt lat="43.97425" lon="5.14763">
        <ele>446.7</ele>
        <time>2016-03-06T11:15:32Z</time>
      </trkpt>
      <trkpt lat="43.97426" lon="5.14749">
        <ele>445.5</ele>
        <time>2016-03-06T11:15:40Z</time>
      </trkpt>
      <trkpt lat="43.97429" lon="5.14737">
        <ele>444.1</ele>
        <time>2016-03-06T11:15:49Z</time>
      </trkpt>
      <trkpt lat="43.97443" lon="5.14725">
        <ele>440</ele>
        <time>2016-03-06T11:16:39Z</time>
      </trkpt>
      <trkpt lat="43.97434" lon="5.14729">
        <ele>439.1</ele>
        <time>2016-03-06T11:16:57Z</time>
      </trkpt>
      <trkpt lat="43.97426" lon="5.14722">
        <ele>437.9</ele>
        <time>2016-03-06T11:17:08Z</time>
      </trkpt>
      <trkpt lat="43.97417" lon="5.14719">
        <ele>436.8</ele>
        <time>2016-03-06T11:17:17Z</time>
      </trkpt>
      <trkpt lat="43.97408" lon="5.14724">
        <ele>434.9</ele>
        <time>2016-03-06T11:17:29Z</time>
      </trkpt>
      <trkpt lat="43.97401" lon="5.14731">
        <ele>433.7</ele>
        <time>2016-03-06T11:17:45Z</time>
      </trkpt>
      <trkpt lat="43.97391" lon="5.14732">
        <ele>431.7</ele>
        <time>2016-03-06T11:18:00Z</time>
      </trkpt>
      <trkpt lat="43.97387" lon="5.14742">
        <ele>430.3</ele>
        <time>2016-03-06T11:18:08Z</time>
      </trkpt>
      <trkpt lat="43.97389" lon="5.14756">
        <ele>429</ele>
        <time>2016-03-06T11:18:15Z</time>
      </trkpt>
      <trkpt lat="43.97391" lon="5.1477">
        <ele>428.1</ele>
        <time>2016-03-06T11:18:22Z</time>
      </trkpt>
      <trkpt lat="43.97391" lon="5.14783">
        <ele>427.6</ele>
        <time>2016-03-06T11:18:29Z</time>
      </trkpt>
      <trkpt lat="43.97391" lon="5.14798">
        <ele>427.4</ele>
        <time>2016-03-06T11:18:36Z</time>
      </trkpt>
      <trkpt lat="43.97393" lon="5.14811">
        <ele>427.4</ele>
        <time>2016-03-06T11:18:43Z</time>
      </trkpt>
      <trkpt lat="43.9739" lon="5.14824">
        <ele>426.9</ele>
        <time>2016-03-06T11:18:50Z</time>
      </trkpt>
      <trkpt lat="43.97388" lon="5.14837">
        <ele>426.7</ele>
        <time>2016-03-06T11:18:57Z</time>
      </trkpt>
      <trkpt lat="43.97386" lon="5.1485">
        <ele>426.4</ele>
        <time>2016-03-06T11:19:07Z</time>
      </trkpt>
      <trkpt lat="43.97382" lon="5.14862">
        <ele>425.8</ele>
        <time>2016-03-06T11:19:16Z</time>
      </trkpt>
      <trkpt lat="43.97379" lon="5.14874">
        <ele>425.2</ele>
        <time>2016-03-06T11:19:23Z</time>
      </trkpt>
      <trkpt lat="43.97375" lon="5.14886">
        <ele>424.2</ele>
        <time>2016-03-06T11:19:30Z</time>
      </trkpt>
      <trkpt lat="43.97376" lon="5.14901">
        <ele>423.7</ele>
        <time>2016-03-06T11:19:33Z</time>
      </trkpt>
      <trkpt lat="43.97372" lon="5.14912">
        <ele>423</ele>
        <time>2016-03-06T11:19:38Z</time>
      </trkpt>
      <trkpt lat="43.97366" lon="5.14922">
        <ele>422.5</ele>
        <time>2016-03-06T11:19:43Z</time>
      </trkpt>
      <trkpt lat="43.97362" lon="5.14934">
        <ele>422.1</ele>
        <time>2016-03-06T11:19:49Z</time>
      </trkpt>
      <trkpt lat="43.97358" lon="5.14945">
        <ele>421.1</ele>
        <time>2016-03-06T11:20:13Z</time>
      </trkpt>
      <trkpt lat="43.97351" lon="5.14955">
        <ele>419.5</ele>
        <time>2016-03-06T11:20:40Z</time>
      </trkpt>
      <trkpt lat="43.97344" lon="5.14964">
        <ele>418.8</ele>
        <time>2016-03-06T11:20:49Z</time>
      </trkpt>
      <trkpt lat="43.97339" lon="5.14975">
        <ele>417.9</ele>
        <time>2016-03-06T11:20:57Z</time>
      </trkpt>
      <trkpt lat="43.97336" lon="5.14987">
        <ele>416.9</ele>
        <time>2016-03-06T11:21:04Z</time>
      </trkpt>
      <trkpt lat="43.9733" lon="5.14997">
        <ele>415.9</ele>
        <time>2016-03-06T11:21:11Z</time>
      </trkpt>
      <trkpt lat="43.97321" lon="5.15003">
        <ele>415</ele>
        <time>2016-03-06T11:21:18Z</time>
      </trkpt>
      <trkpt lat="43.97315" lon="5.15014">
        <ele>414</ele>
        <time>2016-03-06T11:21:25Z</time>
      </trkpt>
      <trkpt lat="43.9731" lon="5.15026">
        <ele>413.2</ele>
        <time>2016-03-06T11:21:32Z</time>
      </trkpt>
      <trkpt lat="43.97303" lon="5.15033">
        <ele>412.5</ele>
        <time>2016-03-06T11:21:39Z</time>
      </trkpt>
      <trkpt lat="43.97294" lon="5.1504">
        <ele>411.7</ele>
        <time>2016-03-06T11:21:46Z</time>
      </trkpt>
      <trkpt lat="43.97285" lon="5.15036">
        <ele>410.2</ele>
        <time>2016-03-06T11:21:57Z</time>
      </trkpt>
      <trkpt lat="43.9729" lon="5.15025">
        <ele>409</ele>
        <time>2016-03-06T11:22:08Z</time>
      </trkpt>
      <trkpt lat="43.97295" lon="5.15014">
        <ele>408.4</ele>
        <time>2016-03-06T11:22:16Z</time>
      </trkpt>
      <trkpt lat="43.97301" lon="5.15004">
        <ele>407.6</ele>
        <time>2016-03-06T11:22:24Z</time>
      </trkpt>
      <trkpt lat="43.97293" lon="5.14997">
        <ele>406.1</ele>
        <time>2016-03-06T11:22:35Z</time>
      </trkpt>
      <trkpt lat="43.97284" lon="5.14991">
        <ele>401.8</ele>
        <time>2016-03-06T11:23:55Z</time>
      </trkpt>
      <trkpt lat="43.9728" lon="5.15005">
        <ele>400.5</ele>
        <time>2016-03-06T11:24:34Z</time>
      </trkpt>
      <trkpt lat="43.97278" lon="5.15018">
        <ele>400</ele>
        <time>2016-03-06T11:24:42Z</time>
      </trkpt>
      <trkpt lat="43.97283" lon="5.15006">
        <ele>396.9</ele>
        <time>2016-03-06T11:25:47Z</time>
      </trkpt>
      <trkpt lat="43.97288" lon="5.14994">
        <ele>396.5</ele>
        <time>2016-03-06T11:25:59Z</time>
      </trkpt>
      <trkpt lat="43.97289" lon="5.15">
        <ele>389.5</ele>
        <time>2016-03-06T11:28:44Z</time>
      </trkpt>
      <trkpt lat="43.97245" lon="5.14989">
        <ele>408</ele>
        <time>2016-03-06T13:19:40Z</time>
      </trkpt>
      <trkpt lat="43.97243" lon="5.14977">
        <ele>407.4</ele>
        <time>2016-03-06T13:20:23Z</time>
      </trkpt>
      <trkpt lat="43.97243" lon="5.14964">
        <ele>407.1</ele>
        <time>2016-03-06T13:20:36Z</time>
      </trkpt>
      <trkpt lat="43.97242" lon="5.14951">
        <ele>406.8</ele>
        <time>2016-03-06T13:20:53Z</time>
      </trkpt>
      <trkpt lat="43.97234" lon="5.14958">
        <ele>406.7</ele>
        <time>2016-03-06T13:21:08Z</time>
      </trkpt>
      <trkpt lat="43.97225" lon="5.14955">
        <ele>406.8</ele>
        <time>2016-03-06T13:21:14Z</time>
      </trkpt>
      <trkpt lat="43.97217" lon="5.14964">
        <ele>407.4</ele>
        <time>2016-03-06T13:21:26Z</time>
      </trkpt>
      <trkpt lat="43.97211" lon="5.14974">
        <ele>407.8</ele>
        <time>2016-03-06T13:21:30Z</time>
      </trkpt>
      <trkpt lat="43.97207" lon="5.14988">
        <ele>408.4</ele>
        <time>2016-03-06T13:21:35Z</time>
      </trkpt>
      <trkpt lat="43.97201" lon="5.14999">
        <ele>409.4</ele>
        <time>2016-03-06T13:21:40Z</time>
      </trkpt>
      <trkpt lat="43.97192" lon="5.15005">
        <ele>410.3</ele>
        <time>2016-03-06T13:21:45Z</time>
      </trkpt>
      <trkpt lat="43.97183" lon="5.15004">
        <ele>411.2</ele>
        <time>2016-03-06T13:21:50Z</time>
      </trkpt>
      <trkpt lat="43.97173" lon="5.15004">
        <ele>412</ele>
        <time>2016-03-06T13:21:55Z</time>
      </trkpt>
      <trkpt lat="43.97169" lon="5.1499">
        <ele>412.8</ele>
        <time>2016-03-06T13:22:00Z</time>
      </trkpt>
      <trkpt lat="43.97172" lon="5.14978">
        <ele>413.5</ele>
        <time>2016-03-06T13:22:04Z</time>
      </trkpt>
      <trkpt lat="43.97174" lon="5.14965">
        <ele>414.1</ele>
        <time>2016-03-06T13:22:08Z</time>
      </trkpt>
      <trkpt lat="43.97177" lon="5.14952">
        <ele>414.9</ele>
        <time>2016-03-06T13:22:14Z</time>
      </trkpt>
      <trkpt lat="43.97181" lon="5.14939">
        <ele>415.3</ele>
        <time>2016-03-06T13:22:21Z</time>
      </trkpt>
      <trkpt lat="43.97179" lon="5.14926">
        <ele>415.7</ele>
        <time>2016-03-06T13:22:29Z</time>
      </trkpt>
      <trkpt lat="43.97174" lon="5.14914">
        <ele>416.4</ele>
        <time>2016-03-06T13:22:35Z</time>
      </trkpt>
      <trkpt lat="43.97173" lon="5.14901">
        <ele>417.4</ele>
        <time>2016-03-06T13:22:42Z</time>
      </trkpt>
      <trkpt lat="43.97171" lon="5.14887">
        <ele>418.4</ele>
        <time>2016-03-06T13:22:50Z</time>
      </trkpt>
      <trkpt lat="43.97173" lon="5.14874">
        <ele>419.1</ele>
        <time>2016-03-06T13:22:55Z</time>
      </trkpt>
      <trkpt lat="43.97174" lon="5.14859">
        <ele>419.1</ele>
        <time>2016-03-06T13:23:00Z</time>
      </trkpt>
      <trkpt lat="43.97178" lon="5.14846">
        <ele>419.1</ele>
        <time>2016-03-06T13:23:06Z</time>
      </trkpt>
      <trkpt lat="43.97176" lon="5.14833">
        <ele>419.7</ele>
        <time>2016-03-06T13:23:12Z</time>
      </trkpt>
      <trkpt lat="43.97175" lon="5.14819">
        <ele>420.4</ele>
        <time>2016-03-06T13:23:18Z</time>
      </trkpt>
      <trkpt lat="43.97176" lon="5.14805">
        <ele>421.1</ele>
        <time>2016-03-06T13:23:25Z</time>
      </trkpt>
      <trkpt lat="43.97177" lon="5.14792">
        <ele>422</ele>
        <time>2016-03-06T13:23:32Z</time>
      </trkpt>
      <trkpt lat="43.97176" lon="5.14777">
        <ele>423</ele>
        <time>2016-03-06T13:23:41Z</time>
      </trkpt>
      <trkpt lat="43.97174" lon="5.14764">
        <ele>423.9</ele>
        <time>2016-03-06T13:23:47Z</time>
      </trkpt>
      <trkpt lat="43.97174" lon="5.14751">
        <ele>424.6</ele>
        <time>2016-03-06T13:23:53Z</time>
      </trkpt>
      <trkpt lat="43.97177" lon="5.14737">
        <ele>425</ele>
        <time>2016-03-06T13:23:58Z</time>
      </trkpt>
      <trkpt lat="43.9718" lon="5.14722">
        <ele>425.8</ele>
        <time>2016-03-06T13:24:03Z</time>
      </trkpt>
      <trkpt lat="43.97184" lon="5.14709">
        <ele>426.7</ele>
        <time>2016-03-06T13:24:08Z</time>
      </trkpt>
      <trkpt lat="43.97189" lon="5.14698">
        <ele>428.1</ele>
        <time>2016-03-06T13:24:15Z</time>
      </trkpt>
      <trkpt lat="43.97195" lon="5.14686">
        <ele>432.3</ele>
        <time>2016-03-06T13:24:37Z</time>
      </trkpt>
      <trkpt lat="43.972" lon="5.14674">
        <ele>433.8</ele>
        <time>2016-03-06T13:24:43Z</time>
      </trkpt>
      <trkpt lat="43.97202" lon="5.1466">
        <ele>435.7</ele>
        <time>2016-03-06T13:24:50Z</time>
      </trkpt>
      <trkpt lat="43.97197" lon="5.14648">
        <ele>438.2</ele>
        <time>2016-03-06T13:25:02Z</time>
      </trkpt>
      <trkpt lat="43.97186" lon="5.14646">
        <ele>439</ele>
        <time>2016-03-06T13:25:07Z</time>
      </trkpt>
      <trkpt lat="43.97176" lon="5.14649">
        <ele>440.2</ele>
        <time>2016-03-06T13:25:14Z</time>
      </trkpt>
      <trkpt lat="43.97166" lon="5.14648">
        <ele>441.4</ele>
        <time>2016-03-06T13:25:22Z</time>
      </trkpt>
      <trkpt lat="43.97156" lon="5.14647">
        <ele>442.2</ele>
        <time>2016-03-06T13:25:28Z</time>
      </trkpt>
      <trkpt lat="43.97146" lon="5.14647">
        <ele>443</ele>
        <time>2016-03-06T13:25:34Z</time>
      </trkpt>
      <trkpt lat="43.97137" lon="5.1465">
        <ele>444.3</ele>
        <time>2016-03-06T13:25:43Z</time>
      </trkpt>
      <trkpt lat="43.9713" lon="5.14658">
        <ele>445.1</ele>
        <time>2016-03-06T13:25:49Z</time>
      </trkpt>
      <trkpt lat="43.9712" lon="5.14656">
        <ele>445.8</ele>
        <time>2016-03-06T13:25:56Z</time>
      </trkpt>
      <trkpt lat="43.97111" lon="5.14654">
        <ele>446.5</ele>
        <time>2016-03-06T13:26:04Z</time>
      </trkpt>
      <trkpt lat="43.97101" lon="5.14652">
        <ele>447.1</ele>
        <time>2016-03-06T13:26:11Z</time>
      </trkpt>
      <trkpt lat="43.97091" lon="5.14652">
        <ele>447.6</ele>
        <time>2016-03-06T13:26:18Z</time>
      </trkpt>
      <trkpt lat="43.97081" lon="5.14649">
        <ele>448.2</ele>
        <time>2016-03-06T13:26:24Z</time>
      </trkpt>
      <trkpt lat="43.97072" lon="5.14648">
        <ele>448.8</ele>
        <time>2016-03-06T13:26:33Z</time>
      </trkpt>
      <trkpt lat="43.97061" lon="5.14648">
        <ele>449.3</ele>
        <time>2016-03-06T13:26:40Z</time>
      </trkpt>
      <trkpt lat="43.97053" lon="5.14641">
        <ele>449.7</ele>
        <time>2016-03-06T13:26:49Z</time>
      </trkpt>
      <trkpt lat="43.97044" lon="5.14635">
        <ele>450</ele>
        <time>2016-03-06T13:26:58Z</time>
      </trkpt>
      <trkpt lat="43.97038" lon="5.14625">
        <ele>450.1</ele>
        <time>2016-03-06T13:27:06Z</time>
      </trkpt>
      <trkpt lat="43.9703" lon="5.14618">
        <ele>450.2</ele>
        <time>2016-03-06T13:27:14Z</time>
      </trkpt>
      <trkpt lat="43.97027" lon="5.14606">
        <ele>450.5</ele>
        <time>2016-03-06T13:27:29Z</time>
      </trkpt>
      <trkpt lat="43.97022" lon="5.14593">
        <ele>451</ele>
        <time>2016-03-06T13:27:41Z</time>
      </trkpt>
      <trkpt lat="43.97016" lon="5.14581">
        <ele>451.5</ele>
        <time>2016-03-06T13:27:55Z</time>
      </trkpt>
      <trkpt lat="43.97012" lon="5.14569">
        <ele>451.8</ele>
        <time>2016-03-06T13:28:02Z</time>
      </trkpt>
      <trkpt lat="43.97006" lon="5.14558">
        <ele>451.7</ele>
        <time>2016-03-06T13:28:10Z</time>
      </trkpt>
      <trkpt lat="43.97001" lon="5.14546">
        <ele>451.5</ele>
        <time>2016-03-06T13:28:19Z</time>
      </trkpt>
      <trkpt lat="43.96995" lon="5.14536">
        <ele>451.4</ele>
        <time>2016-03-06T13:28:26Z</time>
      </trkpt>
      <trkpt lat="43.96991" lon="5.14524">
        <ele>451.3</ele>
        <time>2016-03-06T13:28:33Z</time>
      </trkpt>
      <trkpt lat="43.96986" lon="5.14512">
        <ele>451.2</ele>
        <time>2016-03-06T13:28:41Z</time>
      </trkpt>
      <trkpt lat="43.96981" lon="5.14502">
        <ele>451.4</ele>
        <time>2016-03-06T13:28:49Z</time>
      </trkpt>
      <trkpt lat="43.96978" lon="5.14489">
        <ele>451.8</ele>
        <time>2016-03-06T13:28:58Z</time>
      </trkpt>
      <trkpt lat="43.96976" lon="5.14476">
        <ele>451.8</ele>
        <time>2016-03-06T13:29:08Z</time>
      </trkpt>
      <trkpt lat="43.96974" lon="5.14462">
        <ele>451.5</ele>
        <time>2016-03-06T13:29:15Z</time>
      </trkpt>
      <trkpt lat="43.96969" lon="5.14448">
        <ele>451.2</ele>
        <time>2016-03-06T13:29:20Z</time>
      </trkpt>
      <trkpt lat="43.96967" lon="5.14433">
        <ele>450.7</ele>
        <time>2016-03-06T13:29:24Z</time>
      </trkpt>
      <trkpt lat="43.96962" lon="5.14421">
        <ele>450</ele>
        <time>2016-03-06T13:29:31Z</time>
      </trkpt>
      <trkpt lat="43.96957" lon="5.1441">
        <ele>449.6</ele>
        <time>2016-03-06T13:29:37Z</time>
      </trkpt>
      <trkpt lat="43.96951" lon="5.14398">
        <ele>449.2</ele>
        <time>2016-03-06T13:29:43Z</time>
      </trkpt>
      <trkpt lat="43.96944" lon="5.14387">
        <ele>448.8</ele>
        <time>2016-03-06T13:29:49Z</time>
      </trkpt>
      <trkpt lat="43.96938" lon="5.14377">
        <ele>448.6</ele>
        <time>2016-03-06T13:29:56Z</time>
      </trkpt>
      <trkpt lat="43.96931" lon="5.14367">
        <ele>448.4</ele>
        <time>2016-03-06T13:30:03Z</time>
      </trkpt>
      <trkpt lat="43.96923" lon="5.14358">
        <ele>448.2</ele>
        <time>2016-03-06T13:30:10Z</time>
      </trkpt>
      <trkpt lat="43.96917" lon="5.14347">
        <ele>448.2</ele>
        <time>2016-03-06T13:30:19Z</time>
      </trkpt>
      <trkpt lat="43.9691" lon="5.14336">
        <ele>448.1</ele>
        <time>2016-03-06T13:30:25Z</time>
      </trkpt>
      <trkpt lat="43.96901" lon="5.1433">
        <ele>448.1</ele>
        <time>2016-03-06T13:30:31Z</time>
      </trkpt>
      <trkpt lat="43.96893" lon="5.14324">
        <ele>448.2</ele>
        <time>2016-03-06T13:30:37Z</time>
      </trkpt>
      <trkpt lat="43.96887" lon="5.14314">
        <ele>448.1</ele>
        <time>2016-03-06T13:30:44Z</time>
      </trkpt>
      <trkpt lat="43.96882" lon="5.14303">
        <ele>447.7</ele>
        <time>2016-03-06T13:30:57Z</time>
      </trkpt>
      <trkpt lat="43.96875" lon="5.14292">
        <ele>447.5</ele>
        <time>2016-03-06T13:31:05Z</time>
      </trkpt>
      <trkpt lat="43.96871" lon="5.14281">
        <ele>447.4</ele>
        <time>2016-03-06T13:31:09Z</time>
      </trkpt>
      <trkpt lat="43.96865" lon="5.14269">
        <ele>447.3</ele>
        <time>2016-03-06T13:31:17Z</time>
      </trkpt>
      <trkpt lat="43.96859" lon="5.14259">
        <ele>447.3</ele>
        <time>2016-03-06T13:31:23Z</time>
      </trkpt>
      <trkpt lat="43.96854" lon="5.14246">
        <ele>447.3</ele>
        <time>2016-03-06T13:31:29Z</time>
      </trkpt>
      <trkpt lat="43.9685" lon="5.14234">
        <ele>447.2</ele>
        <time>2016-03-06T13:31:36Z</time>
      </trkpt>
      <trkpt lat="43.96844" lon="5.14223">
        <ele>447.2</ele>
        <time>2016-03-06T13:31:44Z</time>
      </trkpt>
      <trkpt lat="43.96841" lon="5.14211">
        <ele>447.5</ele>
        <time>2016-03-06T13:31:54Z</time>
      </trkpt>
      <trkpt lat="43.96836" lon="5.14199">
        <ele>447.6</ele>
        <time>2016-03-06T13:32:00Z</time>
      </trkpt>
      <trkpt lat="43.9683" lon="5.14188">
        <ele>447.7</ele>
        <time>2016-03-06T13:32:07Z</time>
      </trkpt>
      <trkpt lat="43.96825" lon="5.14177">
        <ele>447.8</ele>
        <time>2016-03-06T13:32:16Z</time>
      </trkpt>
      <trkpt lat="43.96821" lon="5.14164">
        <ele>448</ele>
        <time>2016-03-06T13:32:25Z</time>
      </trkpt>
      <trkpt lat="43.96815" lon="5.14153">
        <ele>448.1</ele>
        <time>2016-03-06T13:32:33Z</time>
      </trkpt>
      <trkpt lat="43.96811" lon="5.14141">
        <ele>448.1</ele>
        <time>2016-03-06T13:32:44Z</time>
      </trkpt>
      <trkpt lat="43.96806" lon="5.1413">
        <ele>448.5</ele>
        <time>2016-03-06T13:32:51Z</time>
      </trkpt>
      <trkpt lat="43.96802" lon="5.14118">
        <ele>448.9</ele>
        <time>2016-03-06T13:32:59Z</time>
      </trkpt>
      <trkpt lat="43.96798" lon="5.14106">
        <ele>449</ele>
        <time>2016-03-06T13:33:06Z</time>
      </trkpt>
      <trkpt lat="43.96794" lon="5.14093">
        <ele>449</ele>
        <time>2016-03-06T13:33:19Z</time>
      </trkpt>
      <trkpt lat="43.96789" lon="5.14081">
        <ele>449</ele>
        <time>2016-03-06T13:33:28Z</time>
      </trkpt>
      <trkpt lat="43.9679" lon="5.14067">
        <ele>449</ele>
        <time>2016-03-06T13:33:38Z</time>
      </trkpt>
      <trkpt lat="43.96794" lon="5.14055">
        <ele>449</ele>
        <time>2016-03-06T13:33:43Z</time>
      </trkpt>
      <trkpt lat="43.96799" lon="5.14043">
        <ele>448.9</ele>
        <time>2016-03-06T13:33:47Z</time>
      </trkpt>
      <trkpt lat="43.96803" lon="5.14031">
        <ele>448.9</ele>
        <time>2016-03-06T13:33:52Z</time>
      </trkpt>
      <trkpt lat="43.96807" lon="5.1402">
        <ele>449</ele>
        <time>2016-03-06T13:33:57Z</time>
      </trkpt>
      <trkpt lat="43.96813" lon="5.14009">
        <ele>449.3</ele>
        <time>2016-03-06T13:34:04Z</time>
      </trkpt>
      <trkpt lat="43.96819" lon="5.14">
        <ele>449.5</ele>
        <time>2016-03-06T13:34:12Z</time>
      </trkpt>
      <trkpt lat="43.96827" lon="5.13992">
        <ele>449.6</ele>
        <time>2016-03-06T13:34:19Z</time>
      </trkpt>
      <trkpt lat="43.96834" lon="5.13983">
        <ele>449.7</ele>
        <time>2016-03-06T13:34:26Z</time>
      </trkpt>
      <trkpt lat="43.96841" lon="5.13974">
        <ele>449.8</ele>
        <time>2016-03-06T13:34:32Z</time>
      </trkpt>
      <trkpt lat="43.96846" lon="5.13962">
        <ele>449.9</ele>
        <time>2016-03-06T13:34:38Z</time>
      </trkpt>
      <trkpt lat="43.9685" lon="5.1395">
        <ele>450.1</ele>
        <time>2016-03-06T13:34:49Z</time>
      </trkpt>
      <trkpt lat="43.9686" lon="5.13947">
        <ele>450</ele>
        <time>2016-03-06T13:34:56Z</time>
      </trkpt>
      <trkpt lat="43.96869" lon="5.13945">
        <ele>450</ele>
        <time>2016-03-06T13:35:02Z</time>
      </trkpt>
      <trkpt lat="43.96878" lon="5.13945">
        <ele>450</ele>
        <time>2016-03-06T13:35:07Z</time>
      </trkpt>
      <trkpt lat="43.96886" lon="5.1394">
        <ele>449.9</ele>
        <time>2016-03-06T13:35:13Z</time>
      </trkpt>
      <trkpt lat="43.96895" lon="5.13935">
        <ele>449.7</ele>
        <time>2016-03-06T13:35:25Z</time>
      </trkpt>
      <trkpt lat="43.96904" lon="5.13932">
        <ele>448.9</ele>
        <time>2016-03-06T13:35:37Z</time>
      </trkpt>
      <trkpt lat="43.96913" lon="5.13931">
        <ele>448.1</ele>
        <time>2016-03-06T13:35:47Z</time>
      </trkpt>
      <trkpt lat="43.96922" lon="5.13927">
        <ele>446.9</ele>
        <time>2016-03-06T13:35:58Z</time>
      </trkpt>
      <trkpt lat="43.96931" lon="5.13922">
        <ele>442.6</ele>
        <time>2016-03-06T13:39:00Z</time>
      </trkpt>
      <trkpt lat="43.96935" lon="5.1391">
        <ele>442.5</ele>
        <time>2016-03-06T13:39:09Z</time>
      </trkpt>
      <trkpt lat="43.96941" lon="5.13901">
        <ele>442.5</ele>
        <time>2016-03-06T13:39:19Z</time>
      </trkpt>
      <trkpt lat="43.9695" lon="5.13896">
        <ele>442.2</ele>
        <time>2016-03-06T13:39:28Z</time>
      </trkpt>
      <trkpt lat="43.96959" lon="5.13892">
        <ele>442</ele>
        <time>2016-03-06T13:39:36Z</time>
      </trkpt>
      <trkpt lat="43.96967" lon="5.13887">
        <ele>441.8</ele>
        <time>2016-03-06T13:39:45Z</time>
      </trkpt>
      <trkpt lat="43.96975" lon="5.13879">
        <ele>441.4</ele>
        <time>2016-03-06T13:39:56Z</time>
      </trkpt>
      <trkpt lat="43.96985" lon="5.13876">
        <ele>440.8</ele>
        <time>2016-03-06T13:40:05Z</time>
      </trkpt>
      <trkpt lat="43.96994" lon="5.13873">
        <ele>440.3</ele>
        <time>2016-03-06T13:40:13Z</time>
      </trkpt>
      <trkpt lat="43.97003" lon="5.13871">
        <ele>439.9</ele>
        <time>2016-03-06T13:40:20Z</time>
      </trkpt>
      <trkpt lat="43.97012" lon="5.13868">
        <ele>439</ele>
        <time>2016-03-06T13:40:32Z</time>
      </trkpt>
      <trkpt lat="43.97022" lon="5.13869">
        <ele>438.2</ele>
        <time>2016-03-06T13:40:42Z</time>
      </trkpt>
      <trkpt lat="43.97032" lon="5.13868">
        <ele>437.4</ele>
        <time>2016-03-06T13:40:50Z</time>
      </trkpt>
      <trkpt lat="43.9704" lon="5.13861">
        <ele>436.9</ele>
        <time>2016-03-06T13:40:57Z</time>
      </trkpt>
      <trkpt lat="43.97049" lon="5.13863">
        <ele>436.6</ele>
        <time>2016-03-06T13:41:04Z</time>
      </trkpt>
      <trkpt lat="43.97058" lon="5.13861">
        <ele>436.3</ele>
        <time>2016-03-06T13:41:14Z</time>
      </trkpt>
      <trkpt lat="43.97067" lon="5.13859">
        <ele>435.9</ele>
        <time>2016-03-06T13:41:20Z</time>
      </trkpt>
      <trkpt lat="43.97077" lon="5.13863">
        <ele>435.4</ele>
        <time>2016-03-06T13:41:27Z</time>
      </trkpt>
      <trkpt lat="43.97085" lon="5.13868">
        <ele>434.5</ele>
        <time>2016-03-06T13:41:37Z</time>
      </trkpt>
      <trkpt lat="43.97094" lon="5.13865">
        <ele>433.6</ele>
        <time>2016-03-06T13:41:47Z</time>
      </trkpt>
      <trkpt lat="43.97104" lon="5.13863">
        <ele>432.5</ele>
        <time>2016-03-06T13:41:55Z</time>
      </trkpt>
      <trkpt lat="43.97114" lon="5.13868">
        <ele>431.6</ele>
        <time>2016-03-06T13:42:02Z</time>
      </trkpt>
      <trkpt lat="43.9712" lon="5.13876">
        <ele>430.8</ele>
        <time>2016-03-06T13:42:08Z</time>
      </trkpt>
      <trkpt lat="43.97127" lon="5.13885">
        <ele>429.9</ele>
        <time>2016-03-06T13:42:16Z</time>
      </trkpt>
      <trkpt lat="43.97134" lon="5.13895">
        <ele>428.5</ele>
        <time>2016-03-06T13:42:26Z</time>
      </trkpt>
      <trkpt lat="43.9714" lon="5.13906">
        <ele>427.1</ele>
        <time>2016-03-06T13:42:34Z</time>
      </trkpt>
      <trkpt lat="43.97149" lon="5.13905">
        <ele>425.6</ele>
        <time>2016-03-06T13:42:43Z</time>
      </trkpt>
      <trkpt lat="43.97157" lon="5.13898">
        <ele>423.9</ele>
        <time>2016-03-06T13:42:51Z</time>
      </trkpt>
      <trkpt lat="43.97166" lon="5.13891">
        <ele>422.1</ele>
        <time>2016-03-06T13:42:59Z</time>
      </trkpt>
      <trkpt lat="43.9717" lon="5.13877">
        <ele>420.4</ele>
        <time>2016-03-06T13:43:07Z</time>
      </trkpt>
      <trkpt lat="43.97169" lon="5.13863">
        <ele>419.6</ele>
        <time>2016-03-06T13:43:12Z</time>
      </trkpt>
      <trkpt lat="43.97162" lon="5.13853">
        <ele>418.8</ele>
        <time>2016-03-06T13:43:18Z</time>
      </trkpt>
      <trkpt lat="43.97155" lon="5.13845">
        <ele>417.9</ele>
        <time>2016-03-06T13:43:25Z</time>
      </trkpt>
      <trkpt lat="43.97148" lon="5.13836">
        <ele>417.2</ele>
        <time>2016-03-06T13:43:31Z</time>
      </trkpt>
      <trkpt lat="43.97141" lon="5.13827">
        <ele>416</ele>
        <time>2016-03-06T13:43:38Z</time>
      </trkpt>
      <trkpt lat="43.97136" lon="5.13812">
        <ele>415.2</ele>
        <time>2016-03-06T13:43:44Z</time>
      </trkpt>
      <trkpt lat="43.9713" lon="5.13799">
        <ele>414.8</ele>
        <time>2016-03-06T13:43:48Z</time>
      </trkpt>
      <trkpt lat="43.97123" lon="5.13789">
        <ele>414.2</ele>
        <time>2016-03-06T13:43:56Z</time>
      </trkpt>
      <trkpt lat="43.97117" lon="5.13778">
        <ele>413.7</ele>
        <time>2016-03-06T13:44:05Z</time>
      </trkpt>
      <trkpt lat="43.97124" lon="5.13766">
        <ele>412.7</ele>
        <time>2016-03-06T13:44:13Z</time>
      </trkpt>
      <trkpt lat="43.97132" lon="5.13758">
        <ele>411.5</ele>
        <time>2016-03-06T13:44:20Z</time>
      </trkpt>
      <trkpt lat="43.97141" lon="5.13758">
        <ele>408.6</ele>
        <time>2016-03-06T13:44:36Z</time>
      </trkpt>
      <trkpt lat="43.9715" lon="5.13757">
        <ele>407.5</ele>
        <time>2016-03-06T13:44:42Z</time>
      </trkpt>
      <trkpt lat="43.97159" lon="5.13752">
        <ele>406.2</ele>
        <time>2016-03-06T13:44:50Z</time>
      </trkpt>
      <trkpt lat="43.97164" lon="5.13741">
        <ele>404.4</ele>
        <time>2016-03-06T13:44:59Z</time>
      </trkpt>
      <trkpt lat="43.97173" lon="5.1374">
        <ele>401.5</ele>
        <time>2016-03-06T13:45:08Z</time>
      </trkpt>
      <trkpt lat="43.97182" lon="5.13745">
        <ele>398.9</ele>
        <time>2016-03-06T13:45:15Z</time>
      </trkpt>
      <trkpt lat="43.97191" lon="5.13743">
        <ele>396.9</ele>
        <time>2016-03-06T13:45:22Z</time>
      </trkpt>
      <trkpt lat="43.97201" lon="5.13742">
        <ele>395.2</ele>
        <time>2016-03-06T13:45:28Z</time>
      </trkpt>
      <trkpt lat="43.9721" lon="5.13742">
        <ele>393.1</ele>
        <time>2016-03-06T13:45:35Z</time>
      </trkpt>
      <trkpt lat="43.97219" lon="5.13741">
        <ele>390.9</ele>
        <time>2016-03-06T13:45:43Z</time>
      </trkpt>
      <trkpt lat="43.97229" lon="5.1374">
        <ele>389</ele>
        <time>2016-03-06T13:45:50Z</time>
      </trkpt>
      <trkpt lat="43.97238" lon="5.13736">
        <ele>386.8</ele>
        <time>2016-03-06T13:45:58Z</time>
      </trkpt>
      <trkpt lat="43.97248" lon="5.13734">
        <ele>384.9</ele>
        <time>2016-03-06T13:46:06Z</time>
      </trkpt>
      <trkpt lat="43.97258" lon="5.13731">
        <ele>383.3</ele>
        <time>2016-03-06T13:46:11Z</time>
      </trkpt>
      <trkpt lat="43.97267" lon="5.13731">
        <ele>381.8</ele>
        <time>2016-03-06T13:46:16Z</time>
      </trkpt>
      <trkpt lat="43.97276" lon="5.13727">
        <ele>379.5</ele>
        <time>2016-03-06T13:46:25Z</time>
      </trkpt>
      <trkpt lat="43.97286" lon="5.13723">
        <ele>377.8</ele>
        <time>2016-03-06T13:46:32Z</time>
      </trkpt>
      <trkpt lat="43.97296" lon="5.1372">
        <ele>376.6</ele>
        <time>2016-03-06T13:46:38Z</time>
      </trkpt>
      <trkpt lat="43.97306" lon="5.13717">
        <ele>375.6</ele>
        <time>2016-03-06T13:46:43Z</time>
      </trkpt>
      <trkpt lat="43.97315" lon="5.13712">
        <ele>374</ele>
        <time>2016-03-06T13:46:50Z</time>
      </trkpt>
      <trkpt lat="43.97324" lon="5.13709">
        <ele>372</ele>
        <time>2016-03-06T13:47:00Z</time>
      </trkpt>
      <trkpt lat="43.97334" lon="5.13707">
        <ele>370.6</ele>
        <time>2016-03-06T13:47:09Z</time>
      </trkpt>
      <trkpt lat="43.97344" lon="5.13708">
        <ele>369.7</ele>
        <time>2016-03-06T13:47:15Z</time>
      </trkpt>
      <trkpt lat="43.97353" lon="5.13704">
        <ele>368</ele>
        <time>2016-03-06T13:47:24Z</time>
      </trkpt>
      <trkpt lat="43.97363" lon="5.13704">
        <ele>366.6</ele>
        <time>2016-03-06T13:47:32Z</time>
      </trkpt>
      <trkpt lat="43.97372" lon="5.137">
        <ele>364.9</ele>
        <time>2016-03-06T13:47:40Z</time>
      </trkpt>
      <trkpt lat="43.97382" lon="5.13697">
        <ele>363.6</ele>
        <time>2016-03-06T13:47:46Z</time>
      </trkpt>
      <trkpt lat="43.97391" lon="5.13695">
        <ele>362.3</ele>
        <time>2016-03-06T13:47:51Z</time>
      </trkpt>
      <trkpt lat="43.97401" lon="5.13691">
        <ele>360.8</ele>
        <time>2016-03-06T13:47:56Z</time>
      </trkpt>
      <trkpt lat="43.97411" lon="5.13689">
        <ele>359.1</ele>
        <time>2016-03-06T13:48:01Z</time>
      </trkpt>
      <trkpt lat="43.97422" lon="5.13687">
        <ele>357.4</ele>
        <time>2016-03-06T13:48:07Z</time>
      </trkpt>
      <trkpt lat="43.97432" lon="5.13684">
        <ele>355.1</ele>
        <time>2016-03-06T13:48:15Z</time>
      </trkpt>
      <trkpt lat="43.97442" lon="5.13685">
        <ele>353.4</ele>
        <time>2016-03-06T13:48:20Z</time>
      </trkpt>
      <trkpt lat="43.97451" lon="5.13684">
        <ele>351.7</ele>
        <time>2016-03-06T13:48:26Z</time>
      </trkpt>
      <trkpt lat="43.97462" lon="5.13683">
        <ele>349.9</ele>
        <time>2016-03-06T13:48:32Z</time>
      </trkpt>
      <trkpt lat="43.97471" lon="5.1368">
        <ele>348.4</ele>
        <time>2016-03-06T13:48:37Z</time>
      </trkpt>
      <trkpt lat="43.9748" lon="5.13676">
        <ele>346.2</ele>
        <time>2016-03-06T13:48:44Z</time>
      </trkpt>
      <trkpt lat="43.97488" lon="5.13668">
        <ele>344.1</ele>
        <time>2016-03-06T13:48:51Z</time>
      </trkpt>
      <trkpt lat="43.97497" lon="5.13666">
        <ele>341.3</ele>
        <time>2016-03-06T13:49:00Z</time>
      </trkpt>
      <trkpt lat="43.97507" lon="5.13661">
        <ele>339.1</ele>
        <time>2016-03-06T13:49:07Z</time>
      </trkpt>
      <trkpt lat="43.97516" lon="5.13656">
        <ele>337.4</ele>
        <time>2016-03-06T13:49:13Z</time>
      </trkpt>
      <trkpt lat="43.97524" lon="5.13648">
        <ele>334.5</ele>
        <time>2016-03-06T13:49:23Z</time>
      </trkpt>
      <trkpt lat="43.9753" lon="5.13637">
        <ele>332.5</ele>
        <time>2016-03-06T13:49:30Z</time>
      </trkpt>
      <trkpt lat="43.97537" lon="5.13627">
        <ele>330.4</ele>
        <time>2016-03-06T13:49:37Z</time>
      </trkpt>
      <trkpt lat="43.97544" lon="5.13618">
        <ele>328.3</ele>
        <time>2016-03-06T13:49:43Z</time>
      </trkpt>
      <trkpt lat="43.97552" lon="5.13607">
        <ele>326</ele>
        <time>2016-03-06T13:49:49Z</time>
      </trkpt>
      <trkpt lat="43.97556" lon="5.13596">
        <ele>324.6</ele>
        <time>2016-03-06T13:49:54Z</time>
      </trkpt>
      <trkpt lat="43.97562" lon="5.13586">
        <ele>323.2</ele>
        <time>2016-03-06T13:50:00Z</time>
      </trkpt>
      <trkpt lat="43.97568" lon="5.13575">
        <ele>322</ele>
        <time>2016-03-06T13:50:05Z</time>
      </trkpt>
      <trkpt lat="43.97574" lon="5.13563">
        <ele>321.1</ele>
        <time>2016-03-06T13:50:10Z</time>
      </trkpt>
      <trkpt lat="43.97579" lon="5.1355">
        <ele>319.5</ele>
        <time>2016-03-06T13:50:17Z</time>
      </trkpt>
      <trkpt lat="43.97585" lon="5.13538">
        <ele>318.4</ele>
        <time>2016-03-06T13:50:23Z</time>
      </trkpt>
      <trkpt lat="43.97588" lon="5.13524">
        <ele>317.3</ele>
        <time>2016-03-06T13:50:29Z</time>
      </trkpt>
      <trkpt lat="43.97593" lon="5.13513">
        <ele>316.3</ele>
        <time>2016-03-06T13:50:35Z</time>
      </trkpt>
      <trkpt lat="43.97599" lon="5.13503">
        <ele>315.2</ele>
        <time>2016-03-06T13:50:41Z</time>
      </trkpt>
      <trkpt lat="43.97604" lon="5.1349">
        <ele>313.9</ele>
        <time>2016-03-06T13:50:47Z</time>
      </trkpt>
      <trkpt lat="43.9761" lon="5.13478">
        <ele>312.6</ele>
        <time>2016-03-06T13:50:52Z</time>
      </trkpt>
      <trkpt lat="43.97613" lon="5.13466">
        <ele>310.9</ele>
        <time>2016-03-06T13:50:57Z</time>
      </trkpt>
      <trkpt lat="43.9762" lon="5.13456">
        <ele>308.7</ele>
        <time>2016-03-06T13:51:03Z</time>
      </trkpt>
      <trkpt lat="43.97627" lon="5.13446">
        <ele>306.7</ele>
        <time>2016-03-06T13:51:09Z</time>
      </trkpt>
      <trkpt lat="43.97633" lon="5.13435">
        <ele>305.3</ele>
        <time>2016-03-06T13:51:15Z</time>
      </trkpt>
      <trkpt lat="43.9764" lon="5.13428">
        <ele>304.1</ele>
        <time>2016-03-06T13:51:23Z</time>
      </trkpt>
      <trkpt lat="43.9765" lon="5.13429">
        <ele>303.2</ele>
        <time>2016-03-06T13:51:28Z</time>
      </trkpt>
      <trkpt lat="43.97656" lon="5.13438">
        <ele>301.4</ele>
        <time>2016-03-06T13:51:41Z</time>
      </trkpt>
      <trkpt lat="43.97659" lon="5.1345">
        <ele>300.6</ele>
        <time>2016-03-06T13:51:49Z</time>
      </trkpt>
      <trkpt lat="43.97669" lon="5.13457">
        <ele>301.1</ele>
        <time>2016-03-06T13:51:56Z</time>
      </trkpt>
      <trkpt lat="43.97677" lon="5.13461">
        <ele>301.7</ele>
        <time>2016-03-06T13:52:11Z</time>
      </trkpt>
      <trkpt lat="43.97683" lon="5.1345">
        <ele>301.6</ele>
        <time>2016-03-06T13:52:20Z</time>
      </trkpt>
      <trkpt lat="43.97689" lon="5.1344">
        <ele>301.6</ele>
        <time>2016-03-06T13:52:29Z</time>
      </trkpt>
      <trkpt lat="43.97694" lon="5.13429">
        <ele>301.7</ele>
        <time>2016-03-06T13:52:36Z</time>
      </trkpt>
      <trkpt lat="43.97701" lon="5.1342">
        <ele>301.7</ele>
        <time>2016-03-06T13:52:44Z</time>
      </trkpt>
      <trkpt lat="43.97709" lon="5.13413">
        <ele>301.5</ele>
        <time>2016-03-06T13:52:51Z</time>
      </trkpt>
      <trkpt lat="43.97715" lon="5.13403">
        <ele>301.4</ele>
        <time>2016-03-06T13:52:58Z</time>
      </trkpt>
      <trkpt lat="43.97725" lon="5.13395">
        <ele>301.9</ele>
        <time>2016-03-06T13:53:05Z</time>
      </trkpt>
      <trkpt lat="43.97733" lon="5.13387">
        <ele>301.8</ele>
        <time>2016-03-06T13:53:09Z</time>
      </trkpt>
      <trkpt lat="43.9774" lon="5.13377">
        <ele>301.7</ele>
        <time>2016-03-06T13:53:15Z</time>
      </trkpt>
      <trkpt lat="43.97747" lon="5.13369">
        <ele>301.8</ele>
        <time>2016-03-06T13:53:21Z</time>
      </trkpt>
      <trkpt lat="43.97756" lon="5.13366">
        <ele>302</ele>
        <time>2016-03-06T13:53:27Z</time>
      </trkpt>
      <trkpt lat="43.97765" lon="5.13361">
        <ele>302.1</ele>
        <time>2016-03-06T13:53:33Z</time>
      </trkpt>
      <trkpt lat="43.97776" lon="5.13356">
        <ele>302.3</ele>
        <time>2016-03-06T13:53:40Z</time>
      </trkpt>
      <trkpt lat="43.97786" lon="5.13356">
        <ele>302.8</ele>
        <time>2016-03-06T13:53:47Z</time>
      </trkpt>
      <trkpt lat="43.97795" lon="5.13353">
        <ele>303.2</ele>
        <time>2016-03-06T13:53:55Z</time>
      </trkpt>
      <trkpt lat="43.97804" lon="5.13348">
        <ele>303.5</ele>
        <time>2016-03-06T13:54:03Z</time>
      </trkpt>
      <trkpt lat="43.97814" lon="5.13345">
        <ele>303.7</ele>
        <time>2016-03-06T13:54:10Z</time>
      </trkpt>
      <trkpt lat="43.97824" lon="5.13341">
        <ele>303.9</ele>
        <time>2016-03-06T13:54:16Z</time>
      </trkpt>
      <trkpt lat="43.97834" lon="5.13338">
        <ele>304.2</ele>
        <time>2016-03-06T13:54:23Z</time>
      </trkpt>
      <trkpt lat="43.97844" lon="5.13337">
        <ele>304.4</ele>
        <time>2016-03-06T13:54:29Z</time>
      </trkpt>
      <trkpt lat="43.97854" lon="5.13335">
        <ele>304.7</ele>
        <time>2016-03-06T13:54:35Z</time>
      </trkpt>
      <trkpt lat="43.97863" lon="5.13335">
        <ele>305</ele>
        <time>2016-03-06T13:54:42Z</time>
      </trkpt>
      <trkpt lat="43.97873" lon="5.13333">
        <ele>305.1</ele>
        <time>2016-03-06T13:54:47Z</time>
      </trkpt>
      <trkpt lat="43.97882" lon="5.13331">
        <ele>305.3</ele>
        <time>2016-03-06T13:54:53Z</time>
      </trkpt>
      <trkpt lat="43.97891" lon="5.13329">
        <ele>305.5</ele>
        <time>2016-03-06T13:54:59Z</time>
      </trkpt>
      <trkpt lat="43.97901" lon="5.13325">
        <ele>305.9</ele>
        <time>2016-03-06T13:55:07Z</time>
      </trkpt>
      <trkpt lat="43.97909" lon="5.13317">
        <ele>306.5</ele>
        <time>2016-03-06T13:55:23Z</time>
      </trkpt>
      <trkpt lat="43.97918" lon="5.13319">
        <ele>306.6</ele>
        <time>2016-03-06T13:55:32Z</time>
      </trkpt>
      <trkpt lat="43.97927" lon="5.13324">
        <ele>306.4</ele>
        <time>2016-03-06T13:55:41Z</time>
      </trkpt>
      <trkpt lat="43.97934" lon="5.13333">
        <ele>305.2</ele>
        <time>2016-03-06T13:55:55Z</time>
      </trkpt>
      <trkpt lat="43.97943" lon="5.13336">
        <ele>304</ele>
        <time>2016-03-06T13:56:56Z</time>
      </trkpt>
      <trkpt lat="43.97952" lon="5.13341">
        <ele>301.9</ele>
        <time>2016-03-06T13:57:14Z</time>
      </trkpt>
      <trkpt lat="43.97962" lon="5.13341">
        <ele>299</ele>
        <time>2016-03-06T13:57:30Z</time>
      </trkpt>
      <trkpt lat="43.97971" lon="5.13341">
        <ele>297</ele>
        <time>2016-03-06T13:57:39Z</time>
      </trkpt>
      <trkpt lat="43.97981" lon="5.1334">
        <ele>294.7</ele>
        <time>2016-03-06T13:57:48Z</time>
      </trkpt>
      <trkpt lat="43.9799" lon="5.13335">
        <ele>292.1</ele>
        <time>2016-03-06T13:57:59Z</time>
      </trkpt>
      <trkpt lat="43.97999" lon="5.13331">
        <ele>290</ele>
        <time>2016-03-06T13:58:07Z</time>
      </trkpt>
      <trkpt lat="43.98008" lon="5.13325">
        <ele>288.1</ele>
        <time>2016-03-06T13:58:16Z</time>
      </trkpt>
      <trkpt lat="43.98017" lon="5.13319">
        <ele>285.7</ele>
        <time>2016-03-06T13:58:27Z</time>
      </trkpt>
      <trkpt lat="43.98025" lon="5.13311">
        <ele>283.4</ele>
        <time>2016-03-06T13:58:36Z</time>
      </trkpt>
      <trkpt lat="43.98034" lon="5.13308">
        <ele>281.7</ele>
        <time>2016-03-06T13:58:43Z</time>
      </trkpt>
      <trkpt lat="43.98041" lon="5.133">
        <ele>280.4</ele>
        <time>2016-03-06T13:58:49Z</time>
      </trkpt>
      <trkpt lat="43.98047" lon="5.1329">
        <ele>279.4</ele>
        <time>2016-03-06T13:58:54Z</time>
      </trkpt>
      <trkpt lat="43.98055" lon="5.13284">
        <ele>278.2</ele>
        <time>2016-03-06T13:59:03Z</time>
      </trkpt>
      <trkpt lat="43.98068" lon="5.13281">
        <ele>277.9</ele>
        <time>2016-03-06T13:59:05Z</time>
      </trkpt>
      <trkpt lat="43.9808" lon="5.13276">
        <ele>277.7</ele>
        <time>2016-03-06T13:59:07Z</time>
      </trkpt>
      <trkpt lat="43.98083" lon="5.13265">
        <ele>277.3</ele>
        <time>2016-03-06T13:59:10Z</time>
      </trkpt>
      <trkpt lat="43.98092" lon="5.13257">
        <ele>275.5</ele>
        <time>2016-03-06T13:59:20Z</time>
      </trkpt>
      <trkpt lat="43.98096" lon="5.13244">
        <ele>274.7</ele>
        <time>2016-03-06T13:59:25Z</time>
      </trkpt>
      <trkpt lat="43.98105" lon="5.13236">
        <ele>273.5</ele>
        <time>2016-03-06T13:59:34Z</time>
      </trkpt>
      <trkpt lat="43.98113" lon="5.13231">
        <ele>273.1</ele>
        <time>2016-03-06T13:59:37Z</time>
      </trkpt>
      <trkpt lat="43.9812" lon="5.13221">
        <ele>272.5</ele>
        <time>2016-03-06T13:59:42Z</time>
      </trkpt>
      <trkpt lat="43.98125" lon="5.13209">
        <ele>271.8</ele>
        <time>2016-03-06T13:59:46Z</time>
      </trkpt>
      <trkpt lat="43.98127" lon="5.13197">
        <ele>270.9</ele>
        <time>2016-03-06T13:59:51Z</time>
      </trkpt>
      <trkpt lat="43.98128" lon="5.13181">
        <ele>270.1</ele>
        <time>2016-03-06T13:59:57Z</time>
      </trkpt>
      <trkpt lat="43.9813" lon="5.13168">
        <ele>269.8</ele>
        <time>2016-03-06T14:00:00Z</time>
      </trkpt>
      <trkpt lat="43.98129" lon="5.13152">
        <ele>269.2</ele>
        <time>2016-03-06T14:00:04Z</time>
      </trkpt>
      <trkpt lat="43.98129" lon="5.13139">
        <ele>268.8</ele>
        <time>2016-03-06T14:00:07Z</time>
      </trkpt>
      <trkpt lat="43.98137" lon="5.13131">
        <ele>268.3</ele>
        <time>2016-03-06T14:00:12Z</time>
      </trkpt>
      <trkpt lat="43.98147" lon="5.13128">
        <ele>267.9</ele>
        <time>2016-03-06T14:00:16Z</time>
      </trkpt>
      <trkpt lat="43.98156" lon="5.13128">
        <ele>267.4</ele>
        <time>2016-03-06T14:00:22Z</time>
      </trkpt>
      <trkpt lat="43.98165" lon="5.13117">
        <ele>266.7</ele>
        <time>2016-03-06T14:00:35Z</time>
      </trkpt>
      <trkpt lat="43.98174" lon="5.13112">
        <ele>266.6</ele>
        <time>2016-03-06T14:00:37Z</time>
      </trkpt>
      <trkpt lat="43.98183" lon="5.13106">
        <ele>266.3</ele>
        <time>2016-03-06T14:00:41Z</time>
      </trkpt>
      <trkpt lat="43.98191" lon="5.13098">
        <ele>265.9</ele>
        <time>2016-03-06T14:00:46Z</time>
      </trkpt>
      <trkpt lat="43.98199" lon="5.1309">
        <ele>265.6</ele>
        <time>2016-03-06T14:00:50Z</time>
      </trkpt>
      <trkpt lat="43.98202" lon="5.13077">
        <ele>265.2</ele>
        <time>2016-03-06T14:00:56Z</time>
      </trkpt>
      <trkpt lat="43.98204" lon="5.13062">
        <ele>264.8</ele>
        <time>2016-03-06T14:01:00Z</time>
      </trkpt>
      <trkpt lat="43.98208" lon="5.13049">
        <ele>264.3</ele>
        <time>2016-03-06T14:01:04Z</time>
      </trkpt>
      <trkpt lat="43.98216" lon="5.13045">
        <ele>263.3</ele>
        <time>2016-03-06T14:01:12Z</time>
      </trkpt>
      <trkpt lat="43.98228" lon="5.13035">
        <ele>259.9</ele>
        <time>2016-03-06T14:02:03Z</time>
      </trkpt>
      <trkpt lat="43.98237" lon="5.13027">
        <ele>259.8</ele>
        <time>2016-03-06T14:02:06Z</time>
      </trkpt>
      <trkpt lat="43.98244" lon="5.13017">
        <ele>259.6</ele>
        <time>2016-03-06T14:02:10Z</time>
      </trkpt>
      <trkpt lat="43.98252" lon="5.13009">
        <ele>259.3</ele>
        <time>2016-03-06T14:02:14Z</time>
      </trkpt>
      <trkpt lat="43.98257" lon="5.12998">
        <ele>258.9</ele>
        <time>2016-03-06T14:02:18Z</time>
      </trkpt>
      <trkpt lat="43.98263" lon="5.12986">
        <ele>258.7</ele>
        <time>2016-03-06T14:02:21Z</time>
      </trkpt>
      <trkpt lat="43.98269" lon="5.12978">
        <ele>258.6</ele>
        <time>2016-03-06T14:02:23Z</time>
      </trkpt>
      <trkpt lat="43.98277" lon="5.12969">
        <ele>258.4</ele>
        <time>2016-03-06T14:02:28Z</time>
      </trkpt>
      <trkpt lat="43.98285" lon="5.12961">
        <ele>258.1</ele>
        <time>2016-03-06T14:02:34Z</time>
      </trkpt>
      <trkpt lat="43.98288" lon="5.12948">
        <ele>257.5</ele>
        <time>2016-03-06T14:02:42Z</time>
      </trkpt>
      <trkpt lat="43.9829" lon="5.12935">
        <ele>256.6</ele>
        <time>2016-03-06T14:02:52Z</time>
      </trkpt>
      <trkpt lat="43.98294" lon="5.12921">
        <ele>255.7</ele>
        <time>2016-03-06T14:02:59Z</time>
      </trkpt>
      <trkpt lat="43.98299" lon="5.12909">
        <ele>254.6</ele>
        <time>2016-03-06T14:03:06Z</time>
      </trkpt>
      <trkpt lat="43.98302" lon="5.12897">
        <ele>254</ele>
        <time>2016-03-06T14:03:12Z</time>
      </trkpt>
      <trkpt lat="43.98308" lon="5.12886">
        <ele>253.4</ele>
        <time>2016-03-06T14:03:20Z</time>
      </trkpt>
      <trkpt lat="43.98315" lon="5.12874">
        <ele>253.2</ele>
        <time>2016-03-06T14:03:24Z</time>
      </trkpt>
      <trkpt lat="43.98321" lon="5.12862">
        <ele>253.1</ele>
        <time>2016-03-06T14:03:28Z</time>
      </trkpt>
      <trkpt lat="43.98329" lon="5.12855">
        <ele>252.9</ele>
        <time>2016-03-06T14:03:34Z</time>
      </trkpt>
      <trkpt lat="43.98329" lon="5.12841">
        <ele>252.5</ele>
        <time>2016-03-06T14:03:43Z</time>
      </trkpt>
      <trkpt lat="43.98333" lon="5.12827">
        <ele>251.7</ele>
        <time>2016-03-06T14:03:50Z</time>
      </trkpt>
      <trkpt lat="43.98338" lon="5.12816">
        <ele>251</ele>
        <time>2016-03-06T14:03:56Z</time>
      </trkpt>
      <trkpt lat="43.98338" lon="5.12803">
        <ele>250.7</ele>
        <time>2016-03-06T14:04:02Z</time>
      </trkpt>
      <trkpt lat="43.98335" lon="5.1279">
        <ele>250.7</ele>
        <time>2016-03-06T14:04:04Z</time>
      </trkpt>
      <trkpt lat="43.98338" lon="5.12778">
        <ele>251</ele>
        <time>2016-03-06T14:04:10Z</time>
      </trkpt>
      <trkpt lat="43.98341" lon="5.12765">
        <ele>251.3</ele>
        <time>2016-03-06T14:04:17Z</time>
      </trkpt>
      <trkpt lat="43.98345" lon="5.12751">
        <ele>251.4</ele>
        <time>2016-03-06T14:04:22Z</time>
      </trkpt>
      <trkpt lat="43.98344" lon="5.12739">
        <ele>251.5</ele>
        <time>2016-03-06T14:04:27Z</time>
      </trkpt>
      <trkpt lat="43.98341" lon="5.12726">
        <ele>251.6</ele>
        <time>2016-03-06T14:04:34Z</time>
      </trkpt>
      <trkpt lat="43.98341" lon="5.12712">
        <ele>251.4</ele>
        <time>2016-03-06T14:04:43Z</time>
      </trkpt>
      <trkpt lat="43.98341" lon="5.12698">
        <ele>251.2</ele>
        <time>2016-03-06T14:04:50Z</time>
      </trkpt>
      <trkpt lat="43.98341" lon="5.12684">
        <ele>250.7</ele>
        <time>2016-03-06T14:04:58Z</time>
      </trkpt>
      <trkpt lat="43.98337" lon="5.12668">
        <ele>250.1</ele>
        <time>2016-03-06T14:05:05Z</time>
      </trkpt>
      <trkpt lat="43.98336" lon="5.12655">
        <ele>249.4</ele>
        <time>2016-03-06T14:05:12Z</time>
      </trkpt>
      <trkpt lat="43.98334" lon="5.12643">
        <ele>249.1</ele>
        <time>2016-03-06T14:05:18Z</time>
      </trkpt>
      <trkpt lat="43.98337" lon="5.12631">
        <ele>248.6</ele>
        <time>2016-03-06T14:05:25Z</time>
      </trkpt>
      <trkpt lat="43.98338" lon="5.12617">
        <ele>247.5</ele>
        <time>2016-03-06T14:05:35Z</time>
      </trkpt>
      <trkpt lat="43.98338" lon="5.12603">
        <ele>245.8</ele>
        <time>2016-03-06T14:05:44Z</time>
      </trkpt>
      <trkpt lat="43.98339" lon="5.1259">
        <ele>244.6</ele>
        <time>2016-03-06T14:05:53Z</time>
      </trkpt>
      <trkpt lat="43.98338" lon="5.12577">
        <ele>243.2</ele>
        <time>2016-03-06T14:06:01Z</time>
      </trkpt>
      <trkpt lat="43.98337" lon="5.12564">
        <ele>242.2</ele>
        <time>2016-03-06T14:06:08Z</time>
      </trkpt>
      <trkpt lat="43.98334" lon="5.12551">
        <ele>241.4</ele>
        <time>2016-03-06T14:06:16Z</time>
      </trkpt>
      <trkpt lat="43.98331" lon="5.12538">
        <ele>240.9</ele>
        <time>2016-03-06T14:06:23Z</time>
      </trkpt>
      <trkpt lat="43.98328" lon="5.12526">
        <ele>240.3</ele>
        <time>2016-03-06T14:06:28Z</time>
      </trkpt>
      <trkpt lat="43.98325" lon="5.12514">
        <ele>240.1</ele>
        <time>2016-03-06T14:06:33Z</time>
      </trkpt>
      <trkpt lat="43.98322" lon="5.125">
        <ele>240</ele>
        <time>2016-03-06T14:06:40Z</time>
      </trkpt>
      <trkpt lat="43.98323" lon="5.12485">
        <ele>240.4</ele>
        <time>2016-03-06T14:06:46Z</time>
      </trkpt>
      <trkpt lat="43.98322" lon="5.12472">
        <ele>241.3</ele>
        <time>2016-03-06T14:06:52Z</time>
      </trkpt>
      <trkpt lat="43.98313" lon="5.12473">
        <ele>242.5</ele>
        <time>2016-03-06T14:06:59Z</time>
      </trkpt>
      <trkpt lat="43.98304" lon="5.12479">
        <ele>243.4</ele>
        <time>2016-03-06T14:07:04Z</time>
      </trkpt>
      <trkpt lat="43.98295" lon="5.12487">
        <ele>244.5</ele>
        <time>2016-03-06T14:07:10Z</time>
      </trkpt>
      <trkpt lat="43.98285" lon="5.12489">
        <ele>245.2</ele>
        <time>2016-03-06T14:07:15Z</time>
      </trkpt>
      <trkpt lat="43.98276" lon="5.12495">
        <ele>246.6</ele>
        <time>2016-03-06T14:07:25Z</time>
      </trkpt>
      <trkpt lat="43.98284" lon="5.12486">
        <ele>248.4</ele>
        <time>2016-03-06T14:07:44Z</time>
      </trkpt>
      <trkpt lat="43.98292" lon="5.12479">
        <ele>249.1</ele>
        <time>2016-03-06T14:07:52Z</time>
      </trkpt>
      <trkpt lat="43.98299" lon="5.12471">
        <ele>249.4</ele>
        <time>2016-03-06T14:07:58Z</time>
      </trkpt>
      <trkpt lat="43.98304" lon="5.12458">
        <ele>249.5</ele>
        <time>2016-03-06T14:08:01Z</time>
      </trkpt>
      <trkpt lat="43.98309" lon="5.12448">
        <ele>249.7</ele>
        <time>2016-03-06T14:08:05Z</time>
      </trkpt>
      <trkpt lat="43.98315" lon="5.12436">
        <ele>250</ele>
        <time>2016-03-06T14:08:12Z</time>
      </trkpt>
      <trkpt lat="43.98322" lon="5.12425">
        <ele>250.4</ele>
        <time>2016-03-06T14:08:19Z</time>
      </trkpt>
      <trkpt lat="43.98328" lon="5.12415">
        <ele>250.8</ele>
        <time>2016-03-06T14:08:25Z</time>
      </trkpt>
      <trkpt lat="43.98333" lon="5.12405">
        <ele>251.4</ele>
        <time>2016-03-06T14:08:33Z</time>
      </trkpt>
      <trkpt lat="43.98341" lon="5.12397">
        <ele>252.1</ele>
        <time>2016-03-06T14:08:40Z</time>
      </trkpt>
      <trkpt lat="43.98348" lon="5.12388">
        <ele>252.8</ele>
        <time>2016-03-06T14:08:47Z</time>
      </trkpt>
      <trkpt lat="43.98352" lon="5.12375">
        <ele>253.4</ele>
        <time>2016-03-06T14:08:55Z</time>
      </trkpt>
      <trkpt lat="43.98353" lon="5.12362">
        <ele>253.9</ele>
        <time>2016-03-06T14:09:01Z</time>
      </trkpt>
      <trkpt lat="43.98357" lon="5.1235">
        <ele>255.9</ele>
        <time>2016-03-06T14:09:24Z</time>
      </trkpt>
      <trkpt lat="43.98358" lon="5.12336">
        <ele>256.2</ele>
        <time>2016-03-06T14:09:28Z</time>
      </trkpt>
      <trkpt lat="43.98357" lon="5.12319">
        <ele>256.5</ele>
        <time>2016-03-06T14:09:32Z</time>
      </trkpt>
      <trkpt lat="43.98355" lon="5.12305">
        <ele>256.7</ele>
        <time>2016-03-06T14:09:36Z</time>
      </trkpt>
      <trkpt lat="43.98351" lon="5.12293">
        <ele>256.9</ele>
        <time>2016-03-06T14:09:41Z</time>
      </trkpt>
      <trkpt lat="43.98349" lon="5.1228">
        <ele>257.2</ele>
        <time>2016-03-06T14:09:47Z</time>
      </trkpt>
      <trkpt lat="43.98345" lon="5.12268">
        <ele>257.3</ele>
        <time>2016-03-06T14:09:50Z</time>
      </trkpt>
      <trkpt lat="43.98338" lon="5.12261">
        <ele>258.3</ele>
        <time>2016-03-06T14:09:56Z</time>
      </trkpt>
      <trkpt lat="43.9833" lon="5.1227">
        <ele>260.7</ele>
        <time>2016-03-06T14:10:07Z</time>
      </trkpt>
      <trkpt lat="43.98322" lon="5.12275">
        <ele>263.6</ele>
        <time>2016-03-06T14:10:18Z</time>
      </trkpt>
      <trkpt lat="43.98312" lon="5.12271">
        <ele>265.6</ele>
        <time>2016-03-06T14:10:26Z</time>
      </trkpt>
      <trkpt lat="43.98305" lon="5.1226">
        <ele>268.6</ele>
        <time>2016-03-06T14:10:39Z</time>
      </trkpt>
      <trkpt lat="43.98302" lon="5.12271">
        <ele>274.9</ele>
        <time>2016-03-06T14:11:03Z</time>
      </trkpt>
      <trkpt lat="43.98295" lon="5.12281">
        <ele>276.6</ele>
        <time>2016-03-06T14:11:11Z</time>
      </trkpt>
      <trkpt lat="43.98292" lon="5.12268">
        <ele>280.3</ele>
        <time>2016-03-06T14:11:25Z</time>
      </trkpt>
      <trkpt lat="43.98291" lon="5.12253">
        <ele>282.2</ele>
        <time>2016-03-06T14:11:32Z</time>
      </trkpt>
      <trkpt lat="43.98291" lon="5.1224">
        <ele>283.9</ele>
        <time>2016-03-06T14:11:38Z</time>
      </trkpt>
      <trkpt lat="43.98285" lon="5.12228">
        <ele>287</ele>
        <time>2016-03-06T14:11:48Z</time>
      </trkpt>
      <trkpt lat="43.98275" lon="5.12226">
        <ele>288.9</ele>
        <time>2016-03-06T14:11:53Z</time>
      </trkpt>
      <trkpt lat="43.98267" lon="5.1222">
        <ele>291.4</ele>
        <time>2016-03-06T14:11:59Z</time>
      </trkpt>
      <trkpt lat="43.9826" lon="5.12211">
        <ele>292.9</ele>
        <time>2016-03-06T14:12:04Z</time>
      </trkpt>
      <trkpt lat="43.98252" lon="5.12201">
        <ele>294.7</ele>
        <time>2016-03-06T14:12:11Z</time>
      </trkpt>
      <trkpt lat="43.98244" lon="5.12194">
        <ele>296.2</ele>
        <time>2016-03-06T14:12:17Z</time>
      </trkpt>
      <trkpt lat="43.98238" lon="5.12184">
        <ele>298</ele>
        <time>2016-03-06T14:12:25Z</time>
      </trkpt>
      <trkpt lat="43.9824" lon="5.12171">
        <ele>299.3</ele>
        <time>2016-03-06T14:12:33Z</time>
      </trkpt>
      <trkpt lat="43.98245" lon="5.12161">
        <ele>299.9</ele>
        <time>2016-03-06T14:12:39Z</time>
      </trkpt>
      <trkpt lat="43.9825" lon="5.1215">
        <ele>300.4</ele>
        <time>2016-03-06T14:12:45Z</time>
      </trkpt>
      <trkpt lat="43.98255" lon="5.12138">
        <ele>300.6</ele>
        <time>2016-03-06T14:12:52Z</time>
      </trkpt>
      <trkpt lat="43.98261" lon="5.12126">
        <ele>300.4</ele>
        <time>2016-03-06T14:12:58Z</time>
      </trkpt>
      <trkpt lat="43.98269" lon="5.12119">
        <ele>300.3</ele>
        <time>2016-03-06T14:13:05Z</time>
      </trkpt>
      <trkpt lat="43.98262" lon="5.12109">
        <ele>300.6</ele>
        <time>2016-03-06T14:13:13Z</time>
      </trkpt>
      <trkpt lat="43.98258" lon="5.12097">
        <ele>300.7</ele>
        <time>2016-03-06T14:13:18Z</time>
      </trkpt>
      <trkpt lat="43.98263" lon="5.12083">
        <ele>301.2</ele>
        <time>2016-03-06T14:13:41Z</time>
      </trkpt>
      <trkpt lat="43.98269" lon="5.12074">
        <ele>300.9</ele>
        <time>2016-03-06T14:13:46Z</time>
      </trkpt>
      <trkpt lat="43.98264" lon="5.12085">
        <ele>299.6</ele>
        <time>2016-03-06T14:15:04Z</time>
      </trkpt>
      <trkpt lat="43.9826" lon="5.12097">
        <ele>299.8</ele>
        <time>2016-03-06T14:15:15Z</time>
      </trkpt>
      <trkpt lat="43.98251" lon="5.121">
        <ele>300.2</ele>
        <time>2016-03-06T14:15:24Z</time>
      </trkpt>
      <trkpt lat="43.98241" lon="5.12101">
        <ele>300.8</ele>
        <time>2016-03-06T14:15:33Z</time>
      </trkpt>
      <trkpt lat="43.98231" lon="5.12101">
        <ele>301.2</ele>
        <time>2016-03-06T14:15:42Z</time>
      </trkpt>
      <trkpt lat="43.98222" lon="5.121">
        <ele>301.7</ele>
        <time>2016-03-06T14:15:51Z</time>
      </trkpt>
      <trkpt lat="43.98212" lon="5.12104">
        <ele>301.8</ele>
        <time>2016-03-06T14:15:57Z</time>
      </trkpt>
      <trkpt lat="43.98201" lon="5.12107">
        <ele>301.9</ele>
        <time>2016-03-06T14:16:00Z</time>
      </trkpt>
      <trkpt lat="43.98189" lon="5.12108">
        <ele>302.2</ele>
        <time>2016-03-06T14:16:02Z</time>
      </trkpt>
      <trkpt lat="43.9818" lon="5.1211">
        <ele>302.5</ele>
        <time>2016-03-06T14:16:04Z</time>
      </trkpt>
      <trkpt lat="43.9817" lon="5.12113">
        <ele>302.8</ele>
        <time>2016-03-06T14:16:06Z</time>
      </trkpt>
      <trkpt lat="43.9816" lon="5.12115">
        <ele>303.1</ele>
        <time>2016-03-06T14:16:08Z</time>
      </trkpt>
      <trkpt lat="43.98149" lon="5.12116">
        <ele>303.3</ele>
        <time>2016-03-06T14:16:10Z</time>
      </trkpt>
      <trkpt lat="43.98137" lon="5.12118">
        <ele>303.7</ele>
        <time>2016-03-06T14:16:12Z</time>
      </trkpt>
      <trkpt lat="43.98125" lon="5.12121">
        <ele>304.2</ele>
        <time>2016-03-06T14:16:14Z</time>
      </trkpt>
      <trkpt lat="43.98114" lon="5.12125">
        <ele>304.7</ele>
        <time>2016-03-06T14:16:16Z</time>
      </trkpt>
      <trkpt lat="43.98102" lon="5.12128">
        <ele>305.1</ele>
        <time>2016-03-06T14:16:18Z</time>
      </trkpt>
      <trkpt lat="43.98091" lon="5.12131">
        <ele>305.5</ele>
        <time>2016-03-06T14:16:20Z</time>
      </trkpt>
      <trkpt lat="43.9808" lon="5.12135">
        <ele>305.9</ele>
        <time>2016-03-06T14:16:22Z</time>
      </trkpt>
      <trkpt lat="43.9807" lon="5.1214">
        <ele>306.5</ele>
        <time>2016-03-06T14:16:24Z</time>
      </trkpt>
      <trkpt lat="43.9806" lon="5.12145">
        <ele>307.2</ele>
        <time>2016-03-06T14:16:26Z</time>
      </trkpt>
      <trkpt lat="43.98048" lon="5.12152">
        <ele>308</ele>
        <time>2016-03-06T14:16:28Z</time>
      </trkpt>
      <trkpt lat="43.98037" lon="5.12159">
        <ele>308.8</ele>
        <time>2016-03-06T14:16:30Z</time>
      </trkpt>
      <trkpt lat="43.98027" lon="5.12164">
        <ele>309.5</ele>
        <time>2016-03-06T14:16:32Z</time>
      </trkpt>
      <trkpt lat="43.98018" lon="5.1217">
        <ele>310.1</ele>
        <time>2016-03-06T14:16:34Z</time>
      </trkpt>
      <trkpt lat="43.98007" lon="5.12175">
        <ele>310.8</ele>
        <time>2016-03-06T14:16:36Z</time>
      </trkpt>
      <trkpt lat="43.97995" lon="5.12181">
        <ele>311.3</ele>
        <time>2016-03-06T14:16:38Z</time>
      </trkpt>
      <trkpt lat="43.97985" lon="5.12186">
        <ele>311.8</ele>
        <time>2016-03-06T14:16:40Z</time>
      </trkpt>
      <trkpt lat="43.97975" lon="5.12191">
        <ele>312.2</ele>
        <time>2016-03-06T14:16:42Z</time>
      </trkpt>
      <trkpt lat="43.97966" lon="5.12199">
        <ele>312.6</ele>
        <time>2016-03-06T14:16:44Z</time>
      </trkpt>
      <trkpt lat="43.97957" lon="5.12207">
        <ele>312.9</ele>
        <time>2016-03-06T14:16:46Z</time>
      </trkpt>
      <trkpt lat="43.97949" lon="5.12216">
        <ele>313.2</ele>
        <time>2016-03-06T14:16:48Z</time>
      </trkpt>
      <trkpt lat="43.97939" lon="5.12227">
        <ele>313.5</ele>
        <time>2016-03-06T14:16:51Z</time>
      </trkpt>
      <trkpt lat="43.97931" lon="5.12235">
        <ele>313.7</ele>
        <time>2016-03-06T14:16:53Z</time>
      </trkpt>
      <trkpt lat="43.97919" lon="5.12241">
        <ele>313.9</ele>
        <time>2016-03-06T14:16:55Z</time>
      </trkpt>
      <trkpt lat="43.97908" lon="5.12246">
        <ele>313.9</ele>
        <time>2016-03-06T14:16:57Z</time>
      </trkpt>
      <trkpt lat="43.97899" lon="5.12252">
        <ele>314</ele>
        <time>2016-03-06T14:16:59Z</time>
      </trkpt>
      <trkpt lat="43.97889" lon="5.12253">
        <ele>314</ele>
        <time>2016-03-06T14:17:02Z</time>
      </trkpt>
      <trkpt lat="43.97879" lon="5.12256">
        <ele>314</ele>
        <time>2016-03-06T14:17:07Z</time>
      </trkpt>
      <trkpt lat="43.97871" lon="5.12249">
        <ele>314.1</ele>
        <time>2016-03-06T14:17:13Z</time>
      </trkpt>
      <trkpt lat="43.97865" lon="5.12233">
        <ele>314.1</ele>
        <time>2016-03-06T14:17:16Z</time>
      </trkpt>
      <trkpt lat="43.97856" lon="5.12229">
        <ele>314.2</ele>
        <time>2016-03-06T14:17:20Z</time>
      </trkpt>
      <trkpt lat="43.97851" lon="5.1224">
        <ele>315</ele>
        <time>2016-03-06T14:19:43Z</time>
      </trkpt>
      <trkpt lat="43.97848" lon="5.12252">
        <ele>315.1</ele>
        <time>2016-03-06T14:19:49Z</time>
      </trkpt>
      <trkpt lat="43.9784" lon="5.12258">
        <ele>315.2</ele>
        <time>2016-03-06T14:19:56Z</time>
      </trkpt>
      <trkpt lat="43.97838" lon="5.12245">
        <ele>315.5</ele>
        <time>2016-03-06T14:20:07Z</time>
      </trkpt>
      <trkpt lat="43.97836" lon="5.12232">
        <ele>315.5</ele>
        <time>2016-03-06T14:20:13Z</time>
      </trkpt>
      <trkpt lat="43.9784" lon="5.1222">
        <ele>315.1</ele>
        <time>2016-03-06T14:20:18Z</time>
      </trkpt>
      <trkpt lat="43.97848" lon="5.1221">
        <ele>314.3</ele>
        <time>2016-03-06T14:20:25Z</time>
      </trkpt>
      <trkpt lat="43.97856" lon="5.12205">
        <ele>313</ele>
        <time>2016-03-06T14:20:31Z</time>
      </trkpt>
      <trkpt lat="43.97865" lon="5.12198">
        <ele>312.1</ele>
        <time>2016-03-06T14:20:37Z</time>
      </trkpt>
      <trkpt lat="43.97861" lon="5.12187">
        <ele>311.1</ele>
        <time>2016-03-06T14:20:44Z</time>
      </trkpt>
      <trkpt lat="43.97854" lon="5.12177">
        <ele>309.9</ele>
        <time>2016-03-06T14:20:50Z</time>
      </trkpt>
      <trkpt lat="43.97847" lon="5.12168">
        <ele>309.4</ele>
        <time>2016-03-06T14:20:54Z</time>
      </trkpt>
      <trkpt lat="43.97841" lon="5.12156">
        <ele>309.1</ele>
        <time>2016-03-06T14:20:58Z</time>
      </trkpt>
      <trkpt lat="43.97837" lon="5.12145">
        <ele>309</ele>
        <time>2016-03-06T14:21:04Z</time>
      </trkpt>
      <trkpt lat="43.97831" lon="5.12134">
        <ele>309.7</ele>
        <time>2016-03-06T14:21:11Z</time>
      </trkpt>
      <trkpt lat="43.97829" lon="5.12121">
        <ele>311.6</ele>
        <time>2016-03-06T14:21:21Z</time>
      </trkpt>
      <trkpt lat="43.97822" lon="5.12109">
        <ele>312.9</ele>
        <time>2016-03-06T14:21:28Z</time>
      </trkpt>
      <trkpt lat="43.97817" lon="5.12097">
        <ele>313.7</ele>
        <time>2016-03-06T14:21:33Z</time>
      </trkpt>
      <trkpt lat="43.97814" lon="5.12084">
        <ele>314.8</ele>
        <time>2016-03-06T14:21:38Z</time>
      </trkpt>
      <trkpt lat="43.97813" lon="5.12072">
        <ele>316.3</ele>
        <time>2016-03-06T14:21:46Z</time>
      </trkpt>
      <trkpt lat="43.9781" lon="5.1206">
        <ele>317.9</ele>
        <time>2016-03-06T14:21:55Z</time>
      </trkpt>
      <trkpt lat="43.97807" lon="5.12045">
        <ele>319</ele>
        <time>2016-03-06T14:22:00Z</time>
      </trkpt>
      <trkpt lat="43.97803" lon="5.12032">
        <ele>320.1</ele>
        <time>2016-03-06T14:22:05Z</time>
      </trkpt>
      <trkpt lat="43.97798" lon="5.12021">
        <ele>320.9</ele>
        <time>2016-03-06T14:22:09Z</time>
      </trkpt>
      <trkpt lat="43.97792" lon="5.12009">
        <ele>322.5</ele>
        <time>2016-03-06T14:22:15Z</time>
      </trkpt>
      <trkpt lat="43.97787" lon="5.11997">
        <ele>324</ele>
        <time>2016-03-06T14:22:21Z</time>
      </trkpt>
      <trkpt lat="43.97782" lon="5.11985">
        <ele>325.3</ele>
        <time>2016-03-06T14:22:27Z</time>
      </trkpt>
      <trkpt lat="43.97779" lon="5.11972">
        <ele>327</ele>
        <time>2016-03-06T14:22:35Z</time>
      </trkpt>
      <trkpt lat="43.97769" lon="5.11968">
        <ele>328.3</ele>
        <time>2016-03-06T14:22:42Z</time>
      </trkpt>
      <trkpt lat="43.9776" lon="5.1197">
        <ele>329.3</ele>
        <time>2016-03-06T14:22:47Z</time>
      </trkpt>
      <trkpt lat="43.97751" lon="5.11973">
        <ele>330.3</ele>
        <time>2016-03-06T14:22:53Z</time>
      </trkpt>
      <trkpt lat="43.97742" lon="5.11973">
        <ele>330.9</ele>
        <time>2016-03-06T14:22:57Z</time>
      </trkpt>
      <trkpt lat="43.97731" lon="5.11975">
        <ele>331.6</ele>
        <time>2016-03-06T14:23:02Z</time>
      </trkpt>
      <trkpt lat="43.97722" lon="5.11974">
        <ele>332.5</ele>
        <time>2016-03-06T14:23:08Z</time>
      </trkpt>
      <trkpt lat="43.97713" lon="5.11972">
        <ele>333.7</ele>
        <time>2016-03-06T14:23:16Z</time>
      </trkpt>
      <trkpt lat="43.97705" lon="5.11963">
        <ele>335.3</ele>
        <time>2016-03-06T14:23:25Z</time>
      </trkpt>
      <trkpt lat="43.97699" lon="5.11953">
        <ele>336.8</ele>
        <time>2016-03-06T14:23:33Z</time>
      </trkpt>
      <trkpt lat="43.97691" lon="5.11947">
        <ele>337.8</ele>
        <time>2016-03-06T14:23:39Z</time>
      </trkpt>
      <trkpt lat="43.97682" lon="5.11941">
        <ele>338.7</ele>
        <time>2016-03-06T14:23:45Z</time>
      </trkpt>
      <trkpt lat="43.97673" lon="5.11934">
        <ele>339.4</ele>
        <time>2016-03-06T14:23:52Z</time>
      </trkpt>
      <trkpt lat="43.97665" lon="5.11926">
        <ele>339.8</ele>
        <time>2016-03-06T14:23:59Z</time>
      </trkpt>
      <trkpt lat="43.97655" lon="5.11925">
        <ele>340.4</ele>
        <time>2016-03-06T14:24:05Z</time>
      </trkpt>
      <trkpt lat="43.97645" lon="5.11927">
        <ele>340.9</ele>
        <time>2016-03-06T14:24:12Z</time>
      </trkpt>
      <trkpt lat="43.97636" lon="5.1193">
        <ele>341.2</ele>
        <time>2016-03-06T14:24:19Z</time>
      </trkpt>
      <trkpt lat="43.97626" lon="5.11931">
        <ele>341.6</ele>
        <time>2016-03-06T14:24:27Z</time>
      </trkpt>
      <trkpt lat="43.97617" lon="5.11928">
        <ele>342</ele>
        <time>2016-03-06T14:24:35Z</time>
      </trkpt>
      <trkpt lat="43.97608" lon="5.11923">
        <ele>342.3</ele>
        <time>2016-03-06T14:24:43Z</time>
      </trkpt>
      <trkpt lat="43.97599" lon="5.11923">
        <ele>342.8</ele>
        <time>2016-03-06T14:24:50Z</time>
      </trkpt>
      <trkpt lat="43.97589" lon="5.11921">
        <ele>343.4</ele>
        <time>2016-03-06T14:24:57Z</time>
      </trkpt>
      <trkpt lat="43.9758" lon="5.11921">
        <ele>343.8</ele>
        <time>2016-03-06T14:25:03Z</time>
      </trkpt>
      <trkpt lat="43.9757" lon="5.1192">
        <ele>344.2</ele>
        <time>2016-03-06T14:25:08Z</time>
      </trkpt>
      <trkpt lat="43.97559" lon="5.11916">
        <ele>344.5</ele>
        <time>2016-03-06T14:25:12Z</time>
      </trkpt>
      <trkpt lat="43.97549" lon="5.11914">
        <ele>344.8</ele>
        <time>2016-03-06T14:25:16Z</time>
      </trkpt>
      <trkpt lat="43.9754" lon="5.11913">
        <ele>345.2</ele>
        <time>2016-03-06T14:25:21Z</time>
      </trkpt>
      <trkpt lat="43.9753" lon="5.11912">
        <ele>345.7</ele>
        <time>2016-03-06T14:25:28Z</time>
      </trkpt>
      <trkpt lat="43.97521" lon="5.11911">
        <ele>346</ele>
        <time>2016-03-06T14:25:33Z</time>
      </trkpt>
      <trkpt lat="43.97512" lon="5.11909">
        <ele>346.1</ele>
        <time>2016-03-06T14:25:39Z</time>
      </trkpt>
      <trkpt lat="43.975" lon="5.11905">
        <ele>346.2</ele>
        <time>2016-03-06T14:25:46Z</time>
      </trkpt>
      <trkpt lat="43.9749" lon="5.11905">
        <ele>346.4</ele>
        <time>2016-03-06T14:25:53Z</time>
      </trkpt>
      <trkpt lat="43.97479" lon="5.11904">
        <ele>346.5</ele>
        <time>2016-03-06T14:26:00Z</time>
      </trkpt>
      <trkpt lat="43.97469" lon="5.11903">
        <ele>346.6</ele>
        <time>2016-03-06T14:26:08Z</time>
      </trkpt>
      <trkpt lat="43.9746" lon="5.11902">
        <ele>346.7</ele>
        <time>2016-03-06T14:26:13Z</time>
      </trkpt>
      <trkpt lat="43.9745" lon="5.11905">
        <ele>346.8</ele>
        <time>2016-03-06T14:26:18Z</time>
      </trkpt>
      <trkpt lat="43.97441" lon="5.1191">
        <ele>346.9</ele>
        <time>2016-03-06T14:26:24Z</time>
      </trkpt>
      <trkpt lat="43.97432" lon="5.11913">
        <ele>347</ele>
        <time>2016-03-06T14:26:32Z</time>
      </trkpt>
      <trkpt lat="43.97425" lon="5.11922">
        <ele>346.8</ele>
        <time>2016-03-06T14:26:38Z</time>
      </trkpt>
      <trkpt lat="43.9742" lon="5.11932">
        <ele>346.6</ele>
        <time>2016-03-06T14:26:45Z</time>
      </trkpt>
      <trkpt lat="43.97414" lon="5.11943">
        <ele>346.5</ele>
        <time>2016-03-06T14:26:54Z</time>
      </trkpt>
      <trkpt lat="43.97408" lon="5.11955">
        <ele>346.8</ele>
        <time>2016-03-06T14:27:03Z</time>
      </trkpt>
      <trkpt lat="43.97401" lon="5.11964">
        <ele>347.2</ele>
        <time>2016-03-06T14:27:12Z</time>
      </trkpt>
      <trkpt lat="43.97392" lon="5.11971">
        <ele>347.7</ele>
        <time>2016-03-06T14:27:21Z</time>
      </trkpt>
      <trkpt lat="43.97384" lon="5.11976">
        <ele>348.1</ele>
        <time>2016-03-06T14:27:26Z</time>
      </trkpt>
      <trkpt lat="43.97374" lon="5.1198">
        <ele>348.4</ele>
        <time>2016-03-06T14:27:31Z</time>
      </trkpt>
      <trkpt lat="43.97367" lon="5.11995">
        <ele>348.5</ele>
        <time>2016-03-06T14:27:35Z</time>
      </trkpt>
      <trkpt lat="43.9736" lon="5.12006">
        <ele>348.7</ele>
        <time>2016-03-06T14:27:39Z</time>
      </trkpt>
      <trkpt lat="43.97353" lon="5.12017">
        <ele>349</ele>
        <time>2016-03-06T14:27:44Z</time>
      </trkpt>
      <trkpt lat="43.97344" lon="5.12021">
        <ele>349.3</ele>
        <time>2016-03-06T14:27:49Z</time>
      </trkpt>
      <trkpt lat="43.97335" lon="5.12028">
        <ele>349.6</ele>
        <time>2016-03-06T14:27:55Z</time>
      </trkpt>
      <trkpt lat="43.97327" lon="5.12035">
        <ele>349.9</ele>
        <time>2016-03-06T14:28:01Z</time>
      </trkpt>
      <trkpt lat="43.97318" lon="5.1204">
        <ele>350</ele>
        <time>2016-03-06T14:28:05Z</time>
      </trkpt>
      <trkpt lat="43.97311" lon="5.12048">
        <ele>350.1</ele>
        <time>2016-03-06T14:28:11Z</time>
      </trkpt>
      <trkpt lat="43.97302" lon="5.12052">
        <ele>350.4</ele>
        <time>2016-03-06T14:28:16Z</time>
      </trkpt>
      <trkpt lat="43.97293" lon="5.12056">
        <ele>350.7</ele>
        <time>2016-03-06T14:28:21Z</time>
      </trkpt>
      <trkpt lat="43.97284" lon="5.1206">
        <ele>350.9</ele>
        <time>2016-03-06T14:28:27Z</time>
      </trkpt>
      <trkpt lat="43.97275" lon="5.12068">
        <ele>351.1</ele>
        <time>2016-03-06T14:28:34Z</time>
      </trkpt>
      <trkpt lat="43.97266" lon="5.12073">
        <ele>351.2</ele>
        <time>2016-03-06T14:28:38Z</time>
      </trkpt>
      <trkpt lat="43.97259" lon="5.1208">
        <ele>351.9</ele>
        <time>2016-03-06T14:28:45Z</time>
      </trkpt>
      <trkpt lat="43.9725" lon="5.12087">
        <ele>352.6</ele>
        <time>2016-03-06T14:28:55Z</time>
      </trkpt>
      <trkpt lat="43.97242" lon="5.12094">
        <ele>352.9</ele>
        <time>2016-03-06T14:29:01Z</time>
      </trkpt>
      <trkpt lat="43.97233" lon="5.12102">
        <ele>353.1</ele>
        <time>2016-03-06T14:29:07Z</time>
      </trkpt>
      <trkpt lat="43.97225" lon="5.12111">
        <ele>353.4</ele>
        <time>2016-03-06T14:29:14Z</time>
      </trkpt>
      <trkpt lat="43.97216" lon="5.12119">
        <ele>353.8</ele>
        <time>2016-03-06T14:29:22Z</time>
      </trkpt>
      <trkpt lat="43.97206" lon="5.12127">
        <ele>354.7</ele>
        <time>2016-03-06T14:29:34Z</time>
      </trkpt>
      <trkpt lat="43.97199" lon="5.12135">
        <ele>355.7</ele>
        <time>2016-03-06T14:29:49Z</time>
      </trkpt>
      <trkpt lat="43.97191" lon="5.12141">
        <ele>356</ele>
        <time>2016-03-06T14:29:56Z</time>
      </trkpt>
      <trkpt lat="43.97184" lon="5.1215">
        <ele>356.3</ele>
        <time>2016-03-06T14:30:05Z</time>
      </trkpt>
      <trkpt lat="43.97179" lon="5.12161">
        <ele>356.5</ele>
        <time>2016-03-06T14:30:14Z</time>
      </trkpt>
      <trkpt lat="43.97177" lon="5.12173">
        <ele>356.7</ele>
        <time>2016-03-06T14:30:25Z</time>
      </trkpt>
      <trkpt lat="43.97169" lon="5.12182">
        <ele>356.5</ele>
        <time>2016-03-06T14:30:32Z</time>
      </trkpt>
      <trkpt lat="43.97164" lon="5.12193">
        <ele>356.4</ele>
        <time>2016-03-06T14:30:41Z</time>
      </trkpt>
      <trkpt lat="43.97156" lon="5.12201">
        <ele>356.3</ele>
        <time>2016-03-06T14:30:47Z</time>
      </trkpt>
      <trkpt lat="43.97149" lon="5.1221">
        <ele>356.1</ele>
        <time>2016-03-06T14:30:56Z</time>
      </trkpt>
      <trkpt lat="43.97142" lon="5.12221">
        <ele>355.8</ele>
        <time>2016-03-06T14:31:06Z</time>
      </trkpt>
      <trkpt lat="43.97135" lon="5.1223">
        <ele>355.8</ele>
        <time>2016-03-06T14:31:15Z</time>
      </trkpt>
      <trkpt lat="43.97129" lon="5.1224">
        <ele>355.9</ele>
        <time>2016-03-06T14:31:25Z</time>
      </trkpt>
      <trkpt lat="43.9712" lon="5.12248">
        <ele>355.9</ele>
        <time>2016-03-06T14:31:31Z</time>
      </trkpt>
      <trkpt lat="43.97106" lon="5.12255">
        <ele>355.9</ele>
        <time>2016-03-06T14:31:36Z</time>
      </trkpt>
      <trkpt lat="43.971" lon="5.12267">
        <ele>355.9</ele>
        <time>2016-03-06T14:31:42Z</time>
      </trkpt>
      <trkpt lat="43.97087" lon="5.1227">
        <ele>355.8</ele>
        <time>2016-03-06T14:31:44Z</time>
      </trkpt>
      <trkpt lat="43.97081" lon="5.1228">
        <ele>355.6</ele>
        <time>2016-03-06T14:31:48Z</time>
      </trkpt>
      <trkpt lat="43.97075" lon="5.12289">
        <ele>355.4</ele>
        <time>2016-03-06T14:31:52Z</time>
      </trkpt>
      <trkpt lat="43.97066" lon="5.12294">
        <ele>355.3</ele>
        <time>2016-03-06T14:31:55Z</time>
      </trkpt>
      <trkpt lat="43.97055" lon="5.12302">
        <ele>355.2</ele>
        <time>2016-03-06T14:32:00Z</time>
      </trkpt>
      <trkpt lat="43.97048" lon="5.12311">
        <ele>355.1</ele>
        <time>2016-03-06T14:32:05Z</time>
      </trkpt>
      <trkpt lat="43.97037" lon="5.12318">
        <ele>355.1</ele>
        <time>2016-03-06T14:32:09Z</time>
      </trkpt>
      <trkpt lat="43.97028" lon="5.12327">
        <ele>355</ele>
        <time>2016-03-06T14:32:14Z</time>
      </trkpt>
      <trkpt lat="43.97021" lon="5.12336">
        <ele>354.9</ele>
        <time>2016-03-06T14:32:18Z</time>
      </trkpt>
      <trkpt lat="43.97015" lon="5.12345">
        <ele>354.9</ele>
        <time>2016-03-06T14:32:22Z</time>
      </trkpt>
      <trkpt lat="43.97008" lon="5.12357">
        <ele>354.9</ele>
        <time>2016-03-06T14:32:28Z</time>
      </trkpt>
      <trkpt lat="43.97003" lon="5.1237">
        <ele>354.7</ele>
        <time>2016-03-06T14:32:35Z</time>
      </trkpt>
      <trkpt lat="43.96992" lon="5.12379">
        <ele>354.6</ele>
        <time>2016-03-06T14:32:40Z</time>
      </trkpt>
      <trkpt lat="43.96984" lon="5.12388">
        <ele>354.3</ele>
        <time>2016-03-06T14:32:45Z</time>
      </trkpt>
      <trkpt lat="43.96979" lon="5.12398">
        <ele>353.9</ele>
        <time>2016-03-06T14:32:52Z</time>
      </trkpt>
      <trkpt lat="43.96973" lon="5.12409">
        <ele>353.3</ele>
        <time>2016-03-06T14:32:58Z</time>
      </trkpt>
      <trkpt lat="43.96967" lon="5.12418">
        <ele>352.9</ele>
        <time>2016-03-06T14:33:04Z</time>
      </trkpt>
      <trkpt lat="43.96958" lon="5.12424">
        <ele>352.5</ele>
        <time>2016-03-06T14:33:12Z</time>
      </trkpt>
      <trkpt lat="43.9695" lon="5.1243">
        <ele>352</ele>
        <time>2016-03-06T14:33:18Z</time>
      </trkpt>
      <trkpt lat="43.96943" lon="5.12439">
        <ele>351.5</ele>
        <time>2016-03-06T14:33:25Z</time>
      </trkpt>
      <trkpt lat="43.96934" lon="5.12434">
        <ele>350.2</ele>
        <time>2016-03-06T14:33:34Z</time>
      </trkpt>
      <trkpt lat="43.96925" lon="5.12429">
        <ele>348.7</ele>
        <time>2016-03-06T14:33:45Z</time>
      </trkpt>
      <trkpt lat="43.96916" lon="5.12425">
        <ele>347.9</ele>
        <time>2016-03-06T14:33:50Z</time>
      </trkpt>
      <trkpt lat="43.96907" lon="5.12425">
        <ele>347</ele>
        <time>2016-03-06T14:33:56Z</time>
      </trkpt>
      <trkpt lat="43.96898" lon="5.12431">
        <ele>346.2</ele>
        <time>2016-03-06T14:34:00Z</time>
      </trkpt>
      <trkpt lat="43.96891" lon="5.12443">
        <ele>345.6</ele>
        <time>2016-03-06T14:34:04Z</time>
      </trkpt>
      <trkpt lat="43.96887" lon="5.12455">
        <ele>344.9</ele>
        <time>2016-03-06T14:34:10Z</time>
      </trkpt>
      <trkpt lat="43.9688" lon="5.12463">
        <ele>344.1</ele>
        <time>2016-03-06T14:34:15Z</time>
      </trkpt>
      <trkpt lat="43.96871" lon="5.12466">
        <ele>343.3</ele>
        <time>2016-03-06T14:34:21Z</time>
      </trkpt>
      <trkpt lat="43.96862" lon="5.12463">
        <ele>342.2</ele>
        <time>2016-03-06T14:34:39Z</time>
      </trkpt>
      <trkpt lat="43.96869" lon="5.12455">
        <ele>341.6</ele>
        <time>2016-03-06T14:34:48Z</time>
      </trkpt>
      <trkpt lat="43.96876" lon="5.12443">
        <ele>340.9</ele>
        <time>2016-03-06T14:34:55Z</time>
      </trkpt>
      <trkpt lat="43.96882" lon="5.12434">
        <ele>340.5</ele>
        <time>2016-03-06T14:35:02Z</time>
      </trkpt>
      <trkpt lat="43.96887" lon="5.12422">
        <ele>339.7</ele>
        <time>2016-03-06T14:35:10Z</time>
      </trkpt>
      <trkpt lat="43.96893" lon="5.12412">
        <ele>338.8</ele>
        <time>2016-03-06T14:35:18Z</time>
      </trkpt>
      <trkpt lat="43.96901" lon="5.12404">
        <ele>338.2</ele>
        <time>2016-03-06T14:35:24Z</time>
      </trkpt>
      <trkpt lat="43.96907" lon="5.12391">
        <ele>337.4</ele>
        <time>2016-03-06T14:35:29Z</time>
      </trkpt>
      <trkpt lat="43.9691" lon="5.12378">
        <ele>336.6</ele>
        <time>2016-03-06T14:35:33Z</time>
      </trkpt>
      <trkpt lat="43.96913" lon="5.12363">
        <ele>335.9</ele>
        <time>2016-03-06T14:35:38Z</time>
      </trkpt>
      <trkpt lat="43.96916" lon="5.1235">
        <ele>335.2</ele>
        <time>2016-03-06T14:35:44Z</time>
      </trkpt>
      <trkpt lat="43.96923" lon="5.1234">
        <ele>334.6</ele>
        <time>2016-03-06T14:35:50Z</time>
      </trkpt>
      <trkpt lat="43.96933" lon="5.12334">
        <ele>334.1</ele>
        <time>2016-03-06T14:35:56Z</time>
      </trkpt>
      <trkpt lat="43.96938" lon="5.12323">
        <ele>333.8</ele>
        <time>2016-03-06T14:36:01Z</time>
      </trkpt>
      <trkpt lat="43.96942" lon="5.1231">
        <ele>333.6</ele>
        <time>2016-03-06T14:36:08Z</time>
      </trkpt>
      <trkpt lat="43.96948" lon="5.12297">
        <ele>333.2</ele>
        <time>2016-03-06T14:36:13Z</time>
      </trkpt>
      <trkpt lat="43.96951" lon="5.12284">
        <ele>332.8</ele>
        <time>2016-03-06T14:36:18Z</time>
      </trkpt>
      <trkpt lat="43.96956" lon="5.12272">
        <ele>332.2</ele>
        <time>2016-03-06T14:36:24Z</time>
      </trkpt>
      <trkpt lat="43.96949" lon="5.12264">
        <ele>331.4</ele>
        <time>2016-03-06T14:36:32Z</time>
      </trkpt>
      <trkpt lat="43.96946" lon="5.12251">
        <ele>330.5</ele>
        <time>2016-03-06T14:36:40Z</time>
      </trkpt>
      <trkpt lat="43.9695" lon="5.1224">
        <ele>330.1</ele>
        <time>2016-03-06T14:36:54Z</time>
      </trkpt>
      <trkpt lat="43.96955" lon="5.12228">
        <ele>330.2</ele>
        <time>2016-03-06T14:37:00Z</time>
      </trkpt>
      <trkpt lat="43.96959" lon="5.12215">
        <ele>330.4</ele>
        <time>2016-03-06T14:37:08Z</time>
      </trkpt>
      <trkpt lat="43.96963" lon="5.12203">
        <ele>330.5</ele>
        <time>2016-03-06T14:37:16Z</time>
      </trkpt>
      <trkpt lat="43.96966" lon="5.1219">
        <ele>330.3</ele>
        <time>2016-03-06T14:37:24Z</time>
      </trkpt>
      <trkpt lat="43.96968" lon="5.12178">
        <ele>329.9</ele>
        <time>2016-03-06T14:37:29Z</time>
      </trkpt>
      <trkpt lat="43.96971" lon="5.12165">
        <ele>329.9</ele>
        <time>2016-03-06T14:37:36Z</time>
      </trkpt>
      <trkpt lat="43.96978" lon="5.12157">
        <ele>329.7</ele>
        <time>2016-03-06T14:37:40Z</time>
      </trkpt>
      <trkpt lat="43.96986" lon="5.12146">
        <ele>329.5</ele>
        <time>2016-03-06T14:37:44Z</time>
      </trkpt>
      <trkpt lat="43.96992" lon="5.12135">
        <ele>329.3</ele>
        <time>2016-03-06T14:37:49Z</time>
      </trkpt>
      <trkpt lat="43.96995" lon="5.12123">
        <ele>329.1</ele>
        <time>2016-03-06T14:37:54Z</time>
      </trkpt>
      <trkpt lat="43.96997" lon="5.12109">
        <ele>328.6</ele>
        <time>2016-03-06T14:38:03Z</time>
      </trkpt>
      <trkpt lat="43.97002" lon="5.12096">
        <ele>328.2</ele>
        <time>2016-03-06T14:38:09Z</time>
      </trkpt>
      <trkpt lat="43.97009" lon="5.12088">
        <ele>327.6</ele>
        <time>2016-03-06T14:38:15Z</time>
      </trkpt>
      <trkpt lat="43.97018" lon="5.1208">
        <ele>326.6</ele>
        <time>2016-03-06T14:38:22Z</time>
      </trkpt>
      <trkpt lat="43.97026" lon="5.12074">
        <ele>326</ele>
        <time>2016-03-06T14:38:26Z</time>
      </trkpt>
      <trkpt lat="43.97028" lon="5.1206">
        <ele>325.1</ele>
        <time>2016-03-06T14:38:34Z</time>
      </trkpt>
      <trkpt lat="43.97034" lon="5.12049">
        <ele>324.6</ele>
        <time>2016-03-06T14:38:40Z</time>
      </trkpt>
      <trkpt lat="43.97038" lon="5.12038">
        <ele>324.5</ele>
        <time>2016-03-06T14:38:49Z</time>
      </trkpt>
      <trkpt lat="43.97043" lon="5.12026">
        <ele>324.5</ele>
        <time>2016-03-06T14:38:57Z</time>
      </trkpt>
      <trkpt lat="43.97044" lon="5.12012">
        <ele>320.7</ele>
        <time>2016-03-06T14:39:39Z</time>
      </trkpt>
      <trkpt lat="43.97048" lon="5.11994">
        <ele>319.2</ele>
        <time>2016-03-06T14:39:45Z</time>
      </trkpt>
      <trkpt lat="43.97051" lon="5.11982">
        <ele>318.5</ele>
        <time>2016-03-06T14:39:48Z</time>
      </trkpt>
      <trkpt lat="43.97057" lon="5.1197">
        <ele>316.9</ele>
        <time>2016-03-06T14:39:56Z</time>
      </trkpt>
      <trkpt lat="43.97062" lon="5.11959">
        <ele>315.5</ele>
        <time>2016-03-06T14:40:02Z</time>
      </trkpt>
      <trkpt lat="43.97062" lon="5.11946">
        <ele>313.3</ele>
        <time>2016-03-06T14:40:12Z</time>
      </trkpt>
      <trkpt lat="43.9706" lon="5.11931">
        <ele>312.3</ele>
        <time>2016-03-06T14:40:17Z</time>
      </trkpt>
      <trkpt lat="43.9706" lon="5.11917">
        <ele>311.4</ele>
        <time>2016-03-06T14:40:23Z</time>
      </trkpt>
      <trkpt lat="43.97062" lon="5.11905">
        <ele>310.3</ele>
        <time>2016-03-06T14:40:30Z</time>
      </trkpt>
      <trkpt lat="43.97061" lon="5.11891">
        <ele>309.5</ele>
        <time>2016-03-06T14:40:35Z</time>
      </trkpt>
      <trkpt lat="43.97063" lon="5.11877">
        <ele>309.2</ele>
        <time>2016-03-06T14:40:38Z</time>
      </trkpt>
      <trkpt lat="43.97063" lon="5.11864">
        <ele>308.6</ele>
        <time>2016-03-06T14:40:42Z</time>
      </trkpt>
      <trkpt lat="43.97064" lon="5.11851">
        <ele>308.2</ele>
        <time>2016-03-06T14:40:46Z</time>
      </trkpt>
      <trkpt lat="43.97066" lon="5.11838">
        <ele>307.9</ele>
        <time>2016-03-06T14:40:50Z</time>
      </trkpt>
      <trkpt lat="43.97074" lon="5.11832">
        <ele>307.5</ele>
        <time>2016-03-06T14:40:56Z</time>
      </trkpt>
      <trkpt lat="43.97084" lon="5.11829">
        <ele>307.1</ele>
        <time>2016-03-06T14:41:02Z</time>
      </trkpt>
      <trkpt lat="43.97094" lon="5.11824">
        <ele>306.6</ele>
        <time>2016-03-06T14:41:07Z</time>
      </trkpt>
      <trkpt lat="43.97103" lon="5.11828">
        <ele>306.3</ele>
        <time>2016-03-06T14:41:14Z</time>
      </trkpt>
      <trkpt lat="43.97112" lon="5.1183">
        <ele>306</ele>
        <time>2016-03-06T14:41:21Z</time>
      </trkpt>
      <trkpt lat="43.9712" lon="5.11823">
        <ele>305.8</ele>
        <time>2016-03-06T14:41:27Z</time>
      </trkpt>
      <trkpt lat="43.97127" lon="5.11814">
        <ele>305.6</ele>
        <time>2016-03-06T14:41:34Z</time>
      </trkpt>
      <trkpt lat="43.97132" lon="5.11802">
        <ele>305.8</ele>
        <time>2016-03-06T14:41:40Z</time>
      </trkpt>
      <trkpt lat="43.97138" lon="5.11791">
        <ele>305.9</ele>
        <time>2016-03-06T14:41:45Z</time>
      </trkpt>
      <trkpt lat="43.97143" lon="5.11781">
        <ele>306</ele>
        <time>2016-03-06T14:41:51Z</time>
      </trkpt>
      <trkpt lat="43.97151" lon="5.11771">
        <ele>305.9</ele>
        <time>2016-03-06T14:41:59Z</time>
      </trkpt>
      <trkpt lat="43.9716" lon="5.11768">
        <ele>305.8</ele>
        <time>2016-03-06T14:42:06Z</time>
      </trkpt>
      <trkpt lat="43.9717" lon="5.11764">
        <ele>305.6</ele>
        <time>2016-03-06T14:42:13Z</time>
      </trkpt>
      <trkpt lat="43.9718" lon="5.11763">
        <ele>305.3</ele>
        <time>2016-03-06T14:42:21Z</time>
      </trkpt>
      <trkpt lat="43.9719" lon="5.11763">
        <ele>304.5</ele>
        <time>2016-03-06T14:42:28Z</time>
      </trkpt>
      <trkpt lat="43.97199" lon="5.11759">
        <ele>303.4</ele>
        <time>2016-03-06T14:42:36Z</time>
      </trkpt>
      <trkpt lat="43.97209" lon="5.11755">
        <ele>302.1</ele>
        <time>2016-03-06T14:42:44Z</time>
      </trkpt>
      <trkpt lat="43.97218" lon="5.11748">
        <ele>300.9</ele>
        <time>2016-03-06T14:42:51Z</time>
      </trkpt>
      <trkpt lat="43.97227" lon="5.1174">
        <ele>299.9</ele>
        <time>2016-03-06T14:42:57Z</time>
      </trkpt>
      <trkpt lat="43.97236" lon="5.11734">
        <ele>299.1</ele>
        <time>2016-03-06T14:43:02Z</time>
      </trkpt>
      <trkpt lat="43.97245" lon="5.11728">
        <ele>298.2</ele>
        <time>2016-03-06T14:43:08Z</time>
      </trkpt>
      <trkpt lat="43.97253" lon="5.11718">
        <ele>297.5</ele>
        <time>2016-03-06T14:43:15Z</time>
      </trkpt>
      <trkpt lat="43.97258" lon="5.11706">
        <ele>297.3</ele>
        <time>2016-03-06T14:43:19Z</time>
      </trkpt>
      <trkpt lat="43.97262" lon="5.11694">
        <ele>297</ele>
        <time>2016-03-06T14:43:24Z</time>
      </trkpt>
      <trkpt lat="43.97266" lon="5.11682">
        <ele>296.3</ele>
        <time>2016-03-06T14:43:30Z</time>
      </trkpt>
      <trkpt lat="43.97274" lon="5.11673">
        <ele>295.3</ele>
        <time>2016-03-06T14:43:36Z</time>
      </trkpt>
      <trkpt lat="43.97282" lon="5.11666">
        <ele>294</ele>
        <time>2016-03-06T14:43:42Z</time>
      </trkpt>
      <trkpt lat="43.97291" lon="5.1166">
        <ele>292.6</ele>
        <time>2016-03-06T14:43:48Z</time>
      </trkpt>
      <trkpt lat="43.97299" lon="5.11652">
        <ele>291.7</ele>
        <time>2016-03-06T14:43:54Z</time>
      </trkpt>
      <trkpt lat="43.97308" lon="5.11645">
        <ele>290.8</ele>
        <time>2016-03-06T14:44:01Z</time>
      </trkpt>
      <trkpt lat="43.97316" lon="5.11637">
        <ele>290</ele>
        <time>2016-03-06T14:44:07Z</time>
      </trkpt>
      <trkpt lat="43.97324" lon="5.1163">
        <ele>289.2</ele>
        <time>2016-03-06T14:44:15Z</time>
      </trkpt>
      <trkpt lat="43.97333" lon="5.11623">
        <ele>287.9</ele>
        <time>2016-03-06T14:44:24Z</time>
      </trkpt>
      <trkpt lat="43.97341" lon="5.11617">
        <ele>286.4</ele>
        <time>2016-03-06T14:44:31Z</time>
      </trkpt>
      <trkpt lat="43.9735" lon="5.11609">
        <ele>285.5</ele>
        <time>2016-03-06T14:44:37Z</time>
      </trkpt>
      <trkpt lat="43.97359" lon="5.11604">
        <ele>284.6</ele>
        <time>2016-03-06T14:44:43Z</time>
      </trkpt>
      <trkpt lat="43.97369" lon="5.11597">
        <ele>283.5</ele>
        <time>2016-03-06T14:44:49Z</time>
      </trkpt>
      <trkpt lat="43.97376" lon="5.11589">
        <ele>283</ele>
        <time>2016-03-06T14:44:53Z</time>
      </trkpt>
      <trkpt lat="43.97384" lon="5.11581">
        <ele>282.5</ele>
        <time>2016-03-06T14:44:59Z</time>
      </trkpt>
      <trkpt lat="43.97394" lon="5.1158">
        <ele>282.1</ele>
        <time>2016-03-06T14:45:07Z</time>
      </trkpt>
      <trkpt lat="43.97403" lon="5.1158">
        <ele>282</ele>
        <time>2016-03-06T14:45:12Z</time>
      </trkpt>
      <trkpt lat="43.97412" lon="5.11574">
        <ele>281.7</ele>
        <time>2016-03-06T14:45:17Z</time>
      </trkpt>
      <trkpt lat="43.97422" lon="5.11579">
        <ele>281.3</ele>
        <time>2016-03-06T14:45:23Z</time>
      </trkpt>
      <trkpt lat="43.97431" lon="5.11582">
        <ele>280.3</ele>
        <time>2016-03-06T14:45:29Z</time>
      </trkpt>
      <trkpt lat="43.9744" lon="5.11583">
        <ele>279.6</ele>
        <time>2016-03-06T14:45:35Z</time>
      </trkpt>
      <trkpt lat="43.97451" lon="5.11583">
        <ele>278.9</ele>
        <time>2016-03-06T14:45:42Z</time>
      </trkpt>
      <trkpt lat="43.97461" lon="5.11583">
        <ele>278.1</ele>
        <time>2016-03-06T14:45:49Z</time>
      </trkpt>
      <trkpt lat="43.97471" lon="5.11583">
        <ele>277.3</ele>
        <time>2016-03-06T14:45:54Z</time>
      </trkpt>
      <trkpt lat="43.9748" lon="5.11582">
        <ele>276.8</ele>
        <time>2016-03-06T14:46:01Z</time>
      </trkpt>
      <trkpt lat="43.9749" lon="5.11583">
        <ele>276.3</ele>
        <time>2016-03-06T14:46:08Z</time>
      </trkpt>
      <trkpt lat="43.97499" lon="5.11585">
        <ele>275.5</ele>
        <time>2016-03-06T14:46:15Z</time>
      </trkpt>
      <trkpt lat="43.97511" lon="5.11585">
        <ele>274.5</ele>
        <time>2016-03-06T14:46:22Z</time>
      </trkpt>
      <trkpt lat="43.9752" lon="5.11586">
        <ele>273.8</ele>
        <time>2016-03-06T14:46:27Z</time>
      </trkpt>
      <trkpt lat="43.9753" lon="5.11585">
        <ele>270.9</ele>
        <time>2016-03-06T14:48:27Z</time>
      </trkpt>
      <trkpt lat="43.97541" lon="5.11584">
        <ele>270.7</ele>
        <time>2016-03-06T14:48:31Z</time>
      </trkpt>
      <trkpt lat="43.97552" lon="5.11584">
        <ele>270.1</ele>
        <time>2016-03-06T14:48:37Z</time>
      </trkpt>
      <trkpt lat="43.97562" lon="5.11581">
        <ele>269.7</ele>
        <time>2016-03-06T14:48:43Z</time>
      </trkpt>
      <trkpt lat="43.97571" lon="5.1158">
        <ele>269.3</ele>
        <time>2016-03-06T14:48:49Z</time>
      </trkpt>
      <trkpt lat="43.9758" lon="5.11578">
        <ele>268.6</ele>
        <time>2016-03-06T14:48:56Z</time>
      </trkpt>
      <trkpt lat="43.97589" lon="5.11575">
        <ele>267.8</ele>
        <time>2016-03-06T14:49:03Z</time>
      </trkpt>
      <trkpt lat="43.97601" lon="5.11572">
        <ele>267.5</ele>
        <time>2016-03-06T14:49:07Z</time>
      </trkpt>
      <trkpt lat="43.97609" lon="5.11567">
        <ele>267.1</ele>
        <time>2016-03-06T14:49:13Z</time>
      </trkpt>
      <trkpt lat="43.97619" lon="5.11562">
        <ele>266.7</ele>
        <time>2016-03-06T14:49:20Z</time>
      </trkpt>
      <trkpt lat="43.97629" lon="5.1156">
        <ele>265.8</ele>
        <time>2016-03-06T14:49:28Z</time>
      </trkpt>
      <trkpt lat="43.97639" lon="5.11556">
        <ele>264.7</ele>
        <time>2016-03-06T14:49:35Z</time>
      </trkpt>
      <trkpt lat="43.97647" lon="5.11552">
        <ele>264.1</ele>
        <time>2016-03-06T14:49:40Z</time>
      </trkpt>
      <trkpt lat="43.97656" lon="5.11548">
        <ele>263.5</ele>
        <time>2016-03-06T14:49:45Z</time>
      </trkpt>
      <trkpt lat="43.97666" lon="5.11543">
        <ele>263</ele>
        <time>2016-03-06T14:49:51Z</time>
      </trkpt>
      <trkpt lat="43.97675" lon="5.1154">
        <ele>262.7</ele>
        <time>2016-03-06T14:49:57Z</time>
      </trkpt>
      <trkpt lat="43.97684" lon="5.11537">
        <ele>262.5</ele>
        <time>2016-03-06T14:50:02Z</time>
      </trkpt>
      <trkpt lat="43.97695" lon="5.11535">
        <ele>262.2</ele>
        <time>2016-03-06T14:50:08Z</time>
      </trkpt>
      <trkpt lat="43.97705" lon="5.11533">
        <ele>261.7</ele>
        <time>2016-03-06T14:50:14Z</time>
      </trkpt>
      <trkpt lat="43.97714" lon="5.1153">
        <ele>261.3</ele>
        <time>2016-03-06T14:50:21Z</time>
      </trkpt>
      <trkpt lat="43.97723" lon="5.11527">
        <ele>260.5</ele>
        <time>2016-03-06T14:50:28Z</time>
      </trkpt>
      <trkpt lat="43.97732" lon="5.11524">
        <ele>260.1</ele>
        <time>2016-03-06T14:50:34Z</time>
      </trkpt>
      <trkpt lat="43.97742" lon="5.11518">
        <ele>259.2</ele>
        <time>2016-03-06T14:50:41Z</time>
      </trkpt>
      <trkpt lat="43.97751" lon="5.11518">
        <ele>258.5</ele>
        <time>2016-03-06T14:50:47Z</time>
      </trkpt>
      <trkpt lat="43.9776" lon="5.11522">
        <ele>257.8</ele>
        <time>2016-03-06T14:50:54Z</time>
      </trkpt>
      <trkpt lat="43.9777" lon="5.11526">
        <ele>256.5</ele>
        <time>2016-03-06T14:51:02Z</time>
      </trkpt>
      <trkpt lat="43.97781" lon="5.11529">
        <ele>254.9</ele>
        <time>2016-03-06T14:51:09Z</time>
      </trkpt>
      <trkpt lat="43.9779" lon="5.11533">
        <ele>253.4</ele>
        <time>2016-03-06T14:51:15Z</time>
      </trkpt>
      <trkpt lat="43.978" lon="5.11536">
        <ele>251.4</ele>
        <time>2016-03-06T14:51:26Z</time>
      </trkpt>
      <trkpt lat="43.97809" lon="5.11538">
        <ele>250.5</ele>
        <time>2016-03-06T14:51:32Z</time>
      </trkpt>
      <trkpt lat="43.97818" lon="5.11539">
        <ele>249.9</ele>
        <time>2016-03-06T14:51:37Z</time>
      </trkpt>
      <trkpt lat="43.9783" lon="5.11541">
        <ele>249.5</ele>
        <time>2016-03-06T14:51:42Z</time>
      </trkpt>
      <trkpt lat="43.9784" lon="5.11541">
        <ele>249.1</ele>
        <time>2016-03-06T14:51:47Z</time>
      </trkpt>
      <trkpt lat="43.9785" lon="5.11536">
        <ele>248.7</ele>
        <time>2016-03-06T14:51:54Z</time>
      </trkpt>
      <trkpt lat="43.97859" lon="5.11531">
        <ele>248.1</ele>
        <time>2016-03-06T14:52:01Z</time>
      </trkpt>
      <trkpt lat="43.97868" lon="5.11523">
        <ele>247.5</ele>
        <time>2016-03-06T14:52:08Z</time>
      </trkpt>
      <trkpt lat="43.97876" lon="5.11517">
        <ele>247.2</ele>
        <time>2016-03-06T14:52:13Z</time>
      </trkpt>
      <trkpt lat="43.97886" lon="5.11512">
        <ele>246.5</ele>
        <time>2016-03-06T14:52:22Z</time>
      </trkpt>
      <trkpt lat="43.97895" lon="5.11509">
        <ele>246</ele>
        <time>2016-03-06T14:52:30Z</time>
      </trkpt>
      <trkpt lat="43.97904" lon="5.11507">
        <ele>245.2</ele>
        <time>2016-03-06T14:52:39Z</time>
      </trkpt>
      <trkpt lat="43.97913" lon="5.11504">
        <ele>244.4</ele>
        <time>2016-03-06T14:52:47Z</time>
      </trkpt>
      <trkpt lat="43.97922" lon="5.11505">
        <ele>244</ele>
        <time>2016-03-06T14:52:52Z</time>
      </trkpt>
      <trkpt lat="43.97932" lon="5.11503">
        <ele>243.5</ele>
        <time>2016-03-06T14:53:00Z</time>
      </trkpt>
      <trkpt lat="43.97941" lon="5.11501">
        <ele>243.2</ele>
        <time>2016-03-06T14:53:08Z</time>
      </trkpt>
      <trkpt lat="43.9795" lon="5.11501">
        <ele>242.8</ele>
        <time>2016-03-06T14:53:15Z</time>
      </trkpt>
      <trkpt lat="43.9796" lon="5.11501">
        <ele>242.4</ele>
        <time>2016-03-06T14:53:22Z</time>
      </trkpt>
      <trkpt lat="43.97969" lon="5.11503">
        <ele>242.2</ele>
        <time>2016-03-06T14:53:27Z</time>
      </trkpt>
      <trkpt lat="43.9798" lon="5.11504">
        <ele>242</ele>
        <time>2016-03-06T14:53:32Z</time>
      </trkpt>
      <trkpt lat="43.97989" lon="5.11503">
        <ele>241.5</ele>
        <time>2016-03-06T14:53:39Z</time>
      </trkpt>
      <trkpt lat="43.97999" lon="5.11503">
        <ele>240.9</ele>
        <time>2016-03-06T14:53:46Z</time>
      </trkpt>
      <trkpt lat="43.98008" lon="5.115">
        <ele>240.1</ele>
        <time>2016-03-06T14:53:54Z</time>
      </trkpt>
      <trkpt lat="43.98018" lon="5.11495">
        <ele>239.2</ele>
        <time>2016-03-06T14:54:01Z</time>
      </trkpt>
      <trkpt lat="43.98027" lon="5.11491">
        <ele>238.3</ele>
        <time>2016-03-06T14:54:09Z</time>
      </trkpt>
      <trkpt lat="43.98036" lon="5.11489">
        <ele>237.3</ele>
        <time>2016-03-06T14:54:17Z</time>
      </trkpt>
      <trkpt lat="43.98045" lon="5.11486">
        <ele>236.3</ele>
        <time>2016-03-06T14:54:24Z</time>
      </trkpt>
      <trkpt lat="43.98055" lon="5.11483">
        <ele>235.3</ele>
        <time>2016-03-06T14:54:32Z</time>
      </trkpt>
      <trkpt lat="43.98065" lon="5.11483">
        <ele>234.2</ele>
        <time>2016-03-06T14:54:39Z</time>
      </trkpt>
      <trkpt lat="43.98075" lon="5.11486">
        <ele>233.4</ele>
        <time>2016-03-06T14:54:46Z</time>
      </trkpt>
      <trkpt lat="43.98085" lon="5.11485">
        <ele>232.7</ele>
        <time>2016-03-06T14:54:53Z</time>
      </trkpt>
      <trkpt lat="43.98094" lon="5.11483">
        <ele>232.2</ele>
        <time>2016-03-06T14:55:00Z</time>
      </trkpt>
      <trkpt lat="43.98103" lon="5.11481">
        <ele>231.6</ele>
        <time>2016-03-06T14:55:09Z</time>
      </trkpt>
      <trkpt lat="43.98113" lon="5.1148">
        <ele>231.4</ele>
        <time>2016-03-06T14:55:16Z</time>
      </trkpt>
      <trkpt lat="43.98122" lon="5.11479">
        <ele>231.2</ele>
        <time>2016-03-06T14:55:22Z</time>
      </trkpt>
      <trkpt lat="43.98132" lon="5.11482">
        <ele>231</ele>
        <time>2016-03-06T14:55:31Z</time>
      </trkpt>
      <trkpt lat="43.98142" lon="5.11489">
        <ele>230.5</ele>
        <time>2016-03-06T14:55:37Z</time>
      </trkpt>
      <trkpt lat="43.9815" lon="5.11496">
        <ele>230.1</ele>
        <time>2016-03-06T14:55:41Z</time>
      </trkpt>
      <trkpt lat="43.98158" lon="5.11502">
        <ele>229.8</ele>
        <time>2016-03-06T14:55:46Z</time>
      </trkpt>
      <trkpt lat="43.98168" lon="5.11504">
        <ele>229.5</ele>
        <time>2016-03-06T14:55:51Z</time>
      </trkpt>
      <trkpt lat="43.98177" lon="5.11507">
        <ele>229.3</ele>
        <time>2016-03-06T14:56:00Z</time>
      </trkpt>
      <trkpt lat="43.98187" lon="5.1151">
        <ele>229</ele>
        <time>2016-03-06T14:56:07Z</time>
      </trkpt>
      <trkpt lat="43.98195" lon="5.11514">
        <ele>228.8</ele>
        <time>2016-03-06T14:56:14Z</time>
      </trkpt>
      <trkpt lat="43.98205" lon="5.11517">
        <ele>228.7</ele>
        <time>2016-03-06T14:56:21Z</time>
      </trkpt>
      <trkpt lat="43.98216" lon="5.11519">
        <ele>228.6</ele>
        <time>2016-03-06T14:56:29Z</time>
      </trkpt>
      <trkpt lat="43.98224" lon="5.11522">
        <ele>228.6</ele>
        <time>2016-03-06T14:56:33Z</time>
      </trkpt>
      <trkpt lat="43.98233" lon="5.11527">
        <ele>228.5</ele>
        <time>2016-03-06T14:56:37Z</time>
      </trkpt>
      <trkpt lat="43.98242" lon="5.11533">
        <ele>228.5</ele>
        <time>2016-03-06T14:56:42Z</time>
      </trkpt>
      <trkpt lat="43.9825" lon="5.11542">
        <ele>228.5</ele>
        <time>2016-03-06T14:56:48Z</time>
      </trkpt>
      <trkpt lat="43.98253" lon="5.11555">
        <ele>228.5</ele>
        <time>2016-03-06T14:56:54Z</time>
      </trkpt>
      <trkpt lat="43.98256" lon="5.11568">
        <ele>228.5</ele>
        <time>2016-03-06T14:57:01Z</time>
      </trkpt>
      <trkpt lat="43.98261" lon="5.1158">
        <ele>228.5</ele>
        <time>2016-03-06T14:57:08Z</time>
      </trkpt>
      <trkpt lat="43.98268" lon="5.11591">
        <ele>228.8</ele>
        <time>2016-03-06T14:57:15Z</time>
      </trkpt>
      <trkpt lat="43.98276" lon="5.11599">
        <ele>229</ele>
        <time>2016-03-06T14:57:21Z</time>
      </trkpt>
      <trkpt lat="43.98285" lon="5.11605">
        <ele>229.2</ele>
        <time>2016-03-06T14:57:29Z</time>
      </trkpt>
      <trkpt lat="43.98293" lon="5.11614">
        <ele>229.3</ele>
        <time>2016-03-06T14:57:35Z</time>
      </trkpt>
      <trkpt lat="43.98302" lon="5.11621">
        <ele>229.4</ele>
        <time>2016-03-06T14:57:41Z</time>
      </trkpt>
      <trkpt lat="43.98309" lon="5.1163">
        <ele>229.4</ele>
        <time>2016-03-06T14:57:47Z</time>
      </trkpt>
      <trkpt lat="43.98317" lon="5.11639">
        <ele>229.1</ele>
        <time>2016-03-06T14:57:53Z</time>
      </trkpt>
      <trkpt lat="43.98323" lon="5.1165">
        <ele>228.6</ele>
        <time>2016-03-06T14:57:59Z</time>
      </trkpt>
      <trkpt lat="43.9833" lon="5.11658">
        <ele>228.2</ele>
        <time>2016-03-06T14:58:05Z</time>
      </trkpt>
      <trkpt lat="43.98336" lon="5.11668">
        <ele>228</ele>
        <time>2016-03-06T14:58:12Z</time>
      </trkpt>
      <trkpt lat="43.98341" lon="5.11679">
        <ele>227.8</ele>
        <time>2016-03-06T14:58:19Z</time>
      </trkpt>
      <trkpt lat="43.98348" lon="5.11689">
        <ele>227.6</ele>
        <time>2016-03-06T14:58:28Z</time>
      </trkpt>
      <trkpt lat="43.98356" lon="5.11697">
        <ele>227</ele>
        <time>2016-03-06T14:58:34Z</time>
      </trkpt>
      <trkpt lat="43.98363" lon="5.11705">
        <ele>226.5</ele>
        <time>2016-03-06T14:58:40Z</time>
      </trkpt>
      <trkpt lat="43.98371" lon="5.11713">
        <ele>226.1</ele>
        <time>2016-03-06T14:58:47Z</time>
      </trkpt>
      <trkpt lat="43.98378" lon="5.11722">
        <ele>225.9</ele>
        <time>2016-03-06T14:58:54Z</time>
      </trkpt>
      <trkpt lat="43.98385" lon="5.11731">
        <ele>225.7</ele>
        <time>2016-03-06T14:59:00Z</time>
      </trkpt>
      <trkpt lat="43.98392" lon="5.11739">
        <ele>225.9</ele>
        <time>2016-03-06T14:59:07Z</time>
      </trkpt>
      <trkpt lat="43.98399" lon="5.11748">
        <ele>225.9</ele>
        <time>2016-03-06T14:59:14Z</time>
      </trkpt>
      <trkpt lat="43.98403" lon="5.1176">
        <ele>225.5</ele>
        <time>2016-03-06T14:59:21Z</time>
      </trkpt>
      <trkpt lat="43.98404" lon="5.11774">
        <ele>225</ele>
        <time>2016-03-06T14:59:31Z</time>
      </trkpt>
      <trkpt lat="43.98408" lon="5.11786">
        <ele>224.9</ele>
        <time>2016-03-06T14:59:38Z</time>
      </trkpt>
      <trkpt lat="43.98412" lon="5.11798">
        <ele>224.8</ele>
        <time>2016-03-06T14:59:44Z</time>
      </trkpt>
      <trkpt lat="43.98414" lon="5.11813">
        <ele>224.6</ele>
        <time>2016-03-06T14:59:51Z</time>
      </trkpt>
      <trkpt lat="43.98414" lon="5.11827">
        <ele>224.2</ele>
        <time>2016-03-06T14:59:56Z</time>
      </trkpt>
      <trkpt lat="43.98415" lon="5.11841">
        <ele>223.6</ele>
        <time>2016-03-06T15:00:01Z</time>
      </trkpt>
      <trkpt lat="43.98418" lon="5.11853">
        <ele>223</ele>
        <time>2016-03-06T15:00:07Z</time>
      </trkpt>
      <trkpt lat="43.9842" lon="5.11866">
        <ele>222.2</ele>
        <time>2016-03-06T15:00:14Z</time>
      </trkpt>
      <trkpt lat="43.98419" lon="5.11879">
        <ele>221.7</ele>
        <time>2016-03-06T15:00:20Z</time>
      </trkpt>
      <trkpt lat="43.98418" lon="5.11892">
        <ele>221.5</ele>
        <time>2016-03-06T15:00:24Z</time>
      </trkpt>
      <trkpt lat="43.98419" lon="5.11906">
        <ele>222</ele>
        <time>2016-03-06T15:00:31Z</time>
      </trkpt>
      <trkpt lat="43.98423" lon="5.11917">
        <ele>223.7</ele>
        <time>2016-03-06T15:00:42Z</time>
      </trkpt>
      <trkpt lat="43.98431" lon="5.11926">
        <ele>224</ele>
        <time>2016-03-06T15:00:51Z</time>
      </trkpt>
      <trkpt lat="43.98438" lon="5.11935">
        <ele>223.8</ele>
        <time>2016-03-06T15:00:57Z</time>
      </trkpt>
      <trkpt lat="43.98443" lon="5.11945">
        <ele>223.1</ele>
        <time>2016-03-06T15:01:06Z</time>
      </trkpt>
      <trkpt lat="43.9845" lon="5.11954">
        <ele>221.9</ele>
        <time>2016-03-06T15:01:15Z</time>
      </trkpt>
      <trkpt lat="43.98457" lon="5.11962">
        <ele>220.9</ele>
        <time>2016-03-06T15:01:27Z</time>
      </trkpt>
      <trkpt lat="43.98461" lon="5.11974">
        <ele>220.7</ele>
        <time>2016-03-06T15:01:35Z</time>
      </trkpt>
      <trkpt lat="43.98464" lon="5.11987">
        <ele>218.6</ele>
        <time>2016-03-06T15:01:49Z</time>
      </trkpt>
      <trkpt lat="43.98475" lon="5.11991">
        <ele>217.4</ele>
        <time>2016-03-06T15:01:58Z</time>
      </trkpt>
      <trkpt lat="43.9848" lon="5.12003">
        <ele>217</ele>
        <time>2016-03-06T15:02:02Z</time>
      </trkpt>
      <trkpt lat="43.98488" lon="5.12013">
        <ele>216.6</ele>
        <time>2016-03-06T15:02:07Z</time>
      </trkpt>
      <trkpt lat="43.98497" lon="5.1202">
        <ele>216.4</ele>
        <time>2016-03-06T15:02:10Z</time>
      </trkpt>
      <trkpt lat="43.98505" lon="5.12024">
        <ele>216</ele>
        <time>2016-03-06T15:02:14Z</time>
      </trkpt>
      <trkpt lat="43.98515" lon="5.12026">
        <ele>215.4</ele>
        <time>2016-03-06T15:02:23Z</time>
      </trkpt>
      <trkpt lat="43.98524" lon="5.12026">
        <ele>215.2</ele>
        <time>2016-03-06T15:02:29Z</time>
      </trkpt>
      <trkpt lat="43.98534" lon="5.12028">
        <ele>215.2</ele>
        <time>2016-03-06T15:02:39Z</time>
      </trkpt>
      <trkpt lat="43.98543" lon="5.12029">
        <ele>215.7</ele>
        <time>2016-03-06T15:02:44Z</time>
      </trkpt>
      <trkpt lat="43.98552" lon="5.12025">
        <ele>215.9</ele>
        <time>2016-03-06T15:02:50Z</time>
      </trkpt>
      <trkpt lat="43.98562" lon="5.12025">
        <ele>216.7</ele>
        <time>2016-03-06T15:02:57Z</time>
      </trkpt>
      <trkpt lat="43.9857" lon="5.12016">
        <ele>217.4</ele>
        <time>2016-03-06T15:03:05Z</time>
      </trkpt>
      <trkpt lat="43.98577" lon="5.12004">
        <ele>217.7</ele>
        <time>2016-03-06T15:03:10Z</time>
      </trkpt>
      <trkpt lat="43.98584" lon="5.11994">
        <ele>217.9</ele>
        <time>2016-03-06T15:03:15Z</time>
      </trkpt>
      <trkpt lat="43.98591" lon="5.11984">
        <ele>218.3</ele>
        <time>2016-03-06T15:03:21Z</time>
      </trkpt>
      <trkpt lat="43.98594" lon="5.11972">
        <ele>218.2</ele>
        <time>2016-03-06T15:03:59Z</time>
      </trkpt>
      <trkpt lat="43.98603" lon="5.11967">
        <ele>216.3</ele>
        <time>2016-03-06T15:06:01Z</time>
      </trkpt>
      <trkpt lat="43.9861" lon="5.11958">
        <ele>216.6</ele>
        <time>2016-03-06T15:07:18Z</time>
      </trkpt>
      <trkpt lat="43.9862" lon="5.11958">
        <ele>216.8</ele>
        <time>2016-03-06T15:07:39Z</time>
      </trkpt>
      <trkpt lat="43.98629" lon="5.11958">
        <ele>216.8</ele>
        <time>2016-03-06T15:07:45Z</time>
      </trkpt>
      <trkpt lat="43.98639" lon="5.11958">
        <ele>216.9</ele>
        <time>2016-03-06T15:07:53Z</time>
      </trkpt>
      <trkpt lat="43.98649" lon="5.11953">
        <ele>217.4</ele>
        <time>2016-03-06T15:08:00Z</time>
      </trkpt>
      <trkpt lat="43.98658" lon="5.1195">
        <ele>219.2</ele>
        <time>2016-03-06T15:08:08Z</time>
      </trkpt>
      <trkpt lat="43.98664" lon="5.11938">
        <ele>220.2</ele>
        <time>2016-03-06T15:08:13Z</time>
      </trkpt>
      <trkpt lat="43.98673" lon="5.11932">
        <ele>222.4</ele>
        <time>2016-03-06T15:08:23Z</time>
      </trkpt>
      <trkpt lat="43.98681" lon="5.11928">
        <ele>224.7</ele>
        <time>2016-03-06T15:08:35Z</time>
      </trkpt>
      <trkpt lat="43.98688" lon="5.11935">
        <ele>226.5</ele>
        <time>2016-03-06T15:08:43Z</time>
      </trkpt>
      <trkpt lat="43.98698" lon="5.11933">
        <ele>228.4</ele>
        <time>2016-03-06T15:08:51Z</time>
      </trkpt>
      <trkpt lat="43.98706" lon="5.11941">
        <ele>230.3</ele>
        <time>2016-03-06T15:08:59Z</time>
      </trkpt>
      <trkpt lat="43.98712" lon="5.11951">
        <ele>232.6</ele>
        <time>2016-03-06T15:09:08Z</time>
      </trkpt>
      <trkpt lat="43.9872" lon="5.11956">
        <ele>235.6</ele>
        <time>2016-03-06T15:09:25Z</time>
      </trkpt>
      <trkpt lat="43.98727" lon="5.11967">
        <ele>237.8</ele>
        <time>2016-03-06T15:09:36Z</time>
      </trkpt>
      <trkpt lat="43.98733" lon="5.11977">
        <ele>240.2</ele>
        <time>2016-03-06T15:09:47Z</time>
      </trkpt>
      <trkpt lat="43.98741" lon="5.11983">
        <ele>242.7</ele>
        <time>2016-03-06T15:09:57Z</time>
      </trkpt>
      <trkpt lat="43.9875" lon="5.11985">
        <ele>244.8</ele>
        <time>2016-03-06T15:10:05Z</time>
      </trkpt>
      <trkpt lat="43.98753" lon="5.11997">
        <ele>250.6</ele>
        <time>2016-03-06T15:10:38Z</time>
      </trkpt>
      <trkpt lat="43.98756" lon="5.12015">
        <ele>255.7</ele>
        <time>2016-03-06T15:10:58Z</time>
      </trkpt>
      <trkpt lat="43.98763" lon="5.12024">
        <ele>259.3</ele>
        <time>2016-03-06T15:11:20Z</time>
      </trkpt>
      <trkpt lat="43.98757" lon="5.12033">
        <ele>262.3</ele>
        <time>2016-03-06T15:11:43Z</time>
      </trkpt>
      <trkpt lat="43.98747" lon="5.12034">
        <ele>263.8</ele>
        <time>2016-03-06T15:11:53Z</time>
      </trkpt>
      <trkpt lat="43.98739" lon="5.1204">
        <ele>266.2</ele>
        <time>2016-03-06T15:12:06Z</time>
      </trkpt>
      <trkpt lat="43.98732" lon="5.12048">
        <ele>268.8</ele>
        <time>2016-03-06T15:12:56Z</time>
      </trkpt>
      <trkpt lat="43.98733" lon="5.12061">
        <ele>268.8</ele>
        <time>2016-03-06T15:13:06Z</time>
      </trkpt>
      <trkpt lat="43.98734" lon="5.12074">
        <ele>269.8</ele>
        <time>2016-03-06T15:13:20Z</time>
      </trkpt>
      <trkpt lat="43.98735" lon="5.12087">
        <ele>270.6</ele>
        <time>2016-03-06T15:13:26Z</time>
      </trkpt>
      <trkpt lat="43.98738" lon="5.121">
        <ele>272</ele>
        <time>2016-03-06T15:13:36Z</time>
      </trkpt>
      <trkpt lat="43.98741" lon="5.12112">
        <ele>273.9</ele>
        <time>2016-03-06T15:13:47Z</time>
      </trkpt>
      <trkpt lat="43.98745" lon="5.12125">
        <ele>275.2</ele>
        <time>2016-03-06T15:13:54Z</time>
      </trkpt>
      <trkpt lat="43.98751" lon="5.12135">
        <ele>276.2</ele>
        <time>2016-03-06T15:14:00Z</time>
      </trkpt>
      <trkpt lat="43.98755" lon="5.12148">
        <ele>277.3</ele>
        <time>2016-03-06T15:14:07Z</time>
      </trkpt>
      <trkpt lat="43.98761" lon="5.12159">
        <ele>278.4</ele>
        <time>2016-03-06T15:14:14Z</time>
      </trkpt>
      <trkpt lat="43.98765" lon="5.12171">
        <ele>279.4</ele>
        <time>2016-03-06T15:14:22Z</time>
      </trkpt>
      <trkpt lat="43.9877" lon="5.12183">
        <ele>279.8</ele>
        <time>2016-03-06T15:14:29Z</time>
      </trkpt>
      <trkpt lat="43.98773" lon="5.12196">
        <ele>280.5</ele>
        <time>2016-03-06T15:14:38Z</time>
      </trkpt>
      <trkpt lat="43.98777" lon="5.12209">
        <ele>280.8</ele>
        <time>2016-03-06T15:14:46Z</time>
      </trkpt>
      <trkpt lat="43.9878" lon="5.12221">
        <ele>281</ele>
        <time>2016-03-06T15:14:52Z</time>
      </trkpt>
      <trkpt lat="43.9878" lon="5.12236">
        <ele>281.1</ele>
        <time>2016-03-06T15:14:59Z</time>
      </trkpt>
      <trkpt lat="43.98783" lon="5.12249">
        <ele>281.1</ele>
        <time>2016-03-06T15:15:04Z</time>
      </trkpt>
      <trkpt lat="43.98785" lon="5.12262">
        <ele>281.1</ele>
        <time>2016-03-06T15:15:11Z</time>
      </trkpt>
      <trkpt lat="43.98789" lon="5.12274">
        <ele>281.1</ele>
        <time>2016-03-06T15:15:16Z</time>
      </trkpt>
      <trkpt lat="43.98795" lon="5.12286">
        <ele>280.8</ele>
        <time>2016-03-06T15:15:21Z</time>
      </trkpt>
      <trkpt lat="43.98797" lon="5.12302">
        <ele>280.4</ele>
        <time>2016-03-06T15:15:25Z</time>
      </trkpt>
      <trkpt lat="43.98803" lon="5.12315">
        <ele>280</ele>
        <time>2016-03-06T15:15:28Z</time>
      </trkpt>
      <trkpt lat="43.98808" lon="5.12327">
        <ele>279.7</ele>
        <time>2016-03-06T15:15:31Z</time>
      </trkpt>
      <trkpt lat="43.98812" lon="5.12342">
        <ele>279.8</ele>
        <time>2016-03-06T15:15:35Z</time>
      </trkpt>
      <trkpt lat="43.98816" lon="5.12355">
        <ele>279.9</ele>
        <time>2016-03-06T15:15:41Z</time>
      </trkpt>
      <trkpt lat="43.98821" lon="5.12366">
        <ele>280.5</ele>
        <time>2016-03-06T15:15:48Z</time>
      </trkpt>
      <trkpt lat="43.98827" lon="5.12376">
        <ele>280.6</ele>
        <time>2016-03-06T15:15:53Z</time>
      </trkpt>
      <trkpt lat="43.98832" lon="5.12388">
        <ele>280.5</ele>
        <time>2016-03-06T15:15:56Z</time>
      </trkpt>
      <trkpt lat="43.98837" lon="5.12398">
        <ele>280.4</ele>
        <time>2016-03-06T15:15:59Z</time>
      </trkpt>
      <trkpt lat="43.98843" lon="5.1241">
        <ele>280.1</ele>
        <time>2016-03-06T15:16:03Z</time>
      </trkpt>
      <trkpt lat="43.9885" lon="5.1242">
        <ele>280</ele>
        <time>2016-03-06T15:16:09Z</time>
      </trkpt>
      <trkpt lat="43.98856" lon="5.12431">
        <ele>280.2</ele>
        <time>2016-03-06T15:16:15Z</time>
      </trkpt>
      <trkpt lat="43.98864" lon="5.12439">
        <ele>280.3</ele>
        <time>2016-03-06T15:16:20Z</time>
      </trkpt>
      <trkpt lat="43.98872" lon="5.1245">
        <ele>279.9</ele>
        <time>2016-03-06T15:16:28Z</time>
      </trkpt>
      <trkpt lat="43.9888" lon="5.12458">
        <ele>279.9</ele>
        <time>2016-03-06T15:16:32Z</time>
      </trkpt>
      <trkpt lat="43.98888" lon="5.12465">
        <ele>279.9</ele>
        <time>2016-03-06T15:16:35Z</time>
      </trkpt>
      <trkpt lat="43.98897" lon="5.12473">
        <ele>279.9</ele>
        <time>2016-03-06T15:16:39Z</time>
      </trkpt>
      <trkpt lat="43.98905" lon="5.12482">
        <ele>279.7</ele>
        <time>2016-03-06T15:16:43Z</time>
      </trkpt>
      <trkpt lat="43.98912" lon="5.12488">
        <ele>279.4</ele>
        <time>2016-03-06T15:16:48Z</time>
      </trkpt>
      <trkpt lat="43.98929" lon="5.12491">
        <ele>279.5</ele>
        <time>2016-03-06T15:16:51Z</time>
      </trkpt>
      <trkpt lat="43.98939" lon="5.1249">
        <ele>279.6</ele>
        <time>2016-03-06T15:16:53Z</time>
      </trkpt>
      <trkpt lat="43.98928" lon="5.12487">
        <ele>280.8</ele>
        <time>2016-03-06T15:17:19Z</time>
      </trkpt>
      <trkpt lat="43.98917" lon="5.12487">
        <ele>281.1</ele>
        <time>2016-03-06T15:17:24Z</time>
      </trkpt>
      <trkpt lat="43.98908" lon="5.12487">
        <ele>281.3</ele>
        <time>2016-03-06T15:17:28Z</time>
      </trkpt>
      <trkpt lat="43.98907" lon="5.125">
        <ele>281.1</ele>
        <time>2016-03-06T15:17:42Z</time>
      </trkpt>
      <trkpt lat="43.98908" lon="5.12514">
        <ele>280.4</ele>
        <time>2016-03-06T15:17:49Z</time>
      </trkpt>
      <trkpt lat="43.98903" lon="5.12526">
        <ele>280</ele>
        <time>2016-03-06T15:17:52Z</time>
      </trkpt>
      <trkpt lat="43.98903" lon="5.12539">
        <ele>278.8</ele>
        <time>2016-03-06T15:17:59Z</time>
      </trkpt>
      <trkpt lat="43.98903" lon="5.12552">
        <ele>277.5</ele>
        <time>2016-03-06T15:18:06Z</time>
      </trkpt>
      <trkpt lat="43.98898" lon="5.12567">
        <ele>276.8</ele>
        <time>2016-03-06T15:18:11Z</time>
      </trkpt>
      <trkpt lat="43.98897" lon="5.1258">
        <ele>276</ele>
        <time>2016-03-06T15:18:16Z</time>
      </trkpt>
      <trkpt lat="43.98897" lon="5.12594">
        <ele>270</ele>
        <time>2016-03-06T15:18:50Z</time>
      </trkpt>
      <trkpt lat="43.98895" lon="5.12608">
        <ele>269.2</ele>
        <time>2016-03-06T15:18:54Z</time>
      </trkpt>
      <trkpt lat="43.98892" lon="5.12622">
        <ele>268.5</ele>
        <time>2016-03-06T15:18:58Z</time>
      </trkpt>
      <trkpt lat="43.98888" lon="5.12635">
        <ele>267.8</ele>
        <time>2016-03-06T15:19:02Z</time>
      </trkpt>
      <trkpt lat="43.98884" lon="5.12646">
        <ele>267.1</ele>
        <time>2016-03-06T15:19:06Z</time>
      </trkpt>
      <trkpt lat="43.98878" lon="5.12656">
        <ele>266.3</ele>
        <time>2016-03-06T15:19:10Z</time>
      </trkpt>
      <trkpt lat="43.98877" lon="5.1267">
        <ele>265.2</ele>
        <time>2016-03-06T15:19:15Z</time>
      </trkpt>
      <trkpt lat="43.98878" lon="5.12683">
        <ele>264.5</ele>
        <time>2016-03-06T15:19:19Z</time>
      </trkpt>
      <trkpt lat="43.9888" lon="5.12698">
        <ele>263.4</ele>
        <time>2016-03-06T15:19:25Z</time>
      </trkpt>
      <trkpt lat="43.98882" lon="5.12711">
        <ele>262.6</ele>
        <time>2016-03-06T15:19:30Z</time>
      </trkpt>
      <trkpt lat="43.9888" lon="5.12723">
        <ele>262</ele>
        <time>2016-03-06T15:19:35Z</time>
      </trkpt>
      <trkpt lat="43.9888" lon="5.12738">
        <ele>261.4</ele>
        <time>2016-03-06T15:19:41Z</time>
      </trkpt>
      <trkpt lat="43.98882" lon="5.12751">
        <ele>261</ele>
        <time>2016-03-06T15:19:46Z</time>
      </trkpt>
      <trkpt lat="43.98888" lon="5.12761">
        <ele>260.5</ele>
        <time>2016-03-06T15:19:54Z</time>
      </trkpt>
      <trkpt lat="43.98891" lon="5.12773">
        <ele>260.1</ele>
        <time>2016-03-06T15:20:03Z</time>
      </trkpt>
      <trkpt lat="43.98892" lon="5.12786">
        <ele>260.1</ele>
        <time>2016-03-06T15:20:10Z</time>
      </trkpt>
      <trkpt lat="43.98897" lon="5.12798">
        <ele>260.6</ele>
        <time>2016-03-06T15:20:18Z</time>
      </trkpt>
      <trkpt lat="43.98897" lon="5.12812">
        <ele>261.5</ele>
        <time>2016-03-06T15:20:24Z</time>
      </trkpt>
      <trkpt lat="43.98904" lon="5.12821">
        <ele>263</ele>
        <time>2016-03-06T15:20:32Z</time>
      </trkpt>
      <trkpt lat="43.98911" lon="5.1283">
        <ele>264.4</ele>
        <time>2016-03-06T15:20:39Z</time>
      </trkpt>
      <trkpt lat="43.98914" lon="5.12841">
        <ele>266.3</ele>
        <time>2016-03-06T15:20:48Z</time>
      </trkpt>
      <trkpt lat="43.98916" lon="5.12854">
        <ele>267.9</ele>
        <time>2016-03-06T15:20:58Z</time>
      </trkpt>
      <trkpt lat="43.98919" lon="5.12867">
        <ele>268.5</ele>
        <time>2016-03-06T15:21:05Z</time>
      </trkpt>
      <trkpt lat="43.98925" lon="5.12877">
        <ele>268.8</ele>
        <time>2016-03-06T15:21:12Z</time>
      </trkpt>
      <trkpt lat="43.98926" lon="5.12891">
        <ele>269</ele>
        <time>2016-03-06T15:21:19Z</time>
      </trkpt>
      <trkpt lat="43.98932" lon="5.12903">
        <ele>268.8</ele>
        <time>2016-03-06T15:21:26Z</time>
      </trkpt>
      <trkpt lat="43.98938" lon="5.12913">
        <ele>268.8</ele>
        <time>2016-03-06T15:21:31Z</time>
      </trkpt>
      <trkpt lat="43.98946" lon="5.12923">
        <ele>268.9</ele>
        <time>2016-03-06T15:21:38Z</time>
      </trkpt>
      <trkpt lat="43.98951" lon="5.12933">
        <ele>269.2</ele>
        <time>2016-03-06T15:21:46Z</time>
      </trkpt>
      <trkpt lat="43.98954" lon="5.12946">
        <ele>269.7</ele>
        <time>2016-03-06T15:21:52Z</time>
      </trkpt>
      <trkpt lat="43.9895" lon="5.12959">
        <ele>270.2</ele>
        <time>2016-03-06T15:21:57Z</time>
      </trkpt>
      <trkpt lat="43.98954" lon="5.12972">
        <ele>270.7</ele>
        <time>2016-03-06T15:22:07Z</time>
      </trkpt>
      <trkpt lat="43.98958" lon="5.12984">
        <ele>270.9</ele>
        <time>2016-03-06T15:22:20Z</time>
      </trkpt>
      <trkpt lat="43.98963" lon="5.12996">
        <ele>270.9</ele>
        <time>2016-03-06T15:22:29Z</time>
      </trkpt>
      <trkpt lat="43.98966" lon="5.1301">
        <ele>270.6</ele>
        <time>2016-03-06T15:22:38Z</time>
      </trkpt>
      <trkpt lat="43.98967" lon="5.13023">
        <ele>270.3</ele>
        <time>2016-03-06T15:22:44Z</time>
      </trkpt>
      <trkpt lat="43.98966" lon="5.13036">
        <ele>269.6</ele>
        <time>2016-03-06T15:22:56Z</time>
      </trkpt>
      <trkpt lat="43.98972" lon="5.13047">
        <ele>268.3</ele>
        <time>2016-03-06T15:23:06Z</time>
      </trkpt>
      <trkpt lat="43.98978" lon="5.13057">
        <ele>267.3</ele>
        <time>2016-03-06T15:23:13Z</time>
      </trkpt>
      <trkpt lat="43.98988" lon="5.13059">
        <ele>265.2</ele>
        <time>2016-03-06T15:23:24Z</time>
      </trkpt>
      <trkpt lat="43.98998" lon="5.13059">
        <ele>263</ele>
        <time>2016-03-06T15:23:33Z</time>
      </trkpt>
      <trkpt lat="43.99006" lon="5.13065">
        <ele>261.4</ele>
        <time>2016-03-06T15:23:40Z</time>
      </trkpt>
      <trkpt lat="43.99016" lon="5.13074">
        <ele>260.1</ele>
        <time>2016-03-06T15:23:45Z</time>
      </trkpt>
      <trkpt lat="43.99026" lon="5.13076">
        <ele>258.3</ele>
        <time>2016-03-06T15:23:53Z</time>
      </trkpt>
      <trkpt lat="43.99033" lon="5.13082">
        <ele>257</ele>
        <time>2016-03-06T15:23:59Z</time>
      </trkpt>
      <trkpt lat="43.99042" lon="5.13087">
        <ele>255</ele>
        <time>2016-03-06T15:24:08Z</time>
      </trkpt>
      <trkpt lat="43.99051" lon="5.1309">
        <ele>253.9</ele>
        <time>2016-03-06T15:24:14Z</time>
      </trkpt>
      <trkpt lat="43.99062" lon="5.13093">
        <ele>252.5</ele>
        <time>2016-03-06T15:24:21Z</time>
      </trkpt>
      <trkpt lat="43.99071" lon="5.13095">
        <ele>250.8</ele>
        <time>2016-03-06T15:24:29Z</time>
      </trkpt>
      <trkpt lat="43.9908" lon="5.13096">
        <ele>249.3</ele>
        <time>2016-03-06T15:24:37Z</time>
      </trkpt>
      <trkpt lat="43.9909" lon="5.13096">
        <ele>248.5</ele>
        <time>2016-03-06T15:24:43Z</time>
      </trkpt>
      <trkpt lat="43.991" lon="5.13097">
        <ele>247.8</ele>
        <time>2016-03-06T15:24:48Z</time>
      </trkpt>
      <trkpt lat="43.99108" lon="5.13105">
        <ele>247.1</ele>
        <time>2016-03-06T15:24:54Z</time>
      </trkpt>
      <trkpt lat="43.99118" lon="5.1311">
        <ele>246.3</ele>
        <time>2016-03-06T15:25:01Z</time>
      </trkpt>
      <trkpt lat="43.99127" lon="5.13113">
        <ele>245.4</ele>
        <time>2016-03-06T15:25:09Z</time>
      </trkpt>
      <trkpt lat="43.99137" lon="5.13116">
        <ele>242.5</ele>
        <time>2016-03-06T15:25:48Z</time>
      </trkpt>
      <trkpt lat="43.99146" lon="5.13117">
        <ele>242.1</ele>
        <time>2016-03-06T15:25:55Z</time>
      </trkpt>
      <trkpt lat="43.99156" lon="5.13118">
        <ele>241.4</ele>
        <time>2016-03-06T15:26:05Z</time>
      </trkpt>
      <trkpt lat="43.99165" lon="5.13119">
        <ele>240.7</ele>
        <time>2016-03-06T15:26:12Z</time>
      </trkpt>
      <trkpt lat="43.99172" lon="5.13129">
        <ele>240</ele>
        <time>2016-03-06T15:26:18Z</time>
      </trkpt>
      <trkpt lat="43.99177" lon="5.13142">
        <ele>239.5</ele>
        <time>2016-03-06T15:26:24Z</time>
      </trkpt>
      <trkpt lat="43.99187" lon="5.13143">
        <ele>238.9</ele>
        <time>2016-03-06T15:26:33Z</time>
      </trkpt>
      <trkpt lat="43.99197" lon="5.13143">
        <ele>238.7</ele>
        <time>2016-03-06T15:26:40Z</time>
      </trkpt>
      <trkpt lat="43.99208" lon="5.13145">
        <ele>238.5</ele>
        <time>2016-03-06T15:26:46Z</time>
      </trkpt>
      <trkpt lat="43.99217" lon="5.13149">
        <ele>238.8</ele>
        <time>2016-03-06T15:26:52Z</time>
      </trkpt>
      <trkpt lat="43.99225" lon="5.13154">
        <ele>239.4</ele>
        <time>2016-03-06T15:26:57Z</time>
      </trkpt>
      <trkpt lat="43.99225" lon="5.13167">
        <ele>240.2</ele>
        <time>2016-03-06T15:27:02Z</time>
      </trkpt>
      <trkpt lat="43.99213" lon="5.13171">
        <ele>241.1</ele>
        <time>2016-03-06T15:27:07Z</time>
      </trkpt>
      <trkpt lat="43.99226" lon="5.13172">
        <ele>242.2</ele>
        <time>2016-03-06T15:27:12Z</time>
      </trkpt>
      <trkpt lat="43.99236" lon="5.13173">
        <ele>242.5</ele>
        <time>2016-03-06T15:27:14Z</time>
      </trkpt>
      <trkpt lat="43.99245" lon="5.13178">
        <ele>243.2</ele>
        <time>2016-03-06T15:27:18Z</time>
      </trkpt>
      <trkpt lat="43.99253" lon="5.13187">
        <ele>243.9</ele>
        <time>2016-03-06T15:27:23Z</time>
      </trkpt>
      <trkpt lat="43.99259" lon="5.13199">
        <ele>245</ele>
        <time>2016-03-06T15:27:31Z</time>
      </trkpt>
      <trkpt lat="43.99264" lon="5.1321">
        <ele>245.5</ele>
        <time>2016-03-06T15:27:36Z</time>
      </trkpt>
      <trkpt lat="43.9927" lon="5.13218">
        <ele>246.3</ele>
        <time>2016-03-06T15:27:45Z</time>
      </trkpt>
      <trkpt lat="43.9928" lon="5.13221">
        <ele>246.9</ele>
        <time>2016-03-06T15:27:51Z</time>
      </trkpt>
      <trkpt lat="43.99296" lon="5.1323">
        <ele>254.6</ele>
        <time>2016-03-06T15:28:48Z</time>
      </trkpt>
      <trkpt lat="43.99304" lon="5.13239">
        <ele>255.2</ele>
        <time>2016-03-06T15:28:52Z</time>
      </trkpt>
      <trkpt lat="43.99313" lon="5.13248">
        <ele>255.7</ele>
        <time>2016-03-06T15:28:56Z</time>
      </trkpt>
      <trkpt lat="43.99321" lon="5.13255">
        <ele>256</ele>
        <time>2016-03-06T15:29:00Z</time>
      </trkpt>
      <trkpt lat="43.99328" lon="5.13264">
        <ele>256.3</ele>
        <time>2016-03-06T15:29:06Z</time>
      </trkpt>
      <trkpt lat="43.99332" lon="5.13276">
        <ele>256.8</ele>
        <time>2016-03-06T15:29:12Z</time>
      </trkpt>
      <trkpt lat="43.99339" lon="5.13285">
        <ele>257</ele>
        <time>2016-03-06T15:29:16Z</time>
      </trkpt>
      <trkpt lat="43.99345" lon="5.13295">
        <ele>257.3</ele>
        <time>2016-03-06T15:29:21Z</time>
      </trkpt>
      <trkpt lat="43.99352" lon="5.13307">
        <ele>257.5</ele>
        <time>2016-03-06T15:29:27Z</time>
      </trkpt>
      <trkpt lat="43.9936" lon="5.13314">
        <ele>257.6</ele>
        <time>2016-03-06T15:29:31Z</time>
      </trkpt>
      <trkpt lat="43.99367" lon="5.13323">
        <ele>257.6</ele>
        <time>2016-03-06T15:29:35Z</time>
      </trkpt>
      <trkpt lat="43.99376" lon="5.13334">
        <ele>257.7</ele>
        <time>2016-03-06T15:29:39Z</time>
      </trkpt>
      <trkpt lat="43.99383" lon="5.13345">
        <ele>257.8</ele>
        <time>2016-03-06T15:29:45Z</time>
      </trkpt>
      <trkpt lat="43.99389" lon="5.13356">
        <ele>257.7</ele>
        <time>2016-03-06T15:29:53Z</time>
      </trkpt>
      <trkpt lat="43.99394" lon="5.13367">
        <ele>257.3</ele>
        <time>2016-03-06T15:30:02Z</time>
      </trkpt>
      <trkpt lat="43.99398" lon="5.13379">
        <ele>257.1</ele>
        <time>2016-03-06T15:30:09Z</time>
      </trkpt>
      <trkpt lat="43.99401" lon="5.13392">
        <ele>257</ele>
        <time>2016-03-06T15:30:13Z</time>
      </trkpt>
      <trkpt lat="43.99406" lon="5.13404">
        <ele>256.9</ele>
        <time>2016-03-06T15:30:16Z</time>
      </trkpt>
      <trkpt lat="43.99408" lon="5.13418">
        <ele>256.6</ele>
        <time>2016-03-06T15:30:22Z</time>
      </trkpt>
      <trkpt lat="43.99414" lon="5.13428">
        <ele>256.5</ele>
        <time>2016-03-06T15:30:28Z</time>
      </trkpt>
      <trkpt lat="43.99417" lon="5.1344">
        <ele>256.4</ele>
        <time>2016-03-06T15:30:35Z</time>
      </trkpt>
      <trkpt lat="43.99422" lon="5.13452">
        <ele>256.3</ele>
        <time>2016-03-06T15:30:42Z</time>
      </trkpt>
      <trkpt lat="43.99426" lon="5.13465">
        <ele>256.2</ele>
        <time>2016-03-06T15:30:48Z</time>
      </trkpt>
      <trkpt lat="43.99429" lon="5.13477">
        <ele>256.1</ele>
        <time>2016-03-06T15:30:53Z</time>
      </trkpt>
      <trkpt lat="43.99432" lon="5.1349">
        <ele>256</ele>
        <time>2016-03-06T15:30:58Z</time>
      </trkpt>
      <trkpt lat="43.99437" lon="5.13502">
        <ele>255.9</ele>
        <time>2016-03-06T15:31:04Z</time>
      </trkpt>
      <trkpt lat="43.99444" lon="5.1351">
        <ele>255.9</ele>
        <time>2016-03-06T15:31:10Z</time>
      </trkpt>
      <trkpt lat="43.9945" lon="5.1352">
        <ele>255.8</ele>
        <time>2016-03-06T15:31:18Z</time>
      </trkpt>
      <trkpt lat="43.99457" lon="5.13531">
        <ele>255.5</ele>
        <time>2016-03-06T15:31:23Z</time>
      </trkpt>
      <trkpt lat="43.99465" lon="5.13541">
        <ele>255.3</ele>
        <time>2016-03-06T15:31:28Z</time>
      </trkpt>
      <trkpt lat="43.99471" lon="5.13553">
        <ele>255.2</ele>
        <time>2016-03-06T15:31:33Z</time>
      </trkpt>
      <trkpt lat="43.99478" lon="5.13564">
        <ele>255</ele>
        <time>2016-03-06T15:31:39Z</time>
      </trkpt>
      <trkpt lat="43.99484" lon="5.13575">
        <ele>254.7</ele>
        <time>2016-03-06T15:31:46Z</time>
      </trkpt>
      <trkpt lat="43.99492" lon="5.13585">
        <ele>254.6</ele>
        <time>2016-03-06T15:31:53Z</time>
      </trkpt>
      <trkpt lat="43.99498" lon="5.13597">
        <ele>254.1</ele>
        <time>2016-03-06T15:31:59Z</time>
      </trkpt>
      <trkpt lat="43.99503" lon="5.13608">
        <ele>254.1</ele>
        <time>2016-03-06T15:32:06Z</time>
      </trkpt>
      <trkpt lat="43.9951" lon="5.13617">
        <ele>253.7</ele>
        <time>2016-03-06T15:32:13Z</time>
      </trkpt>
      <trkpt lat="43.99516" lon="5.13627">
        <ele>253.4</ele>
        <time>2016-03-06T15:32:20Z</time>
      </trkpt>
      <trkpt lat="43.99524" lon="5.13636">
        <ele>252.7</ele>
        <time>2016-03-06T15:32:28Z</time>
      </trkpt>
      <trkpt lat="43.99528" lon="5.13649">
        <ele>253.1</ele>
        <time>2016-03-06T15:32:38Z</time>
      </trkpt>
      <trkpt lat="43.99533" lon="5.1366">
        <ele>252.8</ele>
        <time>2016-03-06T15:32:45Z</time>
      </trkpt>
      <trkpt lat="43.9954" lon="5.13668">
        <ele>252.6</ele>
        <time>2016-03-06T15:32:52Z</time>
      </trkpt>
      <trkpt lat="43.99548" lon="5.13677">
        <ele>252.4</ele>
        <time>2016-03-06T15:33:00Z</time>
      </trkpt>
      <trkpt lat="43.99554" lon="5.13687">
        <ele>252.3</ele>
        <time>2016-03-06T15:33:06Z</time>
      </trkpt>
      <trkpt lat="43.99559" lon="5.13698">
        <ele>252.2</ele>
        <time>2016-03-06T15:33:13Z</time>
      </trkpt>
      <trkpt lat="43.99566" lon="5.13707">
        <ele>252</ele>
        <time>2016-03-06T15:33:19Z</time>
      </trkpt>
      <trkpt lat="43.99574" lon="5.13716">
        <ele>251.9</ele>
        <time>2016-03-06T15:33:26Z</time>
      </trkpt>
      <trkpt lat="43.99581" lon="5.13724">
        <ele>251.7</ele>
        <time>2016-03-06T15:33:34Z</time>
      </trkpt>
      <trkpt lat="43.99587" lon="5.13735">
        <ele>251.4</ele>
        <time>2016-03-06T15:33:42Z</time>
      </trkpt>
      <trkpt lat="43.99594" lon="5.13745">
        <ele>251.1</ele>
        <time>2016-03-06T15:33:49Z</time>
      </trkpt>
      <trkpt lat="43.99598" lon="5.13756">
        <ele>250.6</ele>
        <time>2016-03-06T15:33:56Z</time>
      </trkpt>
      <trkpt lat="43.99602" lon="5.13768">
        <ele>250.1</ele>
        <time>2016-03-06T15:34:02Z</time>
      </trkpt>
      <trkpt lat="43.99608" lon="5.13779">
        <ele>249.2</ele>
        <time>2016-03-06T15:34:10Z</time>
      </trkpt>
      <trkpt lat="43.99614" lon="5.13789">
        <ele>248.1</ele>
        <time>2016-03-06T15:34:18Z</time>
      </trkpt>
      <trkpt lat="43.9962" lon="5.13799">
        <ele>247</ele>
        <time>2016-03-06T15:34:28Z</time>
      </trkpt>
      <trkpt lat="43.99623" lon="5.13813">
        <ele>246.4</ele>
        <time>2016-03-06T15:34:35Z</time>
      </trkpt>
      <trkpt lat="43.99628" lon="5.13826">
        <ele>245.7</ele>
        <time>2016-03-06T15:34:42Z</time>
      </trkpt>
      <trkpt lat="43.99634" lon="5.13835">
        <ele>244.5</ele>
        <time>2016-03-06T15:34:55Z</time>
      </trkpt>
      <trkpt lat="43.99641" lon="5.13844">
        <ele>243.9</ele>
        <time>2016-03-06T15:35:03Z</time>
      </trkpt>
      <trkpt lat="43.9965" lon="5.13848">
        <ele>242.9</ele>
        <time>2016-03-06T15:35:12Z</time>
      </trkpt>
      <trkpt lat="43.99656" lon="5.13858">
        <ele>242.4</ele>
        <time>2016-03-06T15:35:18Z</time>
      </trkpt>
      <trkpt lat="43.99664" lon="5.13867">
        <ele>241.2</ele>
        <time>2016-03-06T15:35:26Z</time>
      </trkpt>
      <trkpt lat="43.99671" lon="5.13876">
        <ele>240.2</ele>
        <time>2016-03-06T15:35:34Z</time>
      </trkpt>
      <trkpt lat="43.99679" lon="5.13881">
        <ele>239.1</ele>
        <time>2016-03-06T15:35:43Z</time>
      </trkpt>
      <trkpt lat="43.99686" lon="5.13891">
        <ele>238</ele>
        <time>2016-03-06T15:35:51Z</time>
      </trkpt>
      <trkpt lat="43.99693" lon="5.13899">
        <ele>236.6</ele>
        <time>2016-03-06T15:35:59Z</time>
      </trkpt>
      <trkpt lat="43.99701" lon="5.13906">
        <ele>235.7</ele>
        <time>2016-03-06T15:36:07Z</time>
      </trkpt>
      <trkpt lat="43.99711" lon="5.13906">
        <ele>234.8</ele>
        <time>2016-03-06T15:36:14Z</time>
      </trkpt>
      <trkpt lat="43.99719" lon="5.13911">
        <ele>233.9</ele>
        <time>2016-03-06T15:36:22Z</time>
      </trkpt>
      <trkpt lat="43.99728" lon="5.13914">
        <ele>233.1</ele>
        <time>2016-03-06T15:36:29Z</time>
      </trkpt>
      <trkpt lat="43.99737" lon="5.13921">
        <ele>231.7</ele>
        <time>2016-03-06T15:36:37Z</time>
      </trkpt>
      <trkpt lat="43.99746" lon="5.13924">
        <ele>230.2</ele>
        <time>2016-03-06T15:36:45Z</time>
      </trkpt>
      <trkpt lat="43.99755" lon="5.13926">
        <ele>228.5</ele>
        <time>2016-03-06T15:36:54Z</time>
      </trkpt>
      <trkpt lat="43.99763" lon="5.13932">
        <ele>226.3</ele>
        <time>2016-03-06T15:37:06Z</time>
      </trkpt>
      <trkpt lat="43.99772" lon="5.13937">
        <ele>224.7</ele>
        <time>2016-03-06T15:37:15Z</time>
      </trkpt>
      <trkpt lat="43.99782" lon="5.13933">
        <ele>223.2</ele>
        <time>2016-03-06T15:37:23Z</time>
      </trkpt>
      <trkpt lat="43.99791" lon="5.13936">
        <ele>221.9</ele>
        <time>2016-03-06T15:37:30Z</time>
      </trkpt>
      <trkpt lat="43.998" lon="5.13935">
        <ele>220.6</ele>
        <time>2016-03-06T15:37:38Z</time>
      </trkpt>
      <trkpt lat="43.99809" lon="5.1394">
        <ele>219.1</ele>
        <time>2016-03-06T15:37:47Z</time>
      </trkpt>
      <trkpt lat="43.99819" lon="5.13943">
        <ele>217.8</ele>
        <time>2016-03-06T15:37:55Z</time>
      </trkpt>
      <trkpt lat="43.99828" lon="5.13945">
        <ele>216</ele>
        <time>2016-03-06T15:38:05Z</time>
      </trkpt>
      <trkpt lat="43.99837" lon="5.13947">
        <ele>214.5</ele>
        <time>2016-03-06T15:38:15Z</time>
      </trkpt>
      <trkpt lat="43.99846" lon="5.13953">
        <ele>213.2</ele>
        <time>2016-03-06T15:38:24Z</time>
      </trkpt>
      <trkpt lat="43.99854" lon="5.13959">
        <ele>212.4</ele>
        <time>2016-03-06T15:38:29Z</time>
      </trkpt>
      <trkpt lat="43.99863" lon="5.13963">
        <ele>211.1</ele>
        <time>2016-03-06T15:38:39Z</time>
      </trkpt>
      <trkpt lat="43.99873" lon="5.13961">
        <ele>209.9</ele>
        <time>2016-03-06T15:38:46Z</time>
      </trkpt>
      <trkpt lat="43.99881" lon="5.13954">
        <ele>209.2</ele>
        <time>2016-03-06T15:38:50Z</time>
      </trkpt>
      <trkpt lat="43.9989" lon="5.13948">
        <ele>208.4</ele>
        <time>2016-03-06T15:38:55Z</time>
      </trkpt>
      <trkpt lat="43.99897" lon="5.13941">
        <ele>207.3</ele>
        <time>2016-03-06T15:39:03Z</time>
      </trkpt>
      <trkpt lat="43.99903" lon="5.13929">
        <ele>205.9</ele>
        <time>2016-03-06T15:39:13Z</time>
      </trkpt>
      <trkpt lat="43.9991" lon="5.1392">
        <ele>204.4</ele>
        <time>2016-03-06T15:39:24Z</time>
      </trkpt>
      <trkpt lat="43.99918" lon="5.13927">
        <ele>201.5</ele>
        <time>2016-03-06T15:39:43Z</time>
      </trkpt>
      <trkpt lat="43.99919" lon="5.1394">
        <ele>199.8</ele>
        <time>2016-03-06T15:39:52Z</time>
      </trkpt>
      <trkpt lat="43.99919" lon="5.13953">
        <ele>198</ele>
        <time>2016-03-06T15:40:03Z</time>
      </trkpt>
      <trkpt lat="43.99918" lon="5.13966">
        <ele>196</ele>
        <time>2016-03-06T15:40:15Z</time>
      </trkpt>
      <trkpt lat="43.99913" lon="5.13976">
        <ele>194.2</ele>
        <time>2016-03-06T15:40:29Z</time>
      </trkpt>
      <trkpt lat="43.99917" lon="5.13988">
        <ele>192.9</ele>
        <time>2016-03-06T15:40:40Z</time>
      </trkpt>
      <trkpt lat="43.99925" lon="5.13995">
        <ele>192.4</ele>
        <time>2016-03-06T15:40:46Z</time>
      </trkpt>
      <trkpt lat="43.99934" lon="5.13999">
        <ele>192</ele>
        <time>2016-03-06T15:40:52Z</time>
      </trkpt>
      <trkpt lat="43.99943" lon="5.14002">
        <ele>191.7</ele>
        <time>2016-03-06T15:40:59Z</time>
      </trkpt>
      <trkpt lat="43.99947" lon="5.14014">
        <ele>191.3</ele>
        <time>2016-03-06T15:41:16Z</time>
      </trkpt>
      <trkpt lat="43.99952" lon="5.14027">
        <ele>190.7</ele>
        <time>2016-03-06T15:41:22Z</time>
      </trkpt>
      <trkpt lat="43.99954" lon="5.1404">
        <ele>190.1</ele>
        <time>2016-03-06T15:41:28Z</time>
      </trkpt>
      <trkpt lat="43.99956" lon="5.14053">
        <ele>187.8</ele>
        <time>2016-03-06T15:41:45Z</time>
      </trkpt>
      <trkpt lat="43.99947" lon="5.1405">
        <ele>185.1</ele>
        <time>2016-03-06T15:41:57Z</time>
      </trkpt>
      <trkpt lat="43.99937" lon="5.14055">
        <ele>180.8</ele>
        <time>2016-03-06T15:43:24Z</time>
      </trkpt>
      <trkpt lat="43.99928" lon="5.14056">
        <ele>180.4</ele>
        <time>2016-03-06T15:43:32Z</time>
      </trkpt>
      <trkpt lat="43.99919" lon="5.1405">
        <ele>179.4</ele>
        <time>2016-03-06T15:43:44Z</time>
      </trkpt>
      <trkpt lat="43.9991" lon="5.14046">
        <ele>177.4</ele>
        <time>2016-03-06T15:43:55Z</time>
      </trkpt>
      <trkpt lat="43.99899" lon="5.14047">
        <ele>175.7</ele>
        <time>2016-03-06T15:44:03Z</time>
      </trkpt>
      <trkpt lat="43.9989" lon="5.1405">
        <ele>174.3</ele>
        <time>2016-03-06T15:44:10Z</time>
      </trkpt>
      <trkpt lat="43.99881" lon="5.14049">
        <ele>172.8</ele>
        <time>2016-03-06T15:44:18Z</time>
      </trkpt>
      <trkpt lat="43.99873" lon="5.14057">
        <ele>171.1</ele>
        <time>2016-03-06T15:44:26Z</time>
      </trkpt>
      <trkpt lat="43.99864" lon="5.14065">
        <ele>169</ele>
        <time>2016-03-06T15:44:35Z</time>
      </trkpt>
      <trkpt lat="43.99854" lon="5.14069">
        <ele>166.9</ele>
        <time>2016-03-06T15:44:52Z</time>
      </trkpt>
      <trkpt lat="43.99845" lon="5.1407">
        <ele>166.3</ele>
        <time>2016-03-06T15:45:00Z</time>
      </trkpt>
      <trkpt lat="43.99848" lon="5.14057">
        <ele>165.5</ele>
        <time>2016-03-06T15:45:38Z</time>
      </trkpt>
      <trkpt lat="43.99849" lon="5.14069">
        <ele>165.6</ele>
        <time>2016-03-06T15:46:48Z</time>
      </trkpt>
      <trkpt lat="43.99841" lon="5.14075">
        <ele>164.9</ele>
        <time>2016-03-06T15:47:01Z</time>
      </trkpt>
      <trkpt lat="43.99832" lon="5.14078">
        <ele>164.8</ele>
        <time>2016-03-06T15:47:08Z</time>
      </trkpt>
      <trkpt lat="43.99822" lon="5.14075">
        <ele>164.5</ele>
        <time>2016-03-06T15:47:16Z</time>
      </trkpt>
      <trkpt lat="43.99813" lon="5.14073">
        <ele>164.3</ele>
        <time>2016-03-06T15:47:22Z</time>
      </trkpt>
      <trkpt lat="43.99804" lon="5.14069">
        <ele>164.1</ele>
        <time>2016-03-06T15:47:29Z</time>
      </trkpt>
      <trkpt lat="43.99794" lon="5.14066">
        <ele>163.9</ele>
        <time>2016-03-06T15:47:35Z</time>
      </trkpt>
      <trkpt lat="43.99784" lon="5.14067">
        <ele>163.9</ele>
        <time>2016-03-06T15:47:40Z</time>
      </trkpt>
      <trkpt lat="43.99774" lon="5.14069">
        <ele>163.8</ele>
        <time>2016-03-06T15:47:46Z</time>
      </trkpt>
      <trkpt lat="43.99766" lon="5.14076">
        <ele>163.8</ele>
        <time>2016-03-06T15:47:51Z</time>
      </trkpt>
      <trkpt lat="43.99761" lon="5.14088">
        <ele>163.8</ele>
        <time>2016-03-06T15:47:59Z</time>
      </trkpt>
      <trkpt lat="43.99756" lon="5.141">
        <ele>164.3</ele>
        <time>2016-03-06T15:48:10Z</time>
      </trkpt>
      <trkpt lat="43.99753" lon="5.14113">
        <ele>164.9</ele>
        <time>2016-03-06T15:48:17Z</time>
      </trkpt>
      <trkpt lat="43.99749" lon="5.14127">
        <ele>166.1</ele>
        <time>2016-03-06T15:48:25Z</time>
      </trkpt>
      <trkpt lat="43.99746" lon="5.14139">
        <ele>166.9</ele>
        <time>2016-03-06T15:48:30Z</time>
      </trkpt>
      <trkpt lat="43.99747" lon="5.14152">
        <ele>168</ele>
        <time>2016-03-06T15:48:36Z</time>
      </trkpt>
      <trkpt lat="43.9975" lon="5.14165">
        <ele>169.2</ele>
        <time>2016-03-06T15:48:42Z</time>
      </trkpt>
      <trkpt lat="43.99757" lon="5.14174">
        <ele>170.1</ele>
        <time>2016-03-06T15:48:51Z</time>
      </trkpt>
      <trkpt lat="43.99765" lon="5.14183">
        <ele>170.3</ele>
        <time>2016-03-06T15:48:59Z</time>
      </trkpt>
      <trkpt lat="43.99773" lon="5.14192">
        <ele>170.1</ele>
        <time>2016-03-06T15:49:04Z</time>
      </trkpt>
      <trkpt lat="43.99779" lon="5.14202">
        <ele>169.9</ele>
        <time>2016-03-06T15:49:09Z</time>
      </trkpt>
      <trkpt lat="43.99784" lon="5.14213">
        <ele>169.7</ele>
        <time>2016-03-06T15:49:17Z</time>
      </trkpt>
      <trkpt lat="43.99789" lon="5.14224">
        <ele>169.5</ele>
        <time>2016-03-06T15:49:23Z</time>
      </trkpt>
      <trkpt lat="43.99795" lon="5.14233">
        <ele>169.4</ele>
        <time>2016-03-06T15:49:27Z</time>
      </trkpt>
      <trkpt lat="43.99804" lon="5.14236">
        <ele>169.7</ele>
        <time>2016-03-06T15:49:33Z</time>
      </trkpt>
      <trkpt lat="43.99811" lon="5.14245">
        <ele>170.7</ele>
        <time>2016-03-06T15:49:40Z</time>
      </trkpt>
      <trkpt lat="43.99819" lon="5.14253">
        <ele>171.9</ele>
        <time>2016-03-06T15:49:48Z</time>
      </trkpt>
      <trkpt lat="43.99828" lon="5.14258">
        <ele>172.5</ele>
        <time>2016-03-06T15:49:55Z</time>
      </trkpt>
      <trkpt lat="43.99837" lon="5.14263">
        <ele>172.6</ele>
        <time>2016-03-06T15:50:02Z</time>
      </trkpt>
      <trkpt lat="43.99844" lon="5.1427">
        <ele>171.9</ele>
        <time>2016-03-06T15:50:09Z</time>
      </trkpt>
      <trkpt lat="43.99854" lon="5.14275">
        <ele>171.5</ele>
        <time>2016-03-06T15:50:14Z</time>
      </trkpt>
      <trkpt lat="43.99863" lon="5.1428">
        <ele>171.1</ele>
        <time>2016-03-06T15:50:19Z</time>
      </trkpt>
      <trkpt lat="43.99872" lon="5.14289">
        <ele>170.3</ele>
        <time>2016-03-06T15:50:25Z</time>
      </trkpt>
      <trkpt lat="43.9988" lon="5.14296">
        <ele>169.3</ele>
        <time>2016-03-06T15:50:33Z</time>
      </trkpt>
      <trkpt lat="43.99889" lon="5.14301">
        <ele>168.8</ele>
        <time>2016-03-06T15:50:39Z</time>
      </trkpt>
      <trkpt lat="43.99896" lon="5.14309">
        <ele>168.4</ele>
        <time>2016-03-06T15:50:47Z</time>
      </trkpt>
      <trkpt lat="43.99906" lon="5.14315">
        <ele>168.1</ele>
        <time>2016-03-06T15:50:53Z</time>
      </trkpt>
      <trkpt lat="43.99916" lon="5.14319">
        <ele>167.4</ele>
        <time>2016-03-06T15:50:58Z</time>
      </trkpt>
      <trkpt lat="43.99926" lon="5.14323">
        <ele>166.5</ele>
        <time>2016-03-06T15:51:05Z</time>
      </trkpt>
      <trkpt lat="43.99935" lon="5.14329">
        <ele>165.8</ele>
        <time>2016-03-06T15:51:12Z</time>
      </trkpt>
      <trkpt lat="43.99943" lon="5.14336">
        <ele>164.8</ele>
        <time>2016-03-06T15:51:20Z</time>
      </trkpt>
      <trkpt lat="43.99951" lon="5.14344">
        <ele>163.6</ele>
        <time>2016-03-06T15:51:27Z</time>
      </trkpt>
      <trkpt lat="43.99959" lon="5.14351">
        <ele>162.8</ele>
        <time>2016-03-06T15:51:33Z</time>
      </trkpt>
      <trkpt lat="43.99967" lon="5.14358">
        <ele>161.7</ele>
        <time>2016-03-06T15:51:40Z</time>
      </trkpt>
      <trkpt lat="43.99975" lon="5.14364">
        <ele>160.8</ele>
        <time>2016-03-06T15:51:47Z</time>
      </trkpt>
      <trkpt lat="43.99983" lon="5.14371">
        <ele>160.1</ele>
        <time>2016-03-06T15:51:53Z</time>
      </trkpt>
      <trkpt lat="43.99992" lon="5.14378">
        <ele>159.6</ele>
        <time>2016-03-06T15:51:59Z</time>
      </trkpt>
      <trkpt lat="44.00001" lon="5.14375">
        <ele>159.2</ele>
        <time>2016-03-06T15:52:06Z</time>
      </trkpt>
      <trkpt lat="44.00009" lon="5.14383">
        <ele>157.3</ele>
        <time>2016-03-06T15:52:38Z</time>
      </trkpt>
      <trkpt lat="44.00018" lon="5.14391">
        <ele>156.8</ele>
        <time>2016-03-06T15:52:47Z</time>
      </trkpt>
      <trkpt lat="44.00026" lon="5.14397">
        <ele>156.3</ele>
        <time>2016-03-06T15:52:55Z</time>
      </trkpt>
      <trkpt lat="44.00034" lon="5.14405">
        <ele>155.9</ele>
        <time>2016-03-06T15:53:03Z</time>
      </trkpt>
      <trkpt lat="44.0004" lon="5.14415">
        <ele>155.3</ele>
        <time>2016-03-06T15:53:12Z</time>
      </trkpt>
      <trkpt lat="44.00045" lon="5.14425">
        <ele>154.9</ele>
        <time>2016-03-06T15:53:23Z</time>
      </trkpt>
      <trkpt lat="44.00052" lon="5.14435">
        <ele>154.7</ele>
        <time>2016-03-06T15:53:32Z</time>
      </trkpt>
      <trkpt lat="44.00059" lon="5.14444">
        <ele>154.6</ele>
        <time>2016-03-06T15:53:40Z</time>
      </trkpt>
      <trkpt lat="44.00069" lon="5.14448">
        <ele>154.5</ele>
        <time>2016-03-06T15:53:48Z</time>
      </trkpt>
      <trkpt lat="44.0008" lon="5.14449">
        <ele>154.4</ele>
        <time>2016-03-06T15:53:54Z</time>
      </trkpt>
      <trkpt lat="44.0009" lon="5.14449">
        <ele>154.5</ele>
        <time>2016-03-06T15:54:01Z</time>
      </trkpt>
      <trkpt lat="44.001" lon="5.14446">
        <ele>154.3</ele>
        <time>2016-03-06T15:54:07Z</time>
      </trkpt>
      <trkpt lat="44.00102" lon="5.14433">
        <ele>154</ele>
        <time>2016-03-06T15:54:14Z</time>
      </trkpt>
      <trkpt lat="44.00102" lon="5.14419">
        <ele>154.1</ele>
        <time>2016-03-06T15:54:22Z</time>
      </trkpt>
      <trkpt lat="44.00101" lon="5.14418">
        <ele>154.2</ele>
        <time>2016-03-06T15:54:26Z</time>
      </trkpt>
    </trkseg>
  </trk>
</gpx>